[[{"header":{"parameterUnit":"m.s-1","parameterCategory":1,"la1":30.6,"la2":28.766,"lo1":-90.7593,"lo2":-88.6598,"dy":0.0162,"dx":0.0183,"nx":116,"ny":114,"refTime":"2024-02-10T06:00:00:Z","depth":0,"parameterNumber":2,"parameterNumberName":"U-component_of_WINDS"},"data":[0.0,0.0,0.0,0.0,0.0,0.0,0.0,0.0,0.0,0.0,0.0,0.0,0.0,0.0,0.0,0.0,0.0,0.0,0.0,0.0,0.0,0.0,0.0,0.0,0.0,0.0,0.0,0.0,0.0,0.0,0.0,0.0,0.0,0.0,0.0,0.0,0.0,0.0,0.0,0.0,0.0,0.0,0.0,0.0,0.0,0.0,0.0,0.0,0.0,0.0,0.0,0.0,0.0,0.0,0.0,0.0,0.0,0.0,0.0,0.0,0.0,0.0,0.0,0.0,0.0,0.0,0.0,0.0,0.0,0.0,0.0,0.0,0.0,0.0,0.0,0.0,0.0,0.0,0.0,0.0,0.0,0.0,0.0,0.0,0.0,0.0,0.0,0.0,0.0,0.0,0.0,0.0,0.0,0.0,0.0,0.0,0.0,0.0,0.0,0.0,0.0,0.0,0.0,0.0,0.0,0.0,0.0,0.0,0.0,0.0,0.0,0.0,0.0,0.0,0.0,0.0,0.0,0.0,0.0,0.0,0.0,0.0,0.0,0.0,0.0,0.0,0.0,0.0,0.0,0.0,0.0,0.0,0.0,0.0,0.0,0.0,0.0,0.0,0.0,0.0,0.0,0.0,0.0,0.0,0.0,0.0,0.0,0.0,0.0,0.0,0.0,0.0,0.0,0.0,0.0,0.0,0.0,0.0,0.0,0.0,0.0,0.0,0.0,0.0,0.0,0.0,0.0,0.0,0.0,0.0,0.0,0.0,0.0,0.0,0.0,0.0,0.0,0.0,0.0,0.0,0.0,0.0,0.0,0.0,0.0,0.0,0.0,0.0,0.0,0.0,0.0,0.0,0.0,0.0,0.0,0.0,0.0,0.0,0.0,0.0,0.0,0.0,0.0,0.0,0.0,0.0,0.0,0.0,0.0,0.0,0.0,0.0,0.0,0.0,0.0,0.0,0.0,0.0,0.0,0.0,0.0,0.0,0.0,0.0,0.0,0.0,0.0,0.0,0.0,0.0,0.0,0.0,0.0,0.0,0.0,0.0,0.0,0.0,0.0,0.0,0.0,0.0,0.0,0.0,0.0,0.0,0.0,0.0,0.0,0.0,0.0,0.0,0.0,0.0,0.0,0.0,0.0,0.0,0.0,0.0,0.0,0.0,0.0,0.0,0.0,0.0,0.0,0.0,0.0,0.0,0.0,0.0,0.0,0.0,0.0,0.0,0.0,0.0,0.0,0.0,0.0,0.0,0.0,0.0,0.0,0.0,0.0,0.0,0.0,0.0,0.0,0.0,0.0,0.0,0.0,0.0,0.0,0.0,0.0,0.0,0.0,0.0,0.0,0.0,0.0,0.0,0.0,0.0,0.0,0.0,0.0,0.0,0.0,0.0,0.0,0.0,0.0,0.0,0.0,0.0,0.0,0.0,0.0,0.0,0.0,0.0,0.0,0.0,0.0,0.0,0.0,0.0,0.0,0.0,0.0,0.0,0.0,0.0,0.0,0.0,0.0,0.0,0.0,0.0,0.0,0.0,0.0,0.0,0.0,0.0,0.0,0.0,0.0,0.0,0.0,0.0,0.0,0.0,0.0,0.0,0.0,0.0,0.0,0.0,0.0,0.0,0.0,0.0,0.0,0.0,0.0,0.0,0.0,0.0,0.0,0.0,0.0,0.0,0.0,0.0,0.0,0.0,0.0,0.0,0.0,0.0,0.0,0.0,0.0,0.0,0.0,0.0,0.0,0.0,0.0,0.0,0.0,0.0,0.0,0.0,0.0,0.0,0.0,0.0,0.0,0.0,0.0,0.0,0.0,0.0,0.0,0.0,0.0,0.0,0.0,0.0,0.0,0.0,0.0,0.0,0.0,0.0,0.0,0.0,0.0,0.0,0.0,0.0,0.0,0.0,0.0,0.0,0.0,0.0,0.0,0.0,0.0,0.0,0.0,0.0,0.0,0.0,0.0,0.0,0.0,0.0,0.0,0.0,0.0,0.0,0.0,0.0,0.0,0.0,0.0,0.0,0.0,0.0,0.0,0.0,0.0,0.0,0.0,0.0,0.0,0.0,0.0,0.0,0.0,0.0,0.0,0.0,0.0,0.0,0.0,0.0,0.0,0.0,0.0,0.0,0.0,0.0,0.0,0.0,0.0,0.0,0.0,0.0,0.0,0.0,0.0,0.0,0.0,0.0,0.0,0.0,0.0,0.0,0.0,0.0,0.0,0.0,0.0,0.0,0.0,0.0,0.0,0.0,0.0,0.0,0.0,0.0,0.0,0.0,0.0,0.0,0.0,0.0,0.0,0.0,0.0,0.0,0.0,0.0,0.0,0.0,0.0,0.0,0.0,0.0,0.0,0.0,0.0,0.0,0.0,0.0,0.0,0.0,0.0,0.0,0.0,0.0,0.0,0.0,0.0,0.0,0.0,0.0,0.0,0.0,0.0,0.0,0.0,0.0,0.0,0.0,0.0,0.0,0.0,0.0,0.0,0.0,0.0,0.0,0.0,0.0,0.0,0.0,0.0,0.0,0.0,0.0,0.0,0.0,0.0,0.0,0.0,0.0,0.0,0.0,0.0,0.0,0.0,0.0,0.0,0.0,0.0,0.0,0.0,0.0,0.0,0.0,0.0,0.0,0.0,0.0,0.0,0.0,0.0,0.0,0.0,0.0,0.0,0.0,0.0,0.0,0.0,0.0,0.0,0.0,0.0,0.0,0.0,0.0,0.0,0.0,0.0,0.0,0.0,0.0,0.0,0.0,0.0,0.0,0.0,0.0,0.0,0.0,0.0,0.0,0.0,0.0,0.0,0.0,0.0,0.0,0.0,0.0,0.0,0.0,0.0,0.0,0.0,0.0,0.0,0.0,0.0,0.0,0.0,0.0,0.0,0.0,0.0,0.0,0.0,0.0,0.0,0.0,0.0,0.0,0.0,0.0,0.0,0.0,0.0,0.0,0.0,0.0,0.0,0.0,0.0,0.0,0.0,0.0,0.0,0.0,0.0,0.0,0.0,0.0,0.0,0.0,0.0,0.0,0.0,0.0,0.0,0.0,0.0,0.0,0.0,0.0,0.0,0.0,0.0,0.0,0.0,0.0,0.0,0.0,0.0,0.0,0.0,0.0,0.0,0.0,0.0,0.0,0.0,0.0,0.0,0.0,0.0,0.0,0.0,0.0,0.0,0.0,0.0,0.0,0.0,0.0,0.0,0.0,0.0,0.0,0.0,0.0,0.0,0.0,0.0,0.0,0.0,0.0,0.0,0.0,0.0,0.0,0.0,0.0,0.0,0.0,0.0,0.0,0.0,0.0,0.0,0.0,0.0,0.0,0.0,0.0,0.0,0.0,0.0,0.0,0.0,0.0,0.0,0.0,0.0,0.0,0.0,0.0,0.0,0.0,0.0,0.0,0.0,0.0,0.0,0.0,0.0,0.0,0.0,0.0,0.0,0.0,0.0,0.0,0.0,0.0,0.0,0.0,0.0,0.0,0.0,0.0,0.0,0.0,0.0,0.0,0.0,0.0,0.0,0.0,0.0,0.0,0.0,0.0,0.0,0.0,0.0,0.0,0.0,0.0,0.0,0.0,0.0,0.0,0.0,0.0,0.0,0.0,0.0,0.0,0.0,0.0,0.0,0.0,0.0,0.0,0.0,0.0,0.0,0.0,0.0,0.0,0.0,0.0,0.0,0.0,0.0,0.0,0.0,0.0,0.0,0.0,0.0,0.0,0.0,0.0,0.0,0.0,0.0,0.0,0.0,0.0,0.0,0.0,0.0,0.0,0.0,0.0,0.0,0.0,0.0,0.0,0.0,0.0,0.0,0.0,0.0,0.0,0.0,0.0,0.0,0.0,0.0,0.0,0.0,0.0,0.0,0.0,0.0,0.0,0.0,0.0,0.0,0.0,0.0,0.0,0.0,0.0,0.0,0.0,0.0,0.0,0.0,0.0,0.0,0.0,0.0,0.0,0.0,0.0,0.0,0.0,0.0,0.0,0.0,0.0,0.0,0.0,0.0,0.0,0.0,0.0,0.0,0.0,0.0,0.0,0.0,0.0,0.0,0.0,0.0,0.0,0.0,0.0,0.0,0.0,0.0,0.0,0.0,0.0,0.0,0.0,0.0,0.0,0.0,0.0,0.0,0.0,0.0,0.0,0.0,0.0,0.0,0.0,0.0,0.0,0.0,0.0,0.0,0.0,0.0,0.0,0.0,0.0,0.0,0.0,0.0,0.0,0.0,0.0,0.0,0.0,0.0,0.0,0.0,0.0,0.0,0.0,0.0,0.0,0.0,0.0,0.0,0.0,0.0,0.0,0.0,0.0,0.0,0.0,0.0,0.0,0.0,0.0,0.0,0.0,0.0,0.0,0.0,0.0,0.0,0.0,0.0,0.0,0.0,0.0,0.0,0.0,0.0,0.0,0.0,0.0,0.0,0.0,0.0,0.0,0.0,0.0,0.0,0.0,0.0,0.0,0.0,0.0,0.0,0.0,0.0,0.0,0.0,0.0,0.0,0.0,0.0,0.0,0.0,0.0,0.0,0.0,0.0,0.0,0.0,0.0,0.0,0.0,0.0,0.0,0.0,0.0,0.0,0.0,0.0,0.0,0.0,0.0,0.0,0.0,0.0,0.0,0.0,0.0,0.0,0.0,0.0,0.0,0.0,0.0,0.0,0.0,0.0,0.0,0.0,0.0,0.0,0.0,0.0,0.0,0.0,0.0,0.0,0.0,0.0,0.0,0.0,0.0,0.0,0.0,0.0,0.0,0.0,0.0,0.0,0.0,0.0,0.0,0.0,0.0,0.0,0.0,0.0,0.0,0.0,0.0,0.0,0.0,0.0,0.0,0.0,0.0,0.0,0.0,0.0,0.0,0.0,0.0,0.0,0.0,0.0,0.0,0.0,0.0,0.0,0.0,0.0,0.0,0.0,0.0,0.0,0.0,0.0,0.0,0.0,0.0,0.0,0.0,0.0,0.0,0.0,0.0,0.0,0.0,0.0,0.0,0.0,0.0,0.0,0.0,0.0,0.0,0.0,0.0,0.0,0.0,0.0,0.0,0.0,0.0,0.0,0.0,0.0,0.0,0.0,0.0,0.0,0.0,0.0,0.0,0.0,0.0,0.0,0.0,0.0,0.0,0.0,0.0,0.0,0.0,0.0,0.0,0.0,0.0,0.0,0.0,0.0,0.0,0.0,0.0,0.0,0.0,0.0,0.0,0.0,0.0,0.0,0.0,0.0,0.0,0.0,0.0,0.0,0.0,0.0,0.0,0.0,0.0,0.0,0.0,0.0,0.0,0.0,0.0,0.0,0.0,0.0,0.0,0.0,0.0,0.0,0.0,0.0,0.0,0.0,0.0,0.0,0.0,0.0,0.0,0.0,0.0,0.0,0.0,0.0,0.0,0.0,0.0,0.0,0.0,0.0,0.0,0.0,0.0,0.0,0.0,0.0,0.0,0.0,0.0,0.0,0.0,0.0,0.0,0.0,0.0,0.0,0.0,0.0,0.0,0.0,0.0,0.0,0.0,0.0,0.0,0.0,0.0,0.0,0.0,0.0,0.0,0.0,0.0,0.0,0.0,0.0,0.0,0.0,0.0,0.0,0.0,0.0,0.0,0.0,0.0,0.0,0.0,0.0,0.0,0.0,0.0,0.0,0.0,0.0,0.0,0.0,0.0,0.0,0.0,0.0,0.0,0.0,0.0,0.0,0.0,0.0,0.0,0.0,0.0,0.0,0.0,0.0,0.0,0.0,0.0,0.0,0.0,0.0,0.0,0.0,0.0,0.0,0.0,0.0,0.0,0.0,0.0,0.0,0.0,0.0,0.0,0.0,0.0,0.0,0.0,0.0,0.0,0.0,0.0,0.0,0.0,0.0,0.0,0.0,0.0,0.0,0.0,0.0,0.0,0.0,0.0,0.0,0.0,0.0,0.0,0.0,0.0,0.0,0.0,0.0,0.0,0.0,0.0,0.0,0.0,0.0,0.0,0.0,0.0,0.0,0.0,0.0,0.0,0.0,0.0,0.0,0.0,0.0,0.0,0.0,0.0,0.0,0.0,0.0,0.0,0.0,0.0,0.0,0.0,0.0,0.0,0.0,0.0,0.0,0.0,0.0,0.0,1.6339,0.0,0.0,0.0,0.0,0.0,0.0,0.0,0.0,0.0,0.0,0.0,0.0,0.0,0.0,0.0,0.0,0.0,0.0,0.0,0.0,0.0,0.0,0.0,0.0,0.0,0.0,0.0,0.5052,0.5118,0.5192,0.5196,0.5128,0.4968,0.5689,0.5979,0.5763,0.6325,0.6676,0.6776,0.6889,0.7067,0.7342,0.7171,0.7312,0.7741,0.0,0.0,0.0,0.0,0.0,0.0,0.0,0.0,0.0,0.0,0.0,0.0,0.0,0.0,0.0,0.0,0.0,0.0,0.0,0.0,0.0,0.0,0.0,0.0,0.0,0.0,0.0,0.0,0.0,0.0,0.0,0.0,0.0,0.0,0.0,0.0,0.0,0.0,0.0,0.0,0.0,0.0,0.0,0.0,0.0,0.0,0.0,0.0,0.0,0.0,0.0,0.0,0.0,0.0,0.0,0.0,0.0,0.0,0.0,0.0,0.0,0.0,0.0,0.0,0.0,0.0,0.0,0.0,0.0,0.0,0.0,1.685,0.0,0.0,0.0,0.0,0.0,0.0,0.0,0.0,0.0,0.0,0.0,0.0,0.0,0.0,0.0,0.0,0.0,0.0,0.0,0.0,0.0,0.0,0.0,0.469,0.5002,0.5002,0.5094,0.5168,0.5178,0.5181,0.5008,0.4646,0.5801,0.6244,0.5779,0.6708,0.7232,0.7286,0.7575,0.7733,0.7766,0.77,0.7803,0.0,0.0,0.0,0.0,0.0,0.0,0.0,0.0,0.0,0.0,0.0,0.0,0.0,0.0,0.0,0.0,0.0,0.0,0.0,0.0,0.0,0.0,0.0,0.0,0.0,0.0,0.0,0.0,0.0,0.0,0.0,0.0,0.0,0.0,0.0,0.0,0.0,0.0,0.0,0.0,0.0,0.0,0.0,0.0,0.0,0.0,0.0,0.0,0.0,0.0,0.0,0.0,0.0,0.0,0.0,0.0,0.0,0.0,0.0,0.0,0.0,0.0,0.0,0.0,0.0,1.719,1.7357,1.7371,1.7636,1.787,1.7993,1.7498,1.7526,1.7868,1.736,0.0,0.0,0.0,0.0,0.0,0.0,0.0,0.0,0.0,0.0,0.0,0.0,0.0,0.0,0.0,0.0,0.0,0.0,0.0,0.0,0.0,0.4535,0.4575,0.4575,0.4594,0.4627,0.4687,0.4693,0.4717,0.4769,0.5987,0.6474,0.606,0.681,0.7351,0.7629,0.8295,0.8684,0.8791,0.8506,0.8295,0.8139,0.0,0.0,0.0,0.0,0.0,0.0,0.0,0.0,0.0,0.0,0.0,0.0,0.0,0.0,0.0,0.0,0.0,0.0,0.0,0.0,0.0,0.0,0.0,0.0,0.0,0.0,0.0,0.0,0.0,0.0,0.0,0.0,0.0,0.0,0.0,0.0,0.0,0.0,0.0,0.0,0.0,0.0,0.0,0.0,1.6282,1.6786,0.0,0.0,0.0,0.0,0.0,0.0,0.0,0.0,0.0,0.0,0.0,0.0,0.0,1.674,1.6476,1.7299,1.7719,1.7719,1.7895,1.7975,1.7975,1.803,1.8222,1.8506,1.8414,0.0,1.7884,1.7801,0.0,0.0,0.0,0.0,0.0,0.0,0.0,0.0,0.0,0.0,0.0,0.0,0.0,0.0,0.0,0.0,0.0,0.0,0.0,0.0,0.0,0.4631,0.4728,0.4728,0.4893,0.4964,0.4879,0.4883,0.5039,0.5398,0.5844,0.6194,0.6424,0.7129,0.7847,0.8598,0.8813,0.8942,0.9001,0.8845,0.8732,0.863,0.7998,0.7982,0.8441,0.8603,0.0,0.0,0.0,0.0,0.0,0.0,0.0,0.0,0.0,0.0,0.0,0.0,0.0,0.0,0.0,0.0,0.0,0.0,0.0,0.0,0.0,0.0,0.0,0.0,0.0,0.0,0.0,0.0,0.0,0.0,0.0,0.0,0.0,0.0,0.0,0.0,0.0,0.0,0.0,1.6138,1.6167,1.6609,1.6388,1.6163,0.0,0.0,0.0,0.0,0.0,0.0,0.0,0.0,0.0,1.6786,1.7109,1.7329,1.744,1.7496,1.7675,1.8004,1.7922,1.8048,1.8396,1.8545,1.8681,1.8814,1.8814,1.8707,1.8494,1.8224,1.8075,1.7966,0.0,0.0,0.0,0.0,1.792,1.8048,0.0,0.0,0.0,0.0,0.0,0.0,0.0,0.0,0.0,0.0,0.0,0.0,0.4768,0.4998,0.5148,0.5148,0.538,0.5442,0.5236,0.5236,0.5385,0.5762,0.5795,0.6029,0.6478,0.7207,0.8037,0.8963,0.8979,0.9081,0.9258,0.9129,0.9081,0.9065,0.8673,0.8463,0.842,0.9005,0.0,0.0,0.0,0.0,0.0,0.0,0.0,0.0,0.0,0.0,0.0,0.0,0.0,0.0,0.0,0.0,0.0,0.0,0.0,0.0,0.0,0.0,0.0,0.0,0.0,0.0,0.0,0.0,0.0,0.0,0.0,0.0,0.0,0.0,0.0,0.0,0.0,0.0,0.0,1.6385,1.6271,1.6435,1.6488,1.6435,0.0,0.0,0.0,0.0,0.0,0.0,1.6811,1.6825,1.7036,1.7468,1.7675,1.7868,1.8043,1.7785,1.7895,1.8329,1.8129,1.8278,1.8707,1.8907,1.9072,1.9205,1.9205,1.9289,1.9357,1.8733,1.8603,1.8771,1.843,1.8387,1.8515,1.8612,1.864,1.874,0.0,0.0,0.0,0.0,0.0,0.0,0.0,0.0,0.0,0.0,0.0,0.5256,0.5512,0.5721,0.5844,0.5844,0.5868,0.5789,0.5583,0.5583,0.5534,0.5428,0.6025,0.6223,0.5938,0.679,0.7505,0.8059,0.8689,0.0,0.0,0.0,0.0,0.0,0.0,0.0,0.0,0.0,0.0,0.0,0.0,0.0,0.0,0.0,0.0,0.0,0.0,0.0,0.0,0.0,0.0,0.0,0.0,0.0,0.0,0.0,0.0,0.0,0.0,0.0,0.0,0.0,0.0,0.0,0.0,0.0,0.0,0.0,0.0,0.0,0.0,0.0,0.0,0.0,0.0,0.0,0.0,0.0,0.0,1.6595,1.6694,0.0,0.0,0.0,0.0,1.6751,1.6775,1.6976,1.7426,1.7454,1.7429,1.7418,1.8143,1.8344,1.7911,1.8573,1.8921,1.8947,1.8934,1.8947,1.8974,1.8987,1.9277,1.9758,1.9758,2.0045,2.044,1.9393,1.911,1.935,1.9336,1.9447,1.9662,1.9992,2.0093,2.0149,0.0,0.0,0.0,0.0,0.0,0.0,0.0,0.0,0.5297,0.5352,0.5404,0.554,0.5765,0.5967,0.6099,0.6099,0.6169,0.6152,0.5996,0.5868,0.5918,0.6231,0.6013,0.6153,0.6732,0.6912,0.737,0.8134,0.8705,0.0,0.0,0.0,0.0,0.0,0.0,0.0,0.0,0.0,0.0,0.0,0.0,0.0,0.0,0.0,0.0,0.0,0.0,0.0,0.0,0.0,0.0,0.0,0.0,0.0,0.0,0.0,0.0,0.0,0.0,0.0,0.0,0.0,0.0,0.0,0.0,0.0,0.0,0.0,0.0,0.0,0.0,0.0,0.0,0.0,0.0,0.0,0.0,0.0,0.0,1.6722,1.6839,0.0,1.706,1.7172,1.7315,1.7496,1.759,1.7714,1.7879,1.7893,1.7977,1.817,1.8441,1.8767,1.9111,1.9,1.9301,2.0019,1.9641,1.9656,2.0033,2.0035,2.0187,2.0439,2.0439,2.0629,2.0901,2.051,2.028,2.0177,2.0177,2.027,2.0413,2.0541,2.067,2.0845,0.0,0.0,0.0,0.0,0.0,0.0,0.0,0.0,0.5703,0.5703,0.5765,0.5851,0.5987,0.6169,0.6264,0.6264,0.635,0.635,0.6214,0.6066,0.6136,0.6412,0.5967,0.6062,0.6842,0.6728,0.7207,0.0,0.0,0.0,0.0,0.0,0.0,0.0,0.0,0.0,0.0,0.0,0.0,0.0,0.0,0.0,0.8317,0.0,0.0,0.0,0.0,0.0,0.0,0.0,0.0,0.0,0.0,0.0,0.0,0.0,0.0,0.0,0.0,0.0,0.0,0.0,0.0,0.0,0.0,0.0,0.0,0.0,0.0,0.0,0.0,0.0,0.0,0.0,0.0,0.0,0.0,0.0,1.706,1.7092,1.7259,1.7398,1.7429,1.7762,1.8058,1.8228,1.8496,1.8697,1.8795,1.8809,1.8948,1.9266,1.928,1.9529,2.0057,1.9679,1.9871,2.0653,2.0254,2.0324,2.0768,2.077,2.0925,2.1167,2.0958,2.1054,2.1313,2.1143,2.0941,2.0752,2.0962,2.1202,2.1448,2.1448,2.1535,2.1699,0.0,0.0,0.0,0.0,0.0,0.0,0.0,0.5908,0.5908,0.5908,0.6083,0.6214,0.6214,0.6334,0.642,0.6404,0.6404,0.635,0.6214,0.6198,0.6115,0.5921,0.5921,0.6024,0.6239,0.6235,0.6975,0.0,0.0,0.0,0.0,0.0,0.0,0.0,0.0,0.0,0.0,0.0,0.0,0.0,0.0,0.0,0.8128,0.0,0.0,0.0,0.0,0.0,0.0,0.0,0.0,0.0,0.0,0.0,0.0,0.0,0.0,0.0,0.0,0.0,0.0,0.0,0.0,0.0,0.0,0.0,0.0,0.0,0.0,0.0,0.0,0.0,0.0,0.0,0.0,0.0,1.7425,1.7467,1.7623,1.7753,1.7995,1.8103,1.797,1.8551,1.8948,1.8948,1.9425,1.9875,2.0205,2.0219,2.0336,2.061,2.0622,2.0622,2.0646,2.0646,2.0706,2.0837,2.0837,2.0923,2.1096,2.1096,2.1379,2.1859,2.1262,2.1297,2.1751,2.1237,2.1016,2.1066,2.1647,2.2201,2.2684,2.2684,2.2696,2.2723,0.0,0.0,0.0,0.0,0.0,0.0,0.0,0.602,0.6152,0.6255,0.6317,0.6432,0.6679,0.6733,0.6733,0.663,0.6609,0.6548,0.635,0.6247,0.6214,0.6255,0.64,0.0,0.6996,0.6996,0.0,0.0,0.0,0.0,0.0,0.0,0.0,0.0,0.0,0.0,0.0,0.0,0.0,0.0,0.0,0.0,0.8904,0.0,0.0,0.0,0.0,0.0,0.0,0.0,0.0,0.0,0.0,0.0,0.0,0.0,0.0,0.0,0.0,0.0,0.0,0.0,0.0,0.0,0.0,0.0,0.0,0.0,0.0,0.0,0.0,0.0,0.0,0.0,0.0,1.9448,1.9511,1.9273,1.9114,1.9146,1.9215,1.9342,1.9554,1.9726,1.9909,2.011,2.0282,2.0452,2.0613,2.0641,2.0739,2.0954,2.0954,2.1149,2.1541,2.1541,2.1543,2.1533,2.1533,2.1352,2.1029,2.1029,2.1159,2.1382,2.122,2.1303,2.1567,2.1417,2.1355,2.1352,2.1274,2.1666,2.2266,2.2266,2.2573,2.303,0.0,0.0,0.0,0.0,0.0,0.0,0.0,0.6202,0.6346,0.6498,0.6531,0.6613,0.6881,0.6897,0.6864,0.6794,0.6778,0.6712,0.6531,0.6445,0.6461,0.0,0.0,0.7063,0.7296,0.738,0.7622,0.0,0.0,0.0,0.0,0.0,0.0,0.0,0.0,0.0,0.0,0.0,0.0,0.0,0.0,0.0,0.9562,0.93,0.9827,1.0728,1.0818,1.1242,1.1833,1.232,0.0,0.0,0.0,0.0,0.0,0.0,0.0,0.0,0.0,0.0,0.0,0.0,0.0,0.0,0.0,0.0,0.0,0.0,0.0,0.0,0.0,0.0,0.0,0.0,2.0307,2.0594,2.1075,2.0435,1.9948,2.0068,2.0126,2.0239,2.0425,2.073,2.0976,2.1136,2.1357,2.1508,2.1584,2.1599,2.1655,2.1758,2.1537,2.1547,2.1866,2.1633,2.1524,2.1555,2.1555,2.1426,2.1214,2.1214,2.1256,2.1302,2.1091,2.1087,2.1224,2.0985,2.105,0.0,0.0,0.0,0.0,0.0,2.2934,2.3333,0.0,0.0,0.0,0.0,0.0,0.0,0.0,0.6416,0.6498,0.6691,0.6741,0.6811,0.6946,0.6963,0.6963,0.693,0.693,0.6876,0.6724,0.0,0.0,0.696,0.7224,0.7369,0.7414,0.7593,0.7999,0.0,0.0,0.0,0.0,0.0,0.0,0.0,0.0,0.0,0.0,0.0,0.0,0.0,0.0,0.0,1.0063,1.0434,1.0593,1.0744,1.1646,1.2019,1.2151,1.2826,0.0,0.0,0.0,0.0,0.0,0.0,0.0,0.0,0.0,0.0,0.0,0.0,0.0,0.0,0.0,0.0,0.0,0.0,0.0,0.0,0.0,0.0,0.0,0.0,2.164,2.1687,2.2156,2.1215,2.056,2.0783,2.0926,2.0998,2.0998,2.1609,2.1994,2.1994,2.2422,2.2708,2.2708,0.0,0.0,0.0,0.0,2.1773,2.1787,2.1319,2.1121,2.1199,2.1199,2.1258,2.136,2.136,2.136,2.1335,2.0845,2.0748,2.0879,2.0346,2.059,2.136,2.2076,2.2353,2.2443,2.3158,2.3495,2.3599,0.0,0.0,0.0,0.0,0.0,0.0,0.0,0.6548,0.6691,0.6843,0.7007,0.7167,0.7363,0.7379,0.7314,0.7155,0.7138,0.7057,0.0,0.0,0.7194,0.7382,0.7593,0.7851,0.8183,0.823,0.8388,0.0,0.0,0.0,0.0,0.0,0.0,0.0,0.0,0.0,0.0,0.0,0.0,0.0,0.0,0.0,1.026,1.0339,1.0523,1.0854,1.1584,1.2081,1.2513,1.3177,1.3396,1.3381,1.3275,0.0,0.0,0.0,0.0,0.0,0.0,0.0,0.0,0.0,0.0,0.0,0.0,0.0,0.0,0.0,0.0,0.0,0.0,0.0,0.0,2.1688,2.2002,2.2237,2.2347,2.228,2.2189,2.2059,2.2222,2.234,2.234,2.2469,2.2545,2.2545,2.2644,2.2754,2.2848,2.2454,2.2265,2.237,2.1833,2.1616,2.1716,2.1629,2.1406,2.1123,0.0,0.0,2.045,2.045,2.045,2.045,2.0348,2.0591,2.1052,2.0937,2.1501,2.2489,2.2636,2.2697,2.2761,2.335,2.3584,2.3628,0.0,0.0,0.0,0.0,0.0,0.0,0.0,0.6728,0.686,0.7024,0.7138,0.7281,0.7477,0.7505,0.7456,0.7363,0.7417,0.7449,0.0,0.7608,0.7852,0.818,0.8392,0.8657,0.8986,0.9094,0.9205,0.0,0.0,0.0,0.0,0.0,0.0,0.0,0.0,0.0,0.0,0.0,0.0,0.0,0.0,0.0,1.1291,1.1193,1.1507,1.2086,1.2724,1.3355,1.3997,1.4631,1.4848,1.4833,1.4771,1.4655,1.4524,0.0,0.0,0.0,0.0,0.0,0.0,0.0,0.0,0.0,0.0,0.0,0.0,0.0,0.0,2.1348,2.1799,0.0,2.1788,2.2006,2.2251,2.2436,2.254,2.2681,2.2739,2.2571,2.2708,2.28,2.28,2.2848,2.2939,2.3042,2.278,2.2677,2.2839,2.2308,2.2034,2.2092,2.1588,2.1324,2.1392,2.1099,2.0845,2.0642,2.0642,2.0489,2.0207,2.0207,2.0207,2.022,2.0515,2.0862,2.1262,2.1884,2.2494,2.3062,2.3674,2.3667,2.3388,2.3657,2.3789,2.385,0.0,0.0,0.0,0.0,0.0,0.0,0.0,0.693,0.7007,0.7188,0.7237,0.7314,0.7477,0.7505,0.7505,0.7505,0.7661,0.0,0.0,0.816,0.846,0.8932,0.9121,0.9335,0.9652,0.982,0.9903,0.0,0.0,0.0,0.0,0.0,0.0,0.0,0.0,0.0,0.0,0.0,0.0,0.0,0.0,0.0,1.2579,1.2365,1.2665,1.3303,1.4057,1.4754,1.5389,1.6,1.6208,1.6208,1.6208,1.6058,1.5843,1.5673,1.5904,0.0,0.0,0.0,0.0,0.0,0.0,0.0,0.0,0.0,2.1316,2.1411,2.1427,2.1522,2.1835,2.1886,2.2022,2.2389,2.2482,2.2558,2.2708,2.2848,2.2894,2.2784,2.2863,2.2939,2.2939,2.3063,2.3225,2.3388,2.2872,2.2627,2.2783,2.2127,2.1741,2.1741,2.1334,2.1117,2.1143,2.0771,2.0605,2.063,2.063,2.063,2.063,2.0746,2.0772,2.0823,2.1545,2.1922,2.2148,2.3302,2.3778,2.3898,2.487,2.4887,2.4363,2.4333,2.4407,2.4496,0.0,0.0,0.0,0.0,0.0,0.0,0.0,0.0,0.7171,0.7204,0.7363,0.7472,0.7489,0.7505,0.7505,0.7505,0.0,0.0,0.8003,0.8301,0.8677,0.9147,0.919,0.9416,0.9849,0.9887,0.9903,0.0,0.0,0.0,0.0,0.0,0.0,0.0,0.0,0.0,0.0,0.0,0.0,0.0,0.0,0.0,1.3606,1.3407,1.3272,1.337,1.4689,1.5227,1.5389,1.6,1.6208,1.6208,1.6208,1.6176,1.6144,1.6128,0.0,1.6293,1.6708,1.7929,1.931,2.0228,2.079,2.1279,0.0,0.0,2.1761,2.2177,2.2266,2.2328,2.2555,2.2586,2.2601,2.2647,2.2769,2.2848,2.2878,2.2987,2.3078,2.3063,2.3078,2.3078,2.3078,2.3256,2.3373,2.3403,2.3001,2.2768,2.2797,2.1783,2.1193,2.1193,2.113,2.1158,2.1276,2.1742,2.2043,2.2151,2.2151,2.2151,2.2165,2.2659,2.2853,2.2932,2.407,2.4642,2.4815,2.5506,2.5862,2.5969,2.6102,2.61,2.6016,2.5893,2.5862,2.5893,0.0,0.0,0.0,0.0,0.0,0.0,0.0,0.0,0.0,0.7379,0.7444,0.7505,0.7505,0.7505,0.757,0.0,0.0,0.0,0.8565,0.8899,0.9237,0.9587,0.976,1.0007,1.0363,1.0866,1.113,0.0,0.0,0.0,0.0,0.0,0.0,0.0,0.0,0.0,0.0,0.0,0.0,0.0,0.0,0.0,1.4018,1.4371,1.445,1.4475,1.5249,1.6107,0.0,0.0,1.7246,1.7246,1.7246,1.7246,1.7229,1.712,1.7432,0.0,1.8582,1.9538,0.0,0.0,2.1336,2.189,2.2232,2.2204,2.2204,2.2509,2.2571,2.2601,2.2678,2.2705,2.2723,0.0,2.2848,2.2924,2.3002,2.3165,2.3271,2.3271,2.3333,2.336,2.3285,2.342,2.3554,2.3671,2.3539,2.3472,2.3544,2.3091,2.2676,2.2339,2.2327,2.2199,2.194,2.2501,2.2871,2.3036,2.3405,2.3592,2.369,2.3914,2.4206,2.4577,2.5067,2.5508,2.5855,2.6109,2.6248,2.6321,2.6696,2.6816,2.6776,2.6365,2.623,2.623,0.0,0.0,0.0,0.0,0.0,0.0,0.0,0.0,0.0,0.0,0.7505,0.7538,0.7619,0.764,0.7771,0.0,0.0,0.0,0.0,0.9318,0.9647,0.9962,1.0172,0.0,1.1149,1.1793,1.2259,1.256,0.0,0.0,0.0,0.0,0.0,0.0,0.0,0.0,0.0,0.0,0.0,0.0,0.0,0.0,1.422,1.4715,1.5143,1.5568,1.5965,1.682,0.0,0.0,1.7991,1.7991,1.7991,1.7991,1.7974,1.7828,1.8391,1.921,1.9737,0.0,0.0,2.1234,2.1788,2.2355,2.2463,2.2482,2.2528,2.2723,2.2754,2.2769,2.28,2.2815,2.2845,2.2939,2.3,2.3075,2.3168,2.3345,2.3463,2.3463,2.3597,2.3692,2.3756,2.3859,2.3964,2.4111,2.417,2.4257,2.4333,2.4248,2.3975,2.3543,2.373,2.3653,2.3259,2.3783,2.413,2.4273,2.4711,2.4969,2.5071,2.5231,2.5646,2.6222,2.6222,2.6449,2.6852,2.6852,2.6883,2.6983,2.7412,2.7589,2.7535,2.7104,2.6912,2.6852,0.0,0.0,0.0,0.0,0.0,0.0,0.0,0.0,0.0,0.0,0.0,0.0,0.0,0.0,0.0,0.0,0.0,0.0,0.0,0.9318,0.9711,1.0178,1.0197,1.088,1.2318,1.2375,1.2895,1.3939,0.0,0.0,0.0,0.0,0.0,0.0,0.0,0.0,0.0,0.0,0.0,0.0,0.0,0.0,1.4371,1.4201,1.5028,1.6341,1.6933,0.0,0.0,0.0,1.7991,1.7991,1.7991,1.7991,0.0,1.7991,1.8613,0.0,0.0,0.0,2.1585,2.1585,2.2134,2.269,2.269,2.269,2.2723,2.2863,2.2894,2.2924,2.3063,2.3093,2.3093,2.3093,2.3256,2.3388,2.3388,2.3509,2.3599,2.3599,2.376,2.4098,0.0,2.4667,2.4667,2.4682,2.486,2.4979,2.4966,2.4591,2.439,2.4363,2.5053,2.5421,2.5408,2.5936,2.6212,2.6228,2.6241,2.6241,2.6268,2.6843,2.7458,2.8016,2.8016,2.81,2.8233,2.8233,2.8344,2.8516,2.856,2.856,2.856,2.8546,2.8406,2.8266,0.0,0.0,0.0,0.0,0.0,0.0,0.0,0.0,0.0,0.0,0.0,0.0,0.0,0.0,0.0,0.0,0.0,0.0,0.0,1.0471,1.0758,1.0595,1.1277,1.1889,1.2389,1.2964,1.3578,1.4201,0.0,0.0,0.0,0.0,0.0,0.0,0.0,0.0,0.0,0.0,0.0,0.0,0.0,0.0,1.4587,1.5054,1.5551,1.6105,0.0,0.0,0.0,0.0,1.8262,1.833,1.833,0.0,0.0,1.8925,1.9573,2.0268,0.0,0.0,2.2331,2.2331,2.2525,2.2708,2.2815,2.283,2.2863,2.3002,2.3032,2.3047,2.3093,2.321,2.33,2.33,2.3435,2.3524,2.3524,2.3686,2.3789,2.3789,2.4289,0.0,0.0,0.0,0.0,2.5592,2.6017,2.6322,2.6447,2.6709,2.666,2.6277,2.6496,2.6447,2.603,2.6618,2.6959,2.7095,2.7595,2.7831,2.7831,2.8034,2.8236,2.8438,2.8438,2.8457,2.8492,2.8492,2.8538,2.8603,2.8603,2.8603,2.8603,2.8603,2.8554,2.8509,0.0,0.0,0.0,0.0,0.0,0.0,0.0,0.0,0.0,0.0,0.0,0.0,0.0,0.0,0.0,0.0,0.0,0.0,0.0,0.0,1.0953,1.0534,1.1467,1.2202,1.2644,1.3429,1.4222,1.501,1.501,0.0,0.0,0.0,0.0,0.0,0.0,0.0,0.0,0.0,0.0,0.0,0.0,0.0,1.5471,1.6,1.6368,0.0,0.0,0.0,0.0,0.0,0.0,1.8499,1.8499,1.8499,1.86,1.9058,1.9731,2.0473,2.1132,2.1893,2.2531,2.2772,2.2845,2.2863,2.2954,2.2969,2.303,2.3168,2.3153,2.3138,2.3258,2.3345,2.3418,2.3463,2.3611,2.3715,2.3715,2.3863,2.4071,2.4326,2.4784,2.5285,0.0,0.0,0.0,2.6463,2.7001,2.738,2.7509,2.7934,2.7993,2.7621,2.7656,2.7513,2.7122,2.7513,2.7779,2.7904,2.8362,2.8603,2.8603,2.8603,2.8603,2.8603,2.8603,2.8603,2.8603,2.8603,2.8603,2.8603,2.8603,2.8603,2.8603,2.8603,2.8603,2.8603,0.0,0.0,0.0,0.0,0.0,0.0,0.0,0.0,0.0,0.0,0.0,0.0,0.0,0.0,0.0,0.0,0.0,0.0,0.0,0.0,0.0,1.0158,1.0958,1.196,1.3148,1.3797,1.4827,1.6241,1.6241,0.0,0.0,0.0,0.0,0.0,0.0,0.0,0.0,0.0,0.0,0.0,0.0,0.0,1.6845,1.6932,0.0,0.0,0.0,0.0,0.0,0.0,0.0,0.0,0.0,1.8533,1.8533,1.8533,1.9148,1.9955,2.0632,2.1451,2.2252,2.2944,2.3123,2.3123,2.3123,2.3138,2.3183,2.3373,2.3271,2.3228,0.0,0.0,2.3478,2.3599,2.3774,2.3905,2.3905,2.4023,2.4365,0.0,0.0,0.0,0.0,0.0,0.0,2.7277,0.0,2.8112,2.8128,2.8249,2.832,2.832,2.8492,2.8603,2.8603,2.8603,2.8603,2.8603,2.8603,2.8603,2.8603,2.8603,2.8603,2.8603,2.8619,2.8619,2.8603,2.8619,2.8619,2.8603,2.8603,2.8603,2.8619,2.8619,2.8635,2.8651,0.0,0.0,0.0,0.0,0.0,0.0,0.0,0.0,0.0,0.0,0.0,0.0,0.0,0.0,0.0,0.0,0.0,0.0,0.0,0.0,0.0,0.0,0.0,0.0,0.0,0.0,0.0,0.0,0.0,1.5771,0.0,0.0,0.0,0.0,0.0,0.0,0.0,0.0,0.0,0.0,0.0,0.0,1.6193,0.0,0.0,0.0,0.0,0.0,0.0,0.0,0.0,0.0,0.0,1.8958,1.8958,1.8958,1.9462,2.0177,2.0842,2.1542,2.2298,2.3123,2.3315,2.3345,2.3452,2.3467,2.3495,2.3539,2.3509,2.3509,0.0,0.0,0.0,2.3817,2.3949,0.0,2.4052,2.4068,0.0,2.5108,0.0,2.6281,2.731,2.7768,0.0,0.0,2.8252,2.8314,2.8457,2.8506,2.8509,2.8509,2.8571,2.8603,2.8603,2.8603,2.8603,2.8603,2.8603,2.8603,2.8603,2.8603,2.8603,2.8603,2.886,2.8828,2.8619,2.8876,2.8828,2.8603,2.8603,2.8748,2.8972,2.8972,2.9131,2.9352,0.0,0.0,0.0,0.0,0.0,0.0,0.0,0.0,0.0,0.0,0.0,0.0,0.0,0.0,0.0,0.0,0.0,0.0,0.0,0.0,0.0,0.0,0.0,0.0,0.0,0.0,0.0,0.0,0.0,0.0,0.0,0.0,0.0,0.0,0.0,0.0,0.0,0.0,0.0,0.0,0.0,0.0,0.0,0.0,0.0,0.0,0.0,0.0,0.0,0.0,0.0,1.9108,1.9108,1.9108,1.9108,1.9108,0.0,2.0344,2.1044,2.1756,2.2512,2.3288,2.348,2.3509,2.3584,2.3599,2.3628,2.3702,2.3658,0.0,0.0,0.0,0.0,0.0,0.0,0.0,2.4098,2.4379,2.4864,0.0,2.6288,0.0,2.7901,2.8255,2.8476,0.0,2.8492,2.8476,2.8587,2.8603,2.8603,2.8603,2.8603,2.8603,2.8603,2.8603,2.8603,2.8603,2.8748,2.8812,2.8812,2.8972,2.9035,2.9035,0.0,2.9083,2.9035,2.9083,2.9083,2.9035,2.9035,2.9147,2.932,2.932,2.943,2.9587,0.0,0.0,0.0,0.0,0.0,0.0,0.0,0.0,0.0,0.0,0.0,0.0,0.0,0.0,0.0,0.0,0.0,0.0,0.0,0.0,0.0,0.0,0.0,0.0,0.0,0.0,0.0,0.0,0.0,0.0,0.0,0.0,0.0,0.0,0.0,0.0,0.0,0.0,0.0,0.0,0.0,0.0,0.0,0.0,0.0,0.0,0.0,0.0,0.0,0.0,1.9125,1.9125,1.9125,1.9131,1.9175,1.9175,1.9721,2.0494,2.1234,2.199,2.2771,2.3467,2.3643,2.3643,2.3658,2.3673,2.3717,2.3891,0.0,2.376,2.4054,2.4008,2.3964,2.4068,0.0,2.4112,2.4127,2.4757,2.5474,2.6256,2.7028,2.7777,2.8532,2.8603,2.8603,2.8603,2.8603,2.8603,2.8603,2.8603,2.8603,2.8603,2.8635,2.8667,2.8667,2.87,2.8732,2.8732,2.8972,2.9115,2.9162,2.9415,2.9556,2.9587,2.9336,2.9368,2.9571,2.932,2.9383,2.9587,2.9587,2.9618,2.9665,2.9665,2.968,2.9727,0.0,0.0,0.0,0.0,0.0,0.0,0.0,0.0,0.0,0.0,1.03,1.1219,0.0,0.0,0.0,0.0,0.0,0.0,0.0,0.0,0.0,0.0,0.0,0.0,0.0,0.0,0.0,0.0,0.0,0.0,0.0,0.0,0.0,0.0,0.0,0.0,0.0,0.0,0.0,0.0,0.0,0.0,0.0,0.0,0.0,0.0,0.0,0.0,0.0,0.0,1.9268,1.9268,1.9268,1.9374,1.9506,1.9506,1.9998,2.0703,2.1381,2.2067,2.2801,2.3628,2.3861,2.3876,2.3995,2.401,0.0,0.0,0.0,2.4024,2.4083,2.4068,0.0,2.4098,0.0,0.0,0.0,0.0,2.5535,0.0,0.0,0.0,0.0,0.0,0.0,0.0,0.0,2.8603,2.8603,2.8603,2.8603,2.8603,2.8876,2.9004,2.9004,2.9289,2.943,2.9415,2.9194,2.9242,2.9509,2.9289,2.9336,2.9602,2.9834,0.0,2.9618,2.9849,2.9803,2.9587,2.9587,2.9772,3.0004,3.0004,3.0189,3.0431,0.0,0.0,0.0,0.0,0.0,0.0,0.0,0.8069,0.8748,0.9406,1.0171,1.1038,1.2089,1.2259,0.0,0.0,0.0,0.0,0.0,0.0,0.0,0.0,0.0,0.0,0.0,0.0,0.0,0.0,0.0,0.0,0.0,0.0,0.0,0.0,0.0,0.0,0.0,0.0,0.0,0.0,0.0,0.0,0.0,0.0,0.0,0.0,0.0,0.0,0.0,0.0,1.9357,1.9467,1.9467,1.9522,1.9588,1.9588,2.0399,2.1349,2.1675,2.2555,2.3484,2.3892,2.4008,2.4023,2.4083,0.0,0.0,0.0,0.0,2.4098,2.4098,0.0,0.0,0.0,0.0,0.0,0.0,0.0,0.0,0.0,0.0,0.0,0.0,0.0,0.0,0.0,0.0,2.8603,2.8603,2.8603,2.8603,2.8603,2.8764,2.8844,2.8844,2.9162,2.9336,2.9336,2.9524,2.971,2.9865,2.9867,2.996,3.0127,3.0111,0.0,3.0127,3.0111,3.0111,3.0127,3.0127,3.0219,3.0356,3.0356,3.0462,3.0598,0.0,0.0,0.0,0.0,0.0,0.0,0.0,0.8069,0.8748,0.9406,1.0082,1.0895,1.1918,1.2166,1.2336,0.0,0.0,0.0,0.0,0.0,0.0,0.0,0.0,0.0,0.0,0.0,0.0,0.0,0.0,0.0,0.0,0.0,0.0,0.0,0.0,0.0,0.0,0.0,0.0,0.0,0.0,0.0,0.0,0.0,0.0,0.0,0.0,0.0,0.0,0.0,1.9522,1.9671,1.9698,1.9714,1.9736,1.9884,2.0773,2.1753,2.1908,2.2902,2.3894,2.3894,2.3982,2.4098,2.4098,2.4098,0.0,0.0,2.4098,2.4098,2.4098,0.0,0.0,0.0,0.0,0.0,0.0,0.0,0.0,0.0,0.0,0.0,0.0,0.0,0.0,0.0,0.0,0.0,2.87,2.878,2.8812,2.8812,2.8876,2.8924,2.8924,2.9243,2.9416,2.9416,2.9866,3.0142,3.0218,3.0401,3.0537,3.0597,3.031,0.0,3.0568,3.0325,3.0356,3.0598,3.0598,3.0598,3.0598,3.0598,3.0598,3.0598,0.0,0.0,0.0,0.0,0.0,0.0,0.0,0.8069,0.8748,0.9406,1.0082,1.0848,1.1724,1.1996,1.2166,0.0,0.0,0.0,0.0,0.0,0.0,0.0,0.0,0.0,0.0,0.0,0.0,0.0,0.0,0.0,0.0,0.0,0.0,0.0,0.0,0.0,0.0,0.0,0.0,0.0,0.0,0.0,0.0,0.0,0.0,0.0,0.0,0.0,0.0,0.0,0.0,1.9884,2.0009,2.0042,2.0172,2.0784,0.0,0.0,2.1928,2.2634,2.3177,2.3177,2.3647,2.4098,2.4098,0.0,0.0,2.4098,2.4098,2.4098,2.4098,2.4098,0.0,0.0,0.0,0.0,0.0,0.0,0.0,0.0,0.0,0.0,0.0,0.0,0.0,0.0,0.0,0.0,2.9051,2.9336,2.9509,2.9509,2.9803,2.9958,2.9958,3.0281,3.0462,3.0462,3.0233,3.0264,3.0552,3.0279,3.031,3.0598,3.0582,0.0,0.0,3.0582,3.0568,3.0598,3.0598,3.0598,3.0598,3.0598,3.0598,3.0598,0.0,0.0,0.0,0.0,0.0,0.0,0.8102,0.9021,0.9789,1.0066,1.0721,1.1294,1.1638,1.1825,1.2027,1.2274,0.0,0.0,0.0,0.0,0.0,0.0,0.0,0.0,0.0,0.0,0.0,0.0,0.0,0.0,0.0,0.0,0.0,0.0,0.0,0.0,0.0,0.0,0.0,0.0,0.0,0.0,0.0,0.0,0.0,0.0,0.0,0.0,0.0,0.0,0.0,0.0,2.0058,2.0372,0.0,0.0,2.106,2.1756,2.2036,2.2877,2.3704,2.3704,2.3894,2.4098,2.4098,0.0,0.0,2.4098,2.4098,2.4098,2.4098,2.4098,2.4127,0.0,0.0,0.0,0.0,0.0,0.0,0.0,0.0,0.0,0.0,0.0,0.0,0.0,0.0,0.0,2.968,2.9634,2.9587,2.9587,2.9741,2.9803,2.9803,3.0127,3.0295,3.0295,3.0745,3.101,3.1163,3.1429,3.1618,3.1743,3.1743,0.0,0.0,3.1743,3.1743,3.1743,3.1743,3.1743,3.1743,3.1743,3.1743,3.1743,0.0,0.0,0.0,0.0,0.0,0.8571,0.8764,0.9757,1.05,1.05,1.1138,1.1591,1.1591,1.1685,1.1848,1.2135,1.2243,0.0,0.0,0.0,0.0,0.0,0.0,0.0,0.0,0.0,0.0,0.0,0.0,0.0,0.0,0.0,0.0,0.0,0.0,0.0,0.0,0.0,0.0,0.0,0.0,0.0,0.0,0.0,0.0,0.0,0.0,0.0,0.0,0.0,0.0,0.0,0.0,0.0,0.0,0.0,2.1219,2.1896,2.2286,2.2935,2.3556,2.3749,2.3953,2.4098,0.0,0.0,2.4098,2.4098,2.4098,2.4098,2.4098,2.4128,2.4188,0.0,0.0,0.0,0.0,0.0,0.0,0.0,0.0,0.0,0.0,0.0,0.0,0.0,0.0,0.0,3.049,3.0476,3.028,2.9911,3.0067,3.0167,3.0167,3.0584,3.0808,3.0823,3.1488,3.18,3.1815,3.2293,3.2497,3.2497,3.2497,0.0,0.0,3.2497,3.2497,3.2497,3.2497,3.2497,3.2497,3.2497,3.2497,3.2497,0.0,0.0,0.0,0.0,0.0,0.0,0.939,1.0066,1.05,1.05,1.1138,1.1591,1.1591,1.1591,1.1654,1.1786,1.2104,0.0,0.0,0.0,0.0,0.0,0.0,0.0,0.0,0.0,0.0,0.0,0.0,0.0,0.0,0.0,0.0,0.0,0.0,0.0,0.0,0.0,0.0,0.0,0.0,0.0,0.0,0.0,0.0,0.0,0.0,0.0,0.0,0.0,0.0,0.0,0.0,0.0,0.0,0.0,2.1616,2.1408,2.2741,2.2619,2.2271,2.2937,2.3617,2.4098,0.0,0.0,2.4098,2.4098,2.4098,2.4098,2.4098,2.4203,2.4307,2.4307,0.0,0.0,0.0,0.0,0.0,0.0,0.0,0.0,0.0,0.0,0.0,0.0,0.0,0.0,3.148,3.2104,3.1887,3.0626,3.1162,3.148,3.148,3.2133,3.2482,3.2482,3.2482,3.2497,3.2497,3.2497,3.2497,3.2497,0.0,0.0,0.0,3.2497,3.2497,3.2497,3.2497,3.2497,3.2497,3.2497,3.2497,3.2497,0.0,0.0,0.0,0.0,0.0,0.0,0.0,1.0785,1.1247,1.1247,1.1466,1.1591,1.1591,1.1591,1.1622,1.1654,1.184,0.0,0.0,0.0,0.0,0.0,0.0,0.0,0.0,0.0,0.0,1.259,1.3003,0.0,0.0,0.0,0.0,0.0,0.0,0.0,0.0,0.0,0.0,0.0,0.0,0.0,0.0,0.0,0.0,0.0,0.0,0.0,0.0,0.0,0.0,0.0,0.0,0.0,0.0,2.199,0.0,0.0,2.2849,2.328,2.3514,2.3734,2.3938,2.4098,2.4098,0.0,2.4098,2.4098,2.4098,2.4098,2.4098,2.4128,2.4245,2.4463,2.4592,0.0,0.0,0.0,0.0,0.0,0.0,0.0,0.0,0.0,0.0,0.0,0.0,0.0,3.2817,3.3066,3.279,3.1932,3.2076,3.2395,3.2862,3.2613,3.273,3.3182,3.3182,3.3182,3.3196,3.3616,3.3802,0.0,0.0,0.0,3.3802,3.3802,3.3802,3.3802,3.3802,3.3802,3.3802,3.3802,3.3802,3.3802,0.0,0.0,0.0,0.0,0.0,0.0,0.0,1.1294,1.1591,1.1591,1.1591,1.1591,1.1591,1.1591,1.1591,1.1591,1.1685,0.0,0.0,0.0,0.0,0.0,0.0,0.0,0.0,0.0,1.2713,1.2935,1.3488,1.4016,1.4502,0.0,0.0,0.0,0.0,0.0,0.0,0.0,0.0,0.0,0.0,0.0,1.9225,0.0,0.0,0.0,0.0,0.0,0.0,0.0,0.0,0.0,0.0,0.0,0.0,0.0,2.247,2.2619,0.0,2.3603,2.3778,2.4039,2.4098,0.0,0.0,0.0,2.4098,2.4098,2.4098,2.4098,2.4098,2.42,2.4361,2.4577,2.4879,0.0,0.0,0.0,0.0,0.0,0.0,0.0,0.0,0.0,0.0,0.0,0.0,0.0,3.3804,3.43,3.4356,3.3947,3.3717,3.3792,3.4215,3.3806,3.3806,3.4215,3.3952,3.3835,3.385,3.424,3.4397,0.0,0.0,3.4397,0.0,3.4397,3.4397,3.4397,3.4397,3.4397,3.4397,3.4397,3.4397,3.4397,0.0,0.0,0.0,0.0,0.0,0.0,0.0,1.1591,1.1591,1.1591,1.1591,1.1591,1.1591,1.1591,1.1591,1.1591,0.0,0.0,0.0,0.0,0.0,0.0,0.0,0.0,0.0,1.2636,1.2943,1.3554,1.4075,1.496,1.6159,1.6678,1.7441,0.0,0.0,0.0,0.0,0.0,0.0,0.0,1.9108,1.9108,0.0,0.0,0.0,0.0,0.0,0.0,0.0,0.0,0.0,0.0,0.0,0.0,0.0,0.0,0.0,0.0,0.0,2.3647,2.331,2.3938,2.4098,2.4098,0.0,0.0,0.0,0.0,2.4098,2.4098,2.4112,2.4375,2.4591,2.462,2.5334,0.0,0.0,0.0,0.0,0.0,0.0,0.0,0.0,0.0,0.0,0.0,0.0,0.0,3.46,3.5717,3.6402,3.6428,3.5883,3.5581,3.5537,3.545,3.5421,3.5465,3.4733,3.4397,3.4397,3.4397,3.4397,0.0,0.0,3.4397,3.4397,3.4397,3.4397,3.4397,3.4397,3.4397,3.4397,3.4397,3.4397,3.4397,0.0,0.0,0.0,0.0,0.0,0.0,0.0,0.0,0.0,0.0,1.1591,1.1591,1.1591,1.1591,1.1591,0.0,0.0,0.0,0.0,0.0,0.0,0.0,0.0,0.0,0.0,1.2866,1.3427,1.4032,1.5112,1.6,1.6666,1.7583,1.8166,1.8424,1.8787,0.0,0.0,0.0,0.0,0.0,1.9108,1.9108,0.0,0.0,0.0,0.0,1.9108,1.9225,0.0,0.0,0.0,0.0,0.0,0.0,0.0,0.0,2.3456,2.3894,2.4054,0.0,2.3894,2.4054,2.4098,2.4098,0.0,0.0,0.0,0.0,0.0,2.4128,2.4233,2.432,2.445,2.4707,2.5304,2.5986,0.0,0.0,0.0,0.0,0.0,0.0,0.0,0.0,0.0,0.0,0.0,3.5593,3.6577,3.691,3.7288,3.7738,3.7607,3.7317,3.6852,3.5901,3.5622,3.6069,3.4934,3.4397,3.4397,3.4397,3.4397,0.0,3.4397,3.4397,3.4397,3.4397,3.4397,3.4397,3.4397,3.4397,3.4397,3.4397,3.4397,3.4397,0.0,0.0,0.0,0.0,0.0,0.0,0.0,0.0,0.0,0.0,0.0,0.0,0.0,0.0,0.0,0.0,0.0,0.0,0.0,0.0,0.0,0.0,0.0,0.0,0.0,1.3682,1.4475,1.5381,1.6302,1.7014,1.7555,1.8356,1.8725,1.8719,1.8994,0.0,0.0,0.0,0.0,0.0,1.9108,0.0,0.0,0.0,0.0,0.0,1.9108,1.9241,0.0,1.984,2.0172,2.0624,0.0,0.0,0.0,0.0,2.3808,2.4098,2.4098,2.4098,2.4098,2.4098,2.4098,2.4098,2.4098,0.0,0.0,0.0,0.0,0.0,2.4292,0.0,0.0,2.5141,2.5781,0.0,0.0,0.0,0.0,0.0,0.0,0.0,0.0,0.0,0.0,0.0,0.0,3.6562,3.7255,3.7564,3.7868,3.8188,3.8202,3.8043,3.7723,3.6464,3.5967,3.6268,3.5024,3.4397,3.4397,3.4397,3.4397,0.0,3.4397,3.4397,3.4397,3.4397,3.4397,3.4397,3.4397,3.4397,3.4397,3.4397,3.4397,3.4397,0.0,0.0,0.0,0.0,0.0,0.0,0.0,0.0,0.0,0.0,0.0,0.0,0.0,0.0,0.0,0.0,0.0,0.0,0.0,0.0,0.0,0.0,0.0,1.3234,1.4041,1.4758,1.5688,1.6854,1.7372,1.7938,1.8528,1.8905,1.9108,1.9108,1.9108,0.0,0.0,0.0,0.0,0.0,1.9108,0.0,0.0,0.0,0.0,0.0,0.0,0.0,0.0,2.0204,2.0677,2.125,2.2509,0.0,0.0,0.0,0.0,0.0,2.4098,2.4098,2.4098,2.4098,2.4098,2.4098,0.0,0.0,0.0,0.0,0.0,0.0,0.0,0.0,0.0,0.0,0.0,0.0,0.0,0.0,0.0,0.0,0.0,0.0,0.0,0.0,0.0,0.0,0.0,3.7327,3.7433,3.7926,3.8202,3.8202,3.8202,3.8202,3.8202,3.6939,3.6301,3.6268,3.5024,3.4397,3.4397,3.4397,3.4397,3.4397,0.0,0.0,3.4559,3.4559,3.4617,3.4687,3.4687,3.4687,3.4687,3.4687,3.4687,3.4687,0.0,0.0,0.0,0.0,0.0,0.0,0.0,0.0,0.0,0.0,0.0,0.0,0.0,0.0,0.0,0.0,0.0,0.0,0.0,0.0,0.0,0.0,1.3084,1.3668,1.4805,1.5656,1.6431,1.7138,1.789,1.8513,1.8994,1.9077,1.9108,1.9108,1.9108,1.9108,0.0,0.0,0.0,1.9108,1.9108,0.0,0.0,0.0,0.0,0.0,0.0,0.0,0.0,2.0123,2.0521,2.0942,2.2436,0.0,0.0,0.0,0.0,0.0,2.4098,2.4098,2.4098,2.4098,2.4098,2.4098,0.0,0.0,0.0,0.0,0.0,0.0,0.0,0.0,0.0,0.0,0.0,0.0,0.0,0.0,0.0,0.0,0.0,0.0,0.0,0.0,0.0,0.0,0.0,3.7535,3.8028,3.8159,3.8202,3.8202,3.8202,3.8202,3.8202,3.6939,3.6301,3.6268,3.5024,3.4397,3.4397,3.4397,3.4397,3.4397,0.0,3.4719,3.5261,3.5261,3.5549,3.6025,3.6025,3.6025,3.6025,3.6025,3.6025,3.6025,0.0,0.0,0.0,0.0,0.0,0.0,0.0,0.0,0.0,0.0,0.0,0.0,0.0,0.0,0.0,0.0,0.0,0.0,0.0,0.0,0.0,0.0,1.3699,1.4388,1.5893,1.6741,1.7457,1.8052,1.8541,1.8901,1.9108,1.9108,1.9108,1.9108,1.9108,1.9108,1.9108,1.9108,1.9108,1.9108,0.0,0.0,0.0,0.0,0.0,0.0,0.0,0.0,0.0,0.0,2.1333,2.2024,2.311,0.0,0.0,0.0,0.0,0.0,2.4098,2.4098,2.4098,2.4098,2.4098,0.0,0.0,0.0,0.0,0.0,0.0,0.0,0.0,0.0,0.0,0.0,0.0,0.0,0.0,0.0,0.0,0.0,0.0,0.0,0.0,0.0,0.0,0.0,0.0,0.0,3.8188,3.8202,3.8202,3.8202,3.8202,3.8202,3.8202,3.7302,3.6664,3.6301,3.5372,3.4939,3.4939,3.4939,3.5111,3.5427,0.0,3.5604,3.5897,3.5897,3.604,3.6301,3.6301,3.6301,3.6301,3.6301,3.6301,3.6301,0.0,0.0,0.0,0.0,0.0,0.0,0.0,0.0,0.0,0.0,0.0,0.0,0.0,0.0,0.0,0.0,0.0,0.0,0.0,0.0,1.3237,1.4061,1.4511,1.5369,1.6725,1.7431,1.8095,1.8724,1.8975,1.9108,1.9108,1.9108,1.9108,1.9108,1.9108,1.9108,1.9108,1.9108,1.9108,1.9108,0.0,0.0,0.0,0.0,0.0,0.0,0.0,0.0,0.0,0.0,0.0,0.0,0.0,0.0,0.0,2.4098,2.4098,2.4098,2.4098,2.4098,2.4098,2.4098,0.0,0.0,0.0,0.0,0.0,0.0,0.0,0.0,0.0,0.0,0.0,0.0,0.0,0.0,0.0,0.0,0.0,0.0,0.0,0.0,0.0,0.0,0.0,0.0,0.0,0.0,3.8202,3.8202,3.8202,3.8202,3.8202,3.8202,3.8202,3.7738,3.7186,3.6533,3.5912,3.5625,3.5625,3.5625,3.5868,3.6301,3.6301,3.6402,3.6515,3.6515,3.662,3.6733,3.6733,3.6733,3.6733,3.6733,3.6733,3.6733,0.0,0.0,0.0,0.0,0.0,0.0,0.0,0.0,0.0,0.0,0.0,0.0,0.0,0.0,0.0,0.0,0.0,0.0,0.0,0.0,1.4019,1.4094,1.5765,1.6757,1.6878,1.7246,1.7787,1.8516,1.8908,1.9108,1.9108,1.9108,1.9108,1.9108,1.9108,1.9108,1.9108,1.9108,1.9108,1.9108,1.9108,0.0,0.0,0.0,0.0,0.0,0.0,0.0,0.0,0.0,0.0,0.0,0.0,0.0,2.4098,2.4098,2.4098,2.4098,2.4098,2.4098,2.4098,2.4098,0.0,0.0,0.0,0.0,0.0,0.0,0.0,0.0,0.0,0.0,0.0,0.0,0.0,0.0,0.0,0.0,0.0,0.0,0.0,0.0,0.0,0.0,0.0,0.0,0.0,0.0,3.8202,3.8202,3.8202,3.8202,3.8202,3.8202,3.8202,3.8159,3.7839,3.723,3.6562,3.6243,3.6243,3.6243,3.6272,3.6301,3.6301,3.6646,3.7244,3.7244,3.7564,3.8072,3.8072,3.8072,3.8072,3.8072,3.8072,3.8072,0.0,0.0,0.0,0.0,0.0,0.0,0.0,0.0,0.0,0.0,0.0,0.0,0.0,0.0,0.0,0.0,0.0,0.0,0.0,0.0,1.3724,1.3724,1.4536,1.5188,1.5657,1.7242,1.8276,1.8701,1.8958,1.9108,1.9108,1.9108,1.9108,1.9108,1.9108,1.9108,1.9108,1.9108,1.9108,1.9108,1.9108,1.9108,0.0,0.0,0.0,0.0,0.0,0.0,0.0,0.0,2.254,2.314,2.3819,2.4067,2.4098,2.4098,2.4098,2.4098,2.4098,2.4098,2.4098,2.4098,0.0,0.0,0.0,0.0,0.0,0.0,0.0,0.0,0.0,0.0,0.0,0.0,0.0,0.0,0.0,0.0,0.0,0.0,0.0,3.5222,3.5891,3.6765,0.0,0.0,0.0,0.0,3.8202,3.8202,3.8202,3.8202,3.8202,3.8202,3.8202,3.8575,3.8657,3.8406,3.7394,3.6925,3.6925,3.6925,3.7128,3.7491,3.7491,3.7636,3.7868,3.7868,3.7999,3.8202,3.8202,3.8202,3.8202,3.8202,3.8202,3.8202,0.0,0.0,0.0,0.0,0.0,0.0,0.0,0.0,0.0,0.0,0.0,0.0,0.0,0.0,0.0,0.0,0.0,0.0,0.0,1.3367,1.3492,1.3492,1.4083,1.4705,1.5321,1.7423,1.8472,1.8445,1.8891,1.9108,1.9108,1.9108,1.9108,1.9108,1.9108,1.9108,1.9108,1.9108,1.9108,1.9108,1.9108,1.9108,0.0,0.0,0.0,0.0,0.0,0.0,0.0,0.0,2.2781,2.3363,2.3922,2.4098,2.4098,2.4098,2.4098,2.4098,2.4098,2.4098,2.4098,0.0,0.0,0.0,0.0,0.0,0.0,0.0,0.0,0.0,0.0,0.0,0.0,0.0,0.0,0.0,0.0,0.0,3.3269,3.3712,3.4802,3.5817,3.6544,3.7201,3.7767,3.8173,3.8371,3.8482,3.8482,3.8638,3.8671,3.8482,3.8482,3.8389,3.8202,3.8612,3.883,3.8797,3.7966,3.7685,3.7868,3.7666,3.781,3.8202,3.8202,3.8202,3.8202,3.8202,3.8202,3.8202,3.8202,3.8202,3.8202,3.8202,3.8202,3.8202,0.0,0.0,0.0,0.0,0.0,0.0,0.0,0.0,0.0,0.0,0.0,0.0,0.0,0.0,0.0,0.0,0.0,0.0,0.0,1.3492,1.3492,1.3492,1.4903,1.5886,1.6289,1.774,1.8236,1.7706,1.8647,1.9108,1.9108,1.9108,0.0,0.0,1.9108,1.9108,1.9108,1.9108,1.9108,1.9108,1.9108,1.9108,1.9108,0.0,0.0,0.0,0.0,0.0,0.0,0.0,2.1924,2.2184,2.3643,2.4098,2.4098,2.4098,2.4098,2.4098,2.4098,2.4098,0.0,0.0,0.0,0.0,0.0,0.0,0.0,0.0,0.0,0.0,0.0,0.0,0.0,0.0,0.0,0.0,0.0,3.2704,3.3228,3.4626,3.5389,3.6226,3.7208,3.7854,3.8202,3.8202,3.8741,3.9086,3.9086,3.96,3.9639,3.9104,3.9086,3.8797,3.8202,3.8202,3.8202,3.8202,3.8202,3.8519,3.9068,3.8464,3.8202,3.8202,3.8202,3.8202,3.8202,3.8202,3.8202,3.8202,3.8202,3.8202,3.8202,3.8202,3.8202,3.8202,0.0,0.0,0.0,0.0,0.0,0.0,0.0,0.0,0.0,0.0,0.0,0.0,0.0,0.0,0.0,0.0,0.0,0.0,0.0,1.3492,1.3492,1.3492,1.4545,1.5259,1.5525,1.7242,1.8317,1.868,1.8965,1.9108,1.9108,0.0,0.0,1.9108,0.0,0.0,1.9108,1.9108,1.9108,1.9108,1.9108,1.9108,1.9108,0.0,0.0,0.0,0.0,0.0,0.0,0.0,0.0,0.0,2.3966,2.4098,2.4098,2.4098,2.4098,2.4098,2.4098,2.4098,0.0,0.0,0.0,0.0,0.0,0.0,0.0,0.0,0.0,0.0,0.0,0.0,0.0,0.0,0.0,0.0,3.2658,3.3546,3.4324,3.4754,3.6025,3.6957,3.7269,3.7854,3.8202,3.8202,3.8371,3.8464,3.8464,3.8616,3.8634,3.8464,3.8464,3.8371,3.8202,3.8612,3.8815,3.8815,3.8815,3.8705,3.8464,3.8277,3.8202,3.8202,3.8202,3.8202,3.8202,3.8202,3.8202,3.8202,3.8202,3.8202,3.8202,3.8202,3.8202,3.8202,0.0,0.0,0.0,0.0,0.0,0.0,0.0,0.0,0.0,0.0,1.2597,1.2888,0.0,0.0,0.0,0.0,0.0,0.0,1.3492,1.3492,1.3637,1.3931,1.476,1.5622,1.649,1.7782,1.8654,1.9108,1.9108,1.9108,1.9108,0.0,1.9108,1.9108,0.0,1.9108,1.9108,1.9108,1.9108,1.9108,1.9108,1.9108,1.9108,0.0,0.0,0.0,0.0,0.0,0.0,0.0,0.0,0.0,2.4024,0.0,2.4098,2.4098,2.4098,2.4098,2.4098,0.0,0.0,0.0,0.0,0.0,0.0,0.0,0.0,0.0,0.0,0.0,0.0,0.0,0.0,0.0,0.0,0.0,3.2917,3.4016,3.4956,3.5356,3.6519,3.7404,3.7636,3.7984,3.8202,3.8202,3.8427,3.8557,3.8557,3.8749,3.8767,3.8557,3.8557,3.8445,3.8202,3.8557,3.8741,3.8741,3.8741,3.8557,3.8202,3.8202,3.8202,3.8202,3.8202,3.8202,3.8202,3.8202,3.8202,3.8202,3.8202,3.8202,3.8202,3.8202,3.8202,3.8202,0.0,0.0,1.1486,1.1486,0.0,0.0,0.0,0.0,0.0,0.0,1.29,1.3046,0.0,0.0,0.0,1.3492,1.3492,1.3492,1.3492,1.3564,1.3894,1.4573,1.5402,1.6689,1.8499,1.8908,1.9108,1.9108,1.9108,1.9108,0.0,0.0,1.9108,1.9108,0.0,1.9108,1.9108,1.9108,1.9108,1.9108,1.9108,1.9108,1.9108,1.9098,0.0,0.0,0.0,0.0,0.0,0.0,0.0,0.0,2.3894,2.4098,2.4098,2.4098,2.4098,2.4098,0.0,0.0,0.0,0.0,0.0,0.0,0.0,0.0,0.0,0.0,0.0,0.0,0.0,0.0,0.0,0.0,0.0,0.0,3.3371,3.4295,3.5292,3.628,3.6983,3.7607,3.8144,3.8202,3.8202,3.8202,3.8719,3.9031,3.9031,3.9475,3.9529,3.9017,3.9031,3.8741,3.8202,3.8202,3.8202,3.8202,3.8202,3.8202,3.8202,3.8202,3.8202,3.8202,3.8202,3.8202,3.8202,3.8202,3.8202,3.8202,3.8202,3.8202,3.8202,3.8202,3.8202,3.8202,0.0,0.0,1.2111,1.2111,0.0,0.0,0.0,0.0,0.0,0.0,0.0,0.0,0.0,0.0,0.0,1.3492,1.3492,1.3492,1.3492,1.4049,1.443,1.4583,1.6166,1.7567,1.8707,1.8965,1.9108,1.9108,1.9108,0.0,0.0,0.0,0.0,1.9108,0.0,1.9108,1.9108,1.9108,1.9108,1.9108,1.9108,1.9108,1.9098,1.9225,1.9274,0.0,0.0,0.0,0.0,0.0,0.0,0.0,2.3894,2.4098,2.4098,2.4098,2.4098,2.4098,0.0,0.0,0.0,0.0,0.0,0.0,0.0,0.0,0.0,0.0,0.0,0.0,0.0,0.0,0.0,0.0,3.2917,3.3473,3.4356,3.5339,3.6255,3.6994,3.7636,3.8057,3.8188,3.8202,3.8202,3.8202,3.8315,3.8389,3.8389,3.8505,3.8505,3.8389,3.8389,3.8333,3.8202,3.8202,3.8202,3.8202,3.8202,3.8202,3.8202,3.8202,3.8202,3.8202,3.8202,3.8202,3.8202,3.8202,3.8202,3.8202,3.8202,3.8202,3.8202,3.8202,3.8202,3.8202,0.0,0.0,0.0,0.0,0.0,0.0,0.0,0.0,0.0,0.0,0.0,0.0,0.0,1.3437,0.0,0.0,1.3492,1.3492,1.3492,1.3858,1.4384,1.5108,1.6489,1.7696,1.865,1.8858,1.8998,1.9108,0.0,0.0,0.0,0.0,0.0,1.9108,0.0,1.9108,1.9108,1.9108,1.9108,1.9108,1.9108,1.9108,1.9098,1.9252,0.0,0.0,0.0,0.0,0.0,0.0,0.0,0.0,0.0,0.0,2.4098,2.4098,2.4098,2.4112,0.0,0.0,0.0,0.0,0.0,0.0,0.0,0.0,0.0,0.0,0.0,0.0,0.0,0.0,0.0,3.2613,3.3438,3.4203,3.4725,3.5938,3.6925,3.7259,3.7839,3.8202,3.8202,3.8202,3.8202,3.8202,3.8202,3.8202,3.8202,3.8202,3.8202,3.8202,3.8202,3.8202,3.8202,3.8202,3.8202,3.8202,3.8202,3.8202,3.8202,3.8202,3.8202,3.8202,3.8202,3.8202,3.8202,3.8202,3.8202,3.8202,3.8202,3.8202,3.8202,3.8202,3.8202,3.8202,0.0,0.0,0.0,0.0,0.0,0.0,0.0,0.0,0.0,0.0,0.0,0.0,0.0,1.3481,1.3492,0.0,0.0,0.0,1.3492,1.3739,1.4499,1.5886,1.6811,1.7706,1.8522,1.8707,1.8949,0.0,0.0,0.0,0.0,0.0,0.0,1.9108,0.0,1.9108,1.9108,1.9108,1.9108,1.9108,1.9108,1.9098,1.9158,0.0,0.0,0.0,0.0,2.1725,2.2036,2.2698,0.0,0.0,0.0,0.0,2.4098,2.4098,2.4112,2.4157,0.0,0.0,0.0,0.0,0.0,0.0,0.0,0.0,0.0,0.0,0.0,0.0,0.0,0.0,3.265,3.2775,3.3878,3.4775,3.5031,3.6335,3.7346,3.7429,3.7897,3.8202,3.8202,3.8202,3.8202,3.8202,3.8202,3.8202,3.8202,3.8202,3.8202,3.8202,3.8202,3.8202,3.8202,3.8202,3.8202,3.8202,3.8202,3.8202,3.8202,3.8202,3.8202,3.8202,3.8202,3.8202,3.8202,3.8202,3.8202,3.8202,3.8202,3.8202,3.8202,3.8202,3.8202,3.8202,0.0,0.0,0.0,0.0,0.0,0.0,0.0,0.0,0.0,0.0,1.279,1.2991,1.3211,1.3401,1.3492,1.3492,1.3492,1.3492,1.3492,0.0,0.0,1.6862,1.7706,1.8337,1.8741,1.8791,1.9103,0.0,0.0,0.0,0.0,0.0,0.0,1.9108,0.0,0.0,1.9108,1.9108,1.9108,1.9108,1.9108,1.9175,0.0,0.0,0.0,0.0,0.0,0.0,0.0,2.2009,2.268,0.0,0.0,0.0,2.4098,2.4098,2.4187,2.4278,0.0,0.0,0.0,0.0,0.0,0.0,0.0,0.0,0.0,0.0,0.0,0.0,0.0,0.0,3.248,3.3111,3.3825,3.4704,3.5938,3.6787,3.7491,3.8028,3.8159,3.8202,3.8202,3.8202,3.8202,3.8202,3.8202,3.8202,3.8202,3.8202,3.8202,3.8202,3.8202,3.8202,3.8202,3.8202,3.8202,3.8202,3.8202,3.8202,3.8202,3.8202,3.8202,3.8202,3.8202,3.8202,3.8202,3.8202,3.8202,3.8202,3.8202,3.8202,3.8202,3.8202,3.8202,3.8202,0.0,0.0,0.0,0.0,0.0,0.0,0.0,0.0,0.0,0.0,0.0,1.3028,1.3328,1.3455,1.3492,1.3492,1.3492,1.3492,1.3492,1.4111,1.5028,1.6254,1.7003,1.7913,1.9007,1.9389,0.0,0.0,0.0,0.0,0.0,1.9682,1.9357,0.0,0.0,0.0,0.0,0.0,0.0,1.9108,1.9175,0.0,0.0,0.0,0.0,0.0,0.0,0.0,0.0,0.0,2.2224,2.3088,2.2995,0.0,0.0,0.0,0.0,0.0,0.0,0.0,0.0,0.0,0.0,0.0,0.0,0.0,0.0,0.0,0.0,0.0,3.2182,3.2534,3.2913,3.3252,3.4178,3.5094,3.57,3.6344,3.6838,3.7114,3.7143,3.7143,3.7143,3.7476,3.7709,3.7709,3.8014,3.8202,3.8202,3.8202,3.8202,3.8202,3.8202,3.8202,3.8202,3.8202,3.8202,3.8202,3.8202,3.8202,3.8202,3.8202,3.8202,3.8202,3.8202,3.8202,3.8202,3.8202,3.8202,3.8202,3.8202,3.8202,3.8202,3.8202,3.8202,3.8202,0.0,0.0,0.0,0.0,0.0,0.0,0.0,0.0,0.0,0.0,0.0,1.3101,1.3455,0.0,0.0,0.0,1.3492,1.3492,1.3492,1.3766,1.4398,1.5499,1.6342,1.7488,1.9021,1.9599,0.0,0.0,0.0,0.0,2.0568,2.0159,1.9703,0.0,1.915,0.0,0.0,0.0,0.0,0.0,0.0,0.0,0.0,0.0,0.0,0.0,0.0,0.0,0.0,0.0,0.0,0.0,0.0,0.0,0.0,0.0,0.0,0.0,0.0,0.0,0.0,0.0,0.0,0.0,0.0,0.0,0.0,0.0,0.0,3.2471,3.2471,3.2931,3.3322,3.3409,3.4455,3.5288,3.5392,3.5927,3.6301,3.6301,3.6301,3.6373,3.6548,3.7012,3.7357,3.752,3.7955,3.8202,3.8202,3.8202,3.8202,3.8202,3.8202,3.8202,3.8202,3.8202,3.8202,3.8202,3.8202,3.8202,3.8202,3.8202,3.8202,3.8202,3.8202,3.8202,3.8202,3.8202,3.8202,3.8202,3.8202,3.8202,3.8202,3.8202,3.8202,3.8202,0.0,0.0,0.0,0.0,0.0,0.0,0.0,0.0,0.0,0.0,0.0,1.3255,1.3481,1.3492,1.3492,1.3492,1.3492,1.3492,1.3492,1.4458,1.5046,1.512,1.6319,0.0,0.0,0.0,0.0,0.0,0.0,0.0,2.1054,2.0589,2.0151,1.9741,1.9295,1.9108,1.9108,0.0,0.0,0.0,0.0,1.9533,0.0,0.0,0.0,0.0,0.0,0.0,0.0,0.0,0.0,0.0,0.0,0.0,0.0,0.0,0.0,0.0,0.0,0.0,0.0,0.0,0.0,0.0,0.0,0.0,0.0,0.0,0.0,3.2132,3.307,3.3269,3.3392,3.3719,3.4368,3.4958,3.534,3.5927,3.6301,3.6301,3.6301,3.6562,3.7201,3.7288,3.7549,3.8115,3.8188,3.8202,3.8202,3.8202,3.8202,3.8202,3.8202,3.8202,3.8202,3.8202,3.8202,3.8202,3.8202,3.8202,3.8202,3.8202,3.8202,3.8202,3.8202,3.8202,3.8202,3.8202,3.8202,3.8202,3.8202,3.8202,3.8202,3.8202,3.8202,3.8202,0.0,0.0,0.0,0.0,0.0,0.0,0.0,0.0,0.0,0.0,0.0,0.0,0.0,1.3492,1.3492,1.3492,1.3708,1.3913,1.4125,1.4503,1.492,1.5391,1.6898,0.0,0.0,0.0,0.0,0.0,0.0,2.1375,2.1549,2.1064,2.0765,2.0596,1.9869,1.9378,1.9108,1.9191,0.0,0.0,1.9572,1.9769,0.0,0.0,0.0,0.0,0.0,0.0,0.0,0.0,0.0,0.0,0.0,0.0,0.0,0.0,0.0,0.0,0.0,0.0,0.0,0.0,0.0,0.0,0.0,0.0,0.0,0.0,3.1443,3.2401,3.3157,3.3479,3.3667,3.3788,3.4229,3.4594,3.4731,3.4951,3.5079,3.5079,3.5462,3.581,3.6057,3.6823,3.7404,3.7607,3.7984,3.8202,3.8202,3.8202,3.8202,3.8202,3.8202,3.8202,3.8202,3.8202,3.8202,3.8202,3.8202,3.8202,3.8202,3.8202,3.8202,3.8202,3.8202,3.8202,3.8202,3.8202,3.8202,3.8202,3.8202,3.8202,3.8202,3.8202,3.8202,3.8202,0.0,0.0,0.0,0.0,0.0,1.3101,0.0,0.0,0.0,0.0,0.0,0.0,0.0,0.0,1.3492,1.3492,1.3697,1.3979,1.4301,1.4683,1.5207,1.5871,1.7417,0.0,0.0,0.0,0.0,0.0,0.0,0.0,0.0,0.0,2.1251,2.1064,2.0327,1.9744,0.0,0.0,0.0,1.9423,0.0,1.9927,1.9976,0.0,0.0,0.0,0.0,0.0,0.0,0.0,0.0,0.0,0.0,0.0,0.0,0.0,0.0,0.0,0.0,0.0,0.0,0.0,0.0,0.0,0.0,0.0,0.0,3.0246,3.1324,3.2362,3.3223,3.3714,3.4008,3.4008,3.423,3.4397,3.4397,3.4397,3.4397,3.4397,3.4777,3.5229,3.5651,3.646,3.7124,3.7578,3.797,0.0,3.8202,3.8202,3.8202,3.8202,3.8202,3.8202,3.8202,3.8202,3.8202,3.8202,3.8202,3.8202,3.8202,3.8202,3.8202,3.8202,3.8202,3.8202,3.8202,3.8202,3.8202,3.8202,3.8202,3.8202,3.8202,3.8202,3.8202,3.8202,0.0,1.3065,1.3218,1.3218,1.3364,1.3492,1.3492,0.0,0.0,0.0,0.0,0.0,0.0,0.0,0.0,1.3506,1.3514,1.3671,1.3993,1.5057,1.5917,1.6466,1.7834,0.0,0.0,0.0,0.0,0.0,0.0,0.0,0.0,0.0,2.1549,0.0,2.0609,2.0182,1.981,0.0,1.9845,1.9621,0.0,1.9976,2.0102,0.0,0.0,0.0,2.0102,2.0102,0.0,2.0102,0.0,0.0,0.0,0.0,0.0,0.0,0.0,0.0,0.0,0.0,0.0,0.0,0.0,0.0,2.7569,0.0,2.8976,3.0219,3.1042,3.1907,3.3225,3.3993,3.4397,3.4397,3.4397,3.4397,3.4397,3.4397,3.4397,3.4397,3.4412,3.4905,3.6138,3.6301,3.6823,3.8057,3.8144,3.8144,3.8144,3.8159,3.8188,3.8202,3.8202,3.8202,3.8202,3.8202,3.8202,3.8202,3.8202,3.8202,3.8202,3.8202,3.8202,3.8202,3.8202,3.8202,3.8202,3.8202,3.8202,3.8202,3.8202,3.8202,3.8202,3.8202,3.8202,3.8202,1.3328,1.3382,1.3419,1.3419,1.3455,1.3492,1.3492,0.0,0.0,0.0,0.0,0.0,0.0,0.0,0.0,1.3847,1.3869,1.4008,1.433,1.4756,1.5296,1.6021,1.7594,1.8835,0.0,0.0,0.0,0.0,0.0,0.0,0.0,0.0,0.0,0.0,2.0609,2.0235,1.9937,1.9788,0.0,0.0,1.9976,2.0069,0.0,0.0,0.0,0.0,0.0,2.0102,2.0102,0.0,2.027,2.0736,0.0,0.0,0.0,0.0,0.0,0.0,2.5005,0.0,0.0,0.0,0.0,0.0,2.7864,2.853,2.9185,2.9972,3.1056,3.2023,3.2612,3.3628,3.4397,3.4397,3.4397,3.4397,3.4397,3.4397,3.4397,3.4397,3.4837,3.5259,3.5607,3.604,3.646,0.0,3.6838,3.6838,3.6838,3.7288,3.7752,3.8188,3.8202,3.8202,3.8202,3.8202,3.8202,3.8202,3.8202,3.8202,3.8202,3.8202,3.8202,3.8202,3.8202,3.8202,3.8202,3.8202,3.8202,3.8202,3.8202,3.8202,3.8202,3.8202,3.8202,3.8202,1.3473,1.3492,1.3492,1.3492,1.3492,1.3492,0.0,0.0,0.0,0.0,0.0,0.0,0.0,0.0,0.0,1.3762,1.3796,1.3972,1.438,1.4828,1.5409,1.6155,1.7472,1.8582,0.0,0.0,0.0,0.0,0.0,0.0,0.0,0.0,0.0,0.0,0.0,0.0,0.0,0.0,0.0,0.0,2.0042,0.0,0.0,2.0102,2.0102,0.0,0.0,0.0,2.0102,2.0102,2.07,0.0,0.0,0.0,0.0,0.0,0.0,0.0,0.0,0.0,0.0,0.0,0.0,0.0,2.7487,2.8289,2.9068,0.0,3.0646,3.1592,3.2314,3.3307,3.4109,3.4353,3.4397,3.4397,3.4397,3.4397,3.4397,3.4397,3.4733,3.5084,3.5378,3.5723,3.6025,3.6286,3.6301,3.6301,3.6301,3.6678,3.7037,3.7404,3.768,3.7825,3.7825,3.8072,3.8202,3.8202,3.8202,3.8202,3.8202,3.8202,3.8202,3.8202,3.8202,3.8202,3.8202,3.8202,3.8202,3.8202,3.8202,3.8202,3.8202,3.8202,3.8202,3.8202,0.0,1.3492,1.3492,1.3492,1.3492,1.3492,0.0,0.0,0.0,0.0,0.0,0.0,0.0,0.0,0.0,0.0,1.3492,1.3715,1.4216,1.4991,1.577,1.6572,1.7407,1.834,1.9333,0.0,0.0,0.0,0.0,0.0,0.0,0.0,0.0,0.0,1.99,1.9909,0.0,0.0,0.0,1.9933,2.0042,2.0085,0.0,0.0,2.0102,2.0102,2.0102,2.0102,2.0118,2.0151,2.1203,0.0,0.0,0.0,0.0,0.0,2.4963,0.0,0.0,0.0,0.0,0.0,0.0,0.0,2.6899,2.7841,2.8892,2.9509,3.0161,3.0961,3.212,3.2917,3.3589,3.4196,3.4312,3.431,3.4382,3.4397,3.4397,3.4397,3.4397,3.4632,3.5232,3.529,3.5505,3.6054,3.6098,3.6127,3.6199,3.6199,3.6228,3.6301,3.6881,3.723,3.7302,3.7839,3.813,3.8202,3.8202,3.8202,3.8202,3.8202,3.8202,3.8202,3.8202,3.8202,3.8202,3.8202,3.8202,3.8202,3.8202,3.8202,3.8202,3.8202,3.8202,3.8202,1.3481,1.3492,1.3492,1.3492,1.3492,1.3492,0.0,0.0,0.0,0.0,0.0,0.0,0.0,0.0,0.0,0.0,0.0,1.362,1.3887,1.4219,1.5051,1.6546,1.7233,1.8241,1.9674,2.0022,0.0,0.0,0.0,0.0,0.0,0.0,0.0,0.0,0.0,1.9427,0.0,0.0,0.0,2.0042,1.9966,0.0,2.0102,2.0102,2.0102,2.0102,2.0102,2.0102,2.0151,2.0405,2.1183,2.2156,0.0,0.0,0.0,0.0,0.0,0.0,0.0,0.0,0.0,0.0,0.0,0.0,2.747,2.8536,2.9509,0.0,3.0706,3.1291,3.1295,3.206,3.2919,3.3574,3.3676,3.385,3.4324,3.4397,3.4397,3.4397,3.4397,3.4441,3.4588,3.4603,3.4646,3.476,3.476,3.5009,3.5552,3.5581,3.5796,3.6286,3.6431,3.6747,3.7284,3.7418,3.7723,3.8202,3.8202,3.8202,3.8202,3.8202,3.8202,3.8202,3.8202,3.8202,3.8202,3.8202,3.8202,3.8202,3.8202,3.8202,3.8202,3.8202,3.8202,3.8202,1.3481,1.3492,1.3492,1.3492,0.0,0.0,0.0,0.0,0.0,0.0,0.0,0.0,0.0,0.0,0.0,0.0,0.0,0.0,0.0,0.0,1.4643,1.5569,1.589,1.6785,1.8326,1.8548,1.9126,0.0,0.0,0.0,0.0,0.0,0.0,0.0,0.0,0.0,0.0,0.0,2.0505,2.0844,2.0776,0.0,2.0533,2.0756,2.0855,2.0855,2.0855,2.0855,2.0894,2.128,2.2138,0.0,0.0,2.4517,2.5296,0.0,2.5724,2.5606,0.0,0.0,0.0,2.5899,0.0,0.0,0.0,2.8699,2.9493,3.0004,3.0477,3.0887,3.1189,3.1662,3.2221,3.289,3.2991,3.3108,3.3411,3.3991,3.4397,3.4397,3.4397,3.4397,3.4397,3.4397,3.4397,3.4397,3.4397,3.4559,3.4878,3.491,3.5038,3.5325,3.5677,3.6014,3.6348,3.6983,3.7462,3.7752,3.8057,3.8202,3.8202,3.8202,3.8202,3.8202,3.8202,3.8202,3.8202,3.8202,3.8202,3.8202,3.8202,3.8202,3.8202,3.8202,3.8202,3.8202,1.3473,1.3492,1.3492,1.3492,0.0,0.0,0.0,0.0,0.0,0.0,0.0,0.0,0.0,0.0,0.0,0.0,0.0,0.0,0.0,0.0,0.0,1.4812,1.483,1.5471,1.6862,1.7035,1.7877,0.0,0.0,0.0,0.0,0.0,0.0,0.0,0.0,0.0,0.0,0.0,0.0,2.1621,0.0,2.1533,2.108,2.1457,2.161,2.161,2.161,2.161,2.1662,2.2061,2.304,2.4136,2.4639,2.5537,0.0,0.0,0.0,0.0,0.0,0.0,0.0,0.0,0.0,2.7799,0.0,0.0,0.0,3.0065,3.0203,0.0,0.0,0.0,0.0,0.0,0.0,0.0,0.0,3.3309,0.0,3.4211,3.4324,3.4397,3.4397,3.4397,3.4397,3.4397,3.4397,3.4397,3.4397,3.4397,3.4397,3.4397,3.4925,3.5276,3.5392,3.6551,3.7168,3.7317,3.7912,3.8202,3.8202,3.8202,3.8202,3.8202,3.8202,3.8202,3.8202,3.8202,3.8202,3.8202,3.8202,3.8202,3.8202,3.8202,3.8089,3.7943,1.3492,1.3492,1.3492,1.3492,0.0,0.0,0.0,0.0,0.0,0.0,0.0,0.0,0.0,0.0,0.0,0.0,0.0,0.0,1.4397,0.0,0.0,0.0,1.5657,1.6053,1.688,1.7533,1.7988,1.82,0.0,0.0,0.0,0.0,0.0,0.0,2.0011,0.0,0.0,0.0,2.1731,0.0,2.2499,2.2302,0.0,2.1588,2.161,2.161,2.161,2.161,2.1662,0.0,2.2815,2.3717,0.0,2.4822,2.5103,0.0,0.0,0.0,0.0,0.0,0.0,0.0,2.7255,0.0,0.0,0.0,2.9727,3.0387,0.0,0.0,0.0,0.0,0.0,0.0,0.0,0.0,3.1612,3.225,3.2948,3.353,3.4066,3.4397,3.4397,3.4397,3.4397,3.4397,3.4397,3.4397,3.4397,3.4397,3.4397,3.4397,3.447,3.4791,3.5392,3.6069,3.6722,3.7317,3.7912,3.8202,3.8202,3.8202,3.8202,3.8202,3.8202,3.8202,3.8202,3.8202,3.8202,3.8202,3.8202,3.8202,3.8202,3.8202,3.7701,3.7053,1.3492,1.3492,1.3492,1.3492,0.0,0.0,0.0,0.0,0.0,0.0,0.0,0.0,0.0,0.0,0.0,0.0,0.0,1.4934,0.0,0.0,0.0,0.0,1.556,0.0,1.7167,1.7294,1.7782,1.8637,1.9215,0.0,0.0,0.0,0.0,0.0,2.0617,0.0,2.1893,0.0,2.2273,0.0,0.0,0.0,0.0,2.2411,2.2411,2.2411,2.2411,2.2556,2.2826,0.0,2.4171,0.0,0.0,0.0,0.0,0.0,0.0,0.0,0.0,0.0,0.0,0.0,0.0,0.0,2.907,0.0,2.9789,0.0,0.0,0.0,0.0,0.0,0.0,0.0,3.0815,0.0,0.0,0.0,3.2163,0.0,0.0,0.0,3.4368,3.4397,3.4397,3.4397,3.4397,3.4397,3.4397,3.4397,3.4397,3.4397,3.4397,3.4545,3.4823,3.5807,3.6428,3.6718,3.7738,3.8202,3.8202,3.8202,3.8202,3.8202,3.8202,3.8202,3.8202,3.8202,3.8202,3.8146,3.7644,3.7453,3.7453,3.7453,3.6903,3.6162,1.3492,0.0,0.0,0.0,0.0,0.0,0.0,0.0,0.0,0.0,0.0,0.0,1.4926,1.515,0.0,0.0,1.5486,1.5536,0.0,0.0,1.5693,0.0,0.0,0.0,0.0,1.7473,1.8085,1.9138,0.0,0.0,0.0,0.0,0.0,0.0,0.0,2.1729,2.2481,0.0,0.0,2.3001,2.3001,2.3001,2.3001,2.3001,2.3001,2.3001,2.3001,2.3349,2.3868,2.4285,2.5397,0.0,2.6616,0.0,0.0,0.0,0.0,0.0,2.8839,0.0,0.0,0.0,0.0,0.0,0.0,0.0,0.0,0.0,0.0,0.0,0.0,0.0,0.0,0.0,0.0,3.0539,0.0,0.0,0.0,0.0,0.0,0.0,0.0,3.4153,3.4225,3.4382,3.4397,3.4397,3.4397,3.4397,3.4397,3.4397,3.4397,3.4397,3.4397,3.5659,3.6301,3.633,3.7593,3.8202,3.8202,3.8202,3.8202,3.8202,3.8202,3.8202,3.8202,3.8202,3.8202,3.8146,3.751,3.7111,3.6878,3.6629,3.6002,3.5278,1.3492,1.3492,0.0,0.0,0.0,0.0,0.0,0.0,0.0,0.0,0.0,0.0,0.0,0.0,0.0,0.0,0.0,1.5693,1.5693,0.0,1.5693,0.0,0.0,1.696,0.0,0.0,1.9245,1.929,0.0,0.0,0.0,0.0,0.0,0.0,0.0,2.2338,2.2979,2.2979,2.299,2.3001,2.3001,2.3001,2.3001,0.0,2.3001,2.3001,2.3001,0.0,0.0,2.4849,2.5948,0.0,0.0,0.0,0.0,0.0,0.0,0.0,0.0,0.0,0.0,2.8752,0.0,0.0,0.0,0.0,2.9789,0.0,0.0,0.0,0.0,0.0,0.0,0.0,0.0,0.0,0.0,0.0,0.0,0.0,0.0,0.0,0.0,3.3532,3.3763,0.0,3.4397,3.4397,3.4397,3.4397,3.4397,3.4397,3.4397,3.4397,3.4397,3.5659,3.6301,3.633,3.7593,3.8202,3.8202,3.8202,3.8202,3.8202,3.8202,3.8202,3.8202,3.8202,3.8202,3.8202,3.8165,3.7644,3.6805,3.5949,3.5128,3.4439,1.4162,0.0,0.0,0.0,0.0,0.0,0.0,1.4547,0.0,0.0,0.0,0.0,0.0,1.6232,1.6353,0.0,0.0,1.6353,1.6353,1.6353,0.0,0.0,0.0,1.6971,0.0,0.0,0.0,0.0,0.0,0.0,0.0,0.0,0.0,0.0,0.0,2.2533,0.0,0.0,0.0,0.0,0.0,2.3198,2.3463,0.0,2.3463,2.3544,2.4169,2.4756,0.0,2.5726,2.6605,2.7477,2.726,2.809,2.9169,2.8969,2.9491,3.0127,0.0,0.0,3.0052,2.9849,0.0,0.0,0.0,0.0,0.0,0.0,0.0,0.0,0.0,0.0,0.0,0.0,0.0,0.0,0.0,0.0,0.0,0.0,0.0,0.0,0.0,0.0,0.0,0.0,3.4167,0.0,3.4397,3.4397,3.4397,3.4397,3.4397,3.4397,3.4397,3.5659,3.6301,3.633,3.7593,3.8202,3.8202,3.8202,3.8202,3.8202,3.8202,3.8202,3.8202,3.8202,3.8202,3.8089,3.6928,3.6655,3.6864,3.657,3.5923,3.5074,1.4511,0.0,0.0,0.0,0.0,0.0,0.0,0.0,0.0,0.0,1.5926,0.0,1.6473,0.0,1.6689,0.0,1.6689,1.6689,1.6689,1.6689,0.0,1.6689,1.679,0.0,0.0,0.0,0.0,0.0,0.0,2.1344,0.0,0.0,0.0,0.0,0.0,0.0,2.3001,0.0,2.3001,0.0,0.0,2.343,0.0,0.0,2.4117,2.4078,0.0,2.5488,2.6058,2.6441,2.7212,2.7915,2.7584,2.8394,2.9424,2.9259,2.9909,3.0694,3.0702,3.073,0.0,3.0442,3.0562,0.0,3.0807,0.0,3.1162,0.0,0.0,0.0,0.0,0.0,0.0,0.0,0.0,0.0,0.0,3.0598,0.0,0.0,0.0,0.0,0.0,0.0,0.0,3.346,3.3864,3.4167,0.0,3.4397,3.4397,3.4397,3.4397,3.4397,3.4397,3.5659,3.6301,3.633,3.7593,3.8202,3.8202,3.8202,3.8202,3.8202,3.8202,3.8202,3.8202,3.8202,3.8018,3.7663,3.685,3.6498,3.636,3.5776,3.5196,3.456,1.4536,1.4757,0.0,0.0,1.4996,0.0,0.0,0.0,1.6183,0.0,1.6414,1.6497,1.6677,1.6689,1.6689,1.6689,1.6689,1.6689,1.6689,1.6689,0.0,0.0,1.748,1.7957,1.7997,0.0,0.0,0.0,0.0,0.0,0.0,0.0,0.0,0.0,2.2815,0.0,2.3001,2.3001,2.3012,2.3078,2.3528,2.3736,2.3877,2.4845,2.4943,2.4612,2.5043,2.5788,2.6596,2.7038,2.7763,2.849,2.849,2.8922,2.9574,3.0126,3.0752,3.1262,3.1334,3.1327,3.1205,3.0635,3.05,0.0,0.0,0.0,3.162,0.0,0.0,0.0,0.0,0.0,0.0,0.0,0.0,0.0,0.0,0.0,0.0,0.0,0.0,0.0,0.0,0.0,3.2048,3.3342,3.3489,3.3763,0.0,3.4397,3.4397,3.4397,3.4397,3.4397,3.4397,3.5659,3.6301,3.633,3.7593,3.8202,3.8202,3.8202,3.8202,3.8202,3.8202,3.8202,3.8202,3.8202,3.7682,3.6975,3.7772,3.7005,3.5285,3.3776,3.3197,3.3102,1.5161,1.5227,1.5298,0.0,1.5671,1.5896,0.0,0.0,0.0,0.0,1.6525,1.6648,1.6689,1.6689,1.6689,1.6689,1.6689,0.0,0.0,0.0,0.0,1.6689,1.6906,1.7347,1.7997,1.9067,0.0,2.0498,0.0,0.0,2.2035,0.0,0.0,0.0,0.0,0.0,2.3001,2.3001,2.319,2.3528,2.3659,2.4139,2.4845,0.0,2.5348,2.5638,2.6382,2.6826,2.7143,2.7897,2.8291,2.849,2.849,2.9223,3.0101,3.0241,3.1078,3.1946,3.1956,3.197,3.1929,3.1779,3.1939,3.2032,0.0,0.0,0.0,0.0,0.0,0.0,0.0,0.0,0.0,0.0,0.0,0.0,0.0,0.0,0.0,3.0598,0.0,0.0,0.0,3.125,3.1844,3.2701,3.3211,3.3763,3.4368,0.0,3.4397,3.4397,3.4397,3.4397,3.4397,3.5659,3.6301,3.633,3.7593,3.8202,3.8202,3.8202,3.8202,3.8202,3.8202,3.8202,3.8202,3.8202,3.7682,3.6858,3.6492,3.5271,3.3839,3.4664,3.4587,3.4,1.541,1.5576,0.0,1.5961,0.0,0.0,1.6245,1.6402,0.0,1.6525,1.6628,0.0,1.6689,1.6689,1.6689,1.6689,1.6689,0.0,1.6689,0.0,0.0,1.6689,1.6689,1.6935,1.7428,1.8298,0.0,1.9982,0.0,0.0,2.2101,0.0,0.0,0.0,0.0,2.2889,0.0,2.323,2.3583,2.4063,2.4279,2.4683,0.0,2.5618,2.5934,2.6281,2.7188,2.738,2.7328,2.8219,2.849,2.849,2.849,2.9157,2.9967,3.0222,3.099,3.1827,3.2114,3.22,3.22,3.22,3.2336,3.242,3.225,3.2347,3.2427,0.0,3.1999,3.1755,0.0,0.0,0.0,0.0,0.0,0.0,0.0,0.0,0.0,0.0,3.0598,0.0,0.0,3.0917,3.138,3.2018,3.2687,3.3342,3.3964,0.0,3.4397,3.4397,3.4397,3.4545,3.482,3.5807,3.646,3.6751,3.7738,3.8202,3.8202,3.8202,3.8202,3.8183,3.781,3.7625,3.7606,3.7213,3.657,3.5716,3.4896,3.4196,3.3725,3.4157,3.4045,3.3598,1.5486,0.0,0.0,0.0,0.0,0.0,0.0,1.6618,0.0,1.6689,0.0,1.6789,1.6789,1.6821,1.6845,1.6845,0.0,1.6845,1.6845,1.6845,1.6829,1.6789,1.6789,1.6745,1.6689,1.7602,0.0,0.0,0.0,0.0,0.0,0.0,0.0,0.0,0.0,0.0,0.0,2.3528,2.4041,2.4637,2.5031,2.5228,2.5378,2.6186,2.6507,2.6642,2.7615,2.7693,2.7421,2.8219,2.849,2.849,2.849,2.8902,2.9496,3.0043,3.0671,3.1326,3.1918,3.2132,3.22,3.22,3.22,3.2277,3.2574,3.2632,3.2721,3.3076,3.2692,3.2283,3.2234,0.0,0.0,0.0,0.0,0.0,0.0,0.0,0.0,0.0,0.0,0.0,0.0,3.0598,3.0858,3.1452,3.2119,3.2788,3.346,0.0,3.4397,3.4397,3.4397,3.4719,3.5392,3.5996,3.6649,3.7317,3.7912,3.8146,3.8018,3.8018,3.7962,3.7815,3.7072,3.6727,3.6669,3.5909,3.5128,3.4314,3.3432,3.3547,3.4105,3.3077,3.268,3.2636,0.0,0.0,0.0,0.0,0.0,1.6598,1.7072,1.6887,1.6689,1.6689,1.7,1.7183,1.7183,1.7443,1.761,1.761,1.761,0.0,0.0,0.0,0.0,1.722,1.7183,1.704,1.6718,1.7934,1.8895,0.0,0.0,0.0,0.0,0.0,0.0,0.0,0.0,0.0,2.3594,2.3681,0.0,2.5086,2.5182,2.5435,2.5838,2.6319,2.6507,2.6676,2.7998,2.8193,2.7849,2.8331,2.849,2.849,2.849,2.8902,2.9419,2.9535,3.0349,3.1233,3.1344,3.1776,3.22,3.22,3.22,3.2218,3.2277,3.2296,3.2314,3.2386,3.2304,3.2143,3.193,0.0,0.0,0.0,0.0,0.0,0.0,0.0,0.0,0.0,0.0,3.0598,0.0,0.0,3.0858,3.1452,3.2119,3.2788,3.346,0.0,3.4397,0.0,3.4397,3.4719,0.0,0.0,3.6649,3.7317,3.7912,3.7829,3.713,3.713,3.6747,3.6049,3.5895,3.5829,3.5829,3.5655,3.5128,3.4314,3.3432,3.3197,3.3283,3.2862,3.2593,3.241,0.0,0.0,0.0,0.0,0.0,0.0,0.0,1.7382,1.727,1.727,1.7443,1.7554,1.7554,1.7697,1.7793,1.7793,1.7793,1.7793,1.7793,1.7793,1.7721,1.7562,1.779,0.0,1.7328,1.8522,1.9405,1.9914,0.0,0.0,0.0,0.0,0.0,0.0,0.0,2.3637,0.0,0.0,0.0,2.5567,2.5567,2.5822,2.6303,2.7016,2.7409,2.7748,2.8949,2.9234,2.9061,2.9267,2.9328,2.9328,2.9328,2.9732,3.0223,3.0223,3.0854,3.1636,3.1983,3.2321,3.2651,3.2984,3.3072,3.301,3.273,3.268,3.2585,3.2255,3.22,3.2214,3.2256,3.2192,0.0,0.0,0.0,0.0,0.0,0.0,0.0,0.0,0.0,0.0,0.0,0.0,0.0,0.0,0.0,3.2788,3.346,0.0,3.4397,0.0,0.0,0.0,3.5868,0.0,3.6577,3.7115,3.7387,3.7058,3.6241,3.6241,3.6009,3.5588,3.5156,3.4985,3.4924,3.4345,3.3877,3.3471,3.2939,3.2736,3.2692,3.2441,3.2266,3.2169,0.0,1.6914,0.0,0.0,1.7618,0.0,1.7896,1.7904,1.788,1.7801,1.7856,1.7904,1.7904,1.7976,1.8015,1.8015,1.8125,1.8169,1.8169,1.8279,1.8313,1.8232,1.858,1.8587,1.8187,1.9149,1.9883,0.0,0.0,0.0,0.0,0.0,0.0,0.0,0.0,0.0,0.0,0.0,2.5479,2.5916,2.6,2.6295,2.6792,2.7761,2.8389,2.8898,2.9914,3.0275,3.0287,3.0407,3.0299,3.0128,3.0262,3.0646,3.1046,3.1177,3.1666,3.2249,3.2784,3.302,3.3248,3.3773,3.3908,3.3786,3.3381,3.3273,3.3137,3.2662,3.2472,3.2445,3.266,3.2528,0.0,0.0,0.0,0.0,0.0,0.0,0.0,0.0,0.0,0.0,3.0975,0.0,0.0,0.0,0.0,3.273,3.3255,3.3993,3.4397,0.0,0.0,3.5154,3.6301,0.0,3.6468,3.6897,3.6708,3.6181,3.5325,3.5325,3.5244,3.502,3.4392,3.4105,3.4042,3.3099,3.2689,3.268,3.2475,3.24,3.2366,3.2103,3.1994,3.1981,0.0,0.0,0.0,0.0,0.0,0.0,1.82,1.8247,1.8136,1.7832,1.8071,1.8247,1.8247,1.8511,1.8709,1.8709,1.9151,1.9424,1.9424,1.9841,1.9923,1.964,1.9645,1.9487,1.9093,1.9604,2.0156,0.0,0.0,2.2074,0.0,0.0,0.0,0.0,0.0,0.0,2.5129,2.5173,2.5479,2.5937,2.629,2.6755,2.7327,2.8224,2.8873,2.9449,3.0453,3.0829,3.0901,3.1382,3.0901,3.0211,3.0799,3.1046,3.1218,3.1815,3.2428,3.2909,3.2968,3.3392,3.3831,3.3888,3.3908,3.3894,3.384,3.3826,3.3813,3.3758,3.3349,3.2954,3.2729,3.2666,3.2887,0.0,0.0,0.0,0.0,0.0,3.1728,3.2337,0.0,0.0,0.0,3.128,0.0,0.0,3.2803,3.2526,3.2584,3.3744,3.4397,3.4397,3.4983,3.5622,3.6301,3.612,3.6319,3.6897,3.6088,3.5298,3.4509,3.4509,3.4084,3.3334,3.3261,3.3219,3.3197,3.2853,3.2689,3.268,3.2475,3.24,3.2366,3.2103,3.1994,3.1972,0.0,0.0,0.0,0.0,0.0,0.0,0.0,1.9498,1.944,1.9321,1.9181,1.9196,1.9475,1.9608,1.97,1.97,1.9897,2.0011,2.0011,2.0201,2.0246,2.0114,2.0374,2.0338,1.993,2.1159,2.1818,0.0,0.0,0.0,0.0,0.0,0.0,0.0,0.0,2.502,2.5217,2.5501,2.5721,2.597,2.6685,2.7278,2.7853,2.9091,2.9872,3.0412,3.1112,3.137,3.1406,3.1633,3.1428,3.1122,3.139,3.1464,3.1507,3.1772,3.2323,3.2901,3.3315,3.3888,3.4473,3.4885,3.4984,3.4883,3.4517,3.4436,3.4341,3.3975,3.3471,3.3057,3.2946,3.2822,3.2881,3.3409,0.0,0.0,0.0,0.0,0.0,3.308,0.0,0.0,0.0,3.2048,0.0,0.0,0.0,3.283,3.3599,3.4121,3.4397,3.4397,0.0,3.4911,3.5508,3.5322,3.5283,3.5406,3.5039,3.4434,3.3611,3.3611,3.3432,3.3102,3.3102,3.3102,3.3068,3.2692,3.2519,3.2475,3.2113,3.1981,3.1959,3.1871,3.1827,3.1854,1.8081,0.0,1.9175,0.0,1.9796,2.0292,2.0292,2.0292,2.036,2.0487,2.0215,2.0102,2.0269,2.0292,2.0292,2.0292,2.0428,2.051,2.051,2.0631,2.0722,2.0722,2.1028,0.0,2.0783,2.203,2.2657,2.2584,2.3596,0.0,0.0,0.0,0.0,0.0,2.5206,2.5403,2.5435,2.5753,2.5983,2.6189,2.7133,2.7882,2.8587,2.9901,3.0703,3.1178,3.1551,3.1705,3.1705,3.1705,3.1705,3.1727,3.1925,3.1991,3.2035,3.222,3.2763,3.3386,3.386,3.4488,3.5107,3.5568,3.569,3.5581,3.5161,3.5066,3.4883,3.4287,3.3859,3.3544,3.3381,3.306,3.298,3.348,0.0,0.0,0.0,3.3879,0.0,0.0,3.3021,3.2656,3.3019,3.2729,0.0,0.0,0.0,3.2824,3.3732,3.3945,3.4014,0.0,0.0,0.0,3.4909,3.4713,3.4552,3.4397,3.4147,3.3696,3.3102,3.3025,3.2982,3.2982,3.293,3.2887,3.2865,3.2453,3.2279,3.2235,3.1849,3.1705,3.1705,3.1705,3.1791,3.1996,1.8788,1.9225,1.9592,1.9592,1.9988,2.0292,2.0292,2.0292,2.0464,2.093,2.0997,2.0817,2.036,2.0292,2.0292,2.0292,2.0713,2.0988,2.0988,2.1441,2.1674,0.0,0.0,2.1687,2.1687,2.1709,2.2078,2.2806,0.0,0.0,2.4126,0.0,2.5184,2.5206,2.5677,2.5895,2.5895,2.5895,2.6179,2.6681,2.7606,2.8582,2.959,3.0531,3.1214,3.1705,3.1705,3.1705,3.1705,3.1705,3.1705,3.1815,3.2472,3.2689,3.2819,3.3492,3.4155,3.4675,3.4696,3.5182,3.569,3.569,3.569,3.569,3.569,3.569,3.5513,3.4897,3.4775,3.4585,3.4002,3.3444,3.3348,3.4062,0.0,0.0,0.0,3.3879,0.0,3.431,3.3265,3.299,3.4252,3.3236,0.0,0.0,0.0,3.2317,3.2314,0.0,0.0,3.291,3.3566,0.0,3.4715,3.4495,3.4405,3.4397,3.3539,3.3124,3.3102,3.2831,3.2689,3.2689,3.2497,3.241,3.24,3.2125,3.1994,3.1981,3.1783,3.1705,3.1705,3.1705,3.2044,3.2491,1.9348,2.0002,2.0633,2.0925,2.1359,2.1755,2.2033,2.2078,2.2125,2.2278,2.2302,2.2232,2.2101,2.1827,2.1764,0.0,2.1956,2.1885,0.0,2.1766,2.1696,2.1696,2.1696,2.1696,2.1696,2.2198,2.2784,2.3485,0.0,0.0,0.0,2.5583,2.5666,2.5677,2.583,2.6092,2.6398,2.6716,2.7142,2.7719,2.8989,2.9694,3.0087,3.1079,3.156,3.1705,3.1705,3.1705,3.1705,3.1705,3.1705,3.1727,3.1947,3.2013,3.2057,3.2264,3.2794,3.3343,3.3343,3.4155,3.5025,3.5025,3.5365,3.569,3.569,3.569,3.5649,3.5445,3.5093,3.4734,3.4545,3.4049,3.3676,3.3776,3.3631,0.0,3.3637,0.0,3.2825,3.302,3.2436,3.2177,3.2599,3.2387,0.0,0.0,0.0,0.0,0.0,0.0,0.0,0.0,3.3341,0.0,3.3799,3.3598,3.3505,3.3505,3.3219,3.3102,3.3102,3.2692,3.2571,3.2689,3.2497,3.24,3.2378,3.2103,3.1994,3.1981,3.1783,3.1705,3.1731,3.2116,3.2346,3.2599,2.027,2.0934,2.1543,2.1777,2.2209,2.2602,2.2867,2.2904,2.2904,2.2904,2.2904,2.2968,2.3114,2.2895,0.0,2.2895,2.2666,2.2543,2.2543,2.2282,2.2144,2.2144,2.2144,2.2071,2.1938,2.2656,0.0,2.38,2.4786,2.5582,2.6147,2.6147,2.6267,2.6431,2.6431,2.6713,2.7171,2.7473,2.799,2.8727,2.977,3.0301,3.0556,3.1374,3.1705,3.1705,3.1705,3.1705,3.1705,3.1705,3.1705,3.1705,3.1705,3.1705,3.1705,3.1705,3.2167,3.2689,3.2689,3.3513,3.4384,3.4634,3.5005,3.5386,3.5629,3.569,3.569,3.569,3.5405,3.5147,3.5147,3.4443,3.3865,3.3895,3.3509,3.3254,3.3428,0.0,3.2395,0.0,0.0,3.1796,3.1796,3.1978,3.2059,0.0,0.0,0.0,0.0,0.0,3.2511,3.262,3.2835,3.306,3.3291,3.3157,3.3102,3.3102,3.3016,3.2896,3.2822,3.2431,3.2322,3.2419,3.2223,3.2147,3.2125,3.1959,3.1893,3.1896,3.1968,3.1996,3.2068,3.2587,3.2911,3.3141,2.1454,2.1924,2.2256,2.2283,2.2648,2.2959,2.2986,2.2986,2.2986,2.2986,2.2986,2.3123,2.3523,2.3535,2.3389,2.3023,0.0,0.0,2.295,2.2922,2.2904,2.2904,2.2904,2.2721,2.235,2.3072,2.3613,2.3967,2.5338,2.6213,2.666,2.666,2.6878,2.7293,2.7337,2.7646,2.8151,2.8216,2.8772,2.9637,3.0099,3.058,3.1016,3.1506,3.1705,3.1705,3.1705,3.1705,3.1705,3.1705,3.1705,3.1705,3.1705,3.1705,3.1705,3.1705,3.2145,3.2624,3.2624,3.3108,3.3776,3.4405,3.4634,3.4861,3.5487,3.5669,3.569,3.5629,3.5629,3.5622,3.5568,3.4586,3.3898,3.4226,3.3284,3.2763,3.3481,3.2726,3.2281,3.272,0.0,3.1696,3.1696,3.1899,3.1928,0.0,0.0,0.0,0.0,0.0,3.1839,3.2198,3.2231,3.2528,3.309,3.3102,3.3102,3.3102,3.281,3.2593,3.241,3.2125,3.1994,3.1994,3.1783,3.1705,3.1705,3.1731,3.1765,3.1803,3.2357,3.2563,3.2623,3.314,3.3633,3.4006,0.0,0.0,2.283,2.3153,2.328,2.3486,2.3846,2.3892,2.3892,2.3892,2.3892,2.3929,2.4021,2.403,2.3993,2.3901,2.3559,2.3352,2.3352,2.3068,2.2904,2.2904,2.2904,2.2858,2.2757,2.354,2.4528,2.5711,2.655,2.7042,2.7129,2.7129,2.7184,2.7315,2.7723,2.8187,2.8667,2.9407,3.0037,3.0615,3.1138,3.142,3.1528,3.1639,3.1705,3.1705,3.1705,3.1705,3.1705,3.1705,3.1705,3.1705,3.1705,3.1705,3.1705,3.1705,3.1815,3.1947,3.1947,3.2429,3.2957,3.3129,3.3945,3.4737,3.4902,3.5345,3.5548,3.5046,3.4943,3.4778,3.428,3.3933,3.3596,3.3234,3.2931,3.2621,3.2351,3.1718,3.1327,0.0,3.1012,3.0734,3.0734,3.1085,3.1309,0.0,0.0,3.1477,3.1989,3.1722,3.1751,3.2181,3.2641,3.2964,3.3102,3.3102,3.3102,3.309,3.2671,3.254,3.2615,3.2035,3.1849,3.1994,3.1783,3.1705,3.1741,3.2152,3.2298,3.2358,3.2899,3.3104,3.3164,3.3657,3.391,3.4054,2.3048,2.3323,2.3565,2.3785,2.3822,2.3895,2.4165,2.4202,2.4202,2.4202,2.4202,2.4202,2.4202,2.4202,2.4202,2.4202,2.3975,2.3822,2.3822,2.362,2.3477,2.3477,2.3477,2.3394,2.3178,2.3928,2.4957,2.6247,2.695,2.7402,2.762,2.762,2.7741,2.7993,2.8297,2.8802,2.9466,2.9981,3.0612,3.1284,3.1572,3.1705,3.1705,3.1705,3.1705,3.1705,3.1705,3.1705,3.1705,3.1705,3.1705,3.1705,3.1705,3.1705,3.1705,3.1705,3.1705,3.1705,3.1705,3.1969,3.232,3.2624,3.3492,3.4238,3.4238,3.4758,3.5046,3.4384,3.4488,3.4509,3.3818,3.345,3.3135,3.2819,3.2503,3.226,3.215,3.1448,3.1041,3.1263,3.0761,3.0403,3.0403,3.0712,3.1017,3.1264,3.1394,0.0,3.226,3.2135,3.2221,3.2604,3.2798,3.2982,3.3102,3.3102,3.3038,3.2918,3.2562,3.2388,3.2354,3.1903,3.1761,3.1862,3.2004,3.2068,3.2116,3.2635,3.2863,3.2911,3.3405,3.3609,3.3669,3.4186,3.4378,3.4414,2.4093,2.4202,2.4202,2.4202,2.4202,2.4202,2.4202,2.4202,2.4202,2.4202,2.4202,2.4202,2.4202,2.4202,2.4202,2.4202,2.4202,2.4202,2.4202,2.4202,2.4202,2.4202,2.4202,2.4012,2.3614,2.4449,2.5441,2.6603,2.721,2.7719,2.8122,2.8122,2.8364,2.8803,2.8955,2.9462,3.0216,3.0352,3.0915,3.1705,3.1705,3.1705,3.1705,3.1705,3.1705,3.1705,3.1705,3.1705,3.1705,3.1705,3.1705,3.1705,3.1705,3.1705,3.1705,3.1705,3.1705,3.1705,3.1705,3.1705,3.1837,3.2407,3.3043,3.3556,3.3556,3.4071,3.4364,3.3691,3.4008,3.4196,3.3522,3.2936,3.2537,3.2537,3.2079,3.1831,3.2247,0.0,3.1171,3.1567,3.1016,3.0592,3.0592,3.0769,3.1099,3.1531,3.1794,3.2068,3.2385,3.2484,3.2702,3.2995,3.2766,3.2766,3.2995,3.3025,3.2896,3.2658,3.2475,3.2257,3.1994,3.189,3.1815,3.1839,3.2382,3.2623,3.2659,3.3188,3.3404,3.3452,3.3934,3.4114,3.4186,3.4643,3.4799,3.4799,2.4177,2.4202,2.4202,2.4202,2.4202,2.4202,2.4202,2.4202,2.4202,2.4202,2.4202,2.4202,2.4202,2.4202,2.4202,2.4202,2.4202,2.4202,2.4202,2.4202,2.4202,2.4202,2.4202,2.4174,2.4085,2.5475,2.692,2.8389,2.8504,2.8594,2.8694,2.8694,2.8727,2.8827,2.9623,3.0057,3.0261,3.1105,3.155,3.1705,3.1705,3.1705,3.1705,3.1705,3.1705,3.1705,3.1705,3.1705,3.1705,3.1705,3.1705,3.1705,3.1705,3.1705,3.1705,3.1705,3.1705,3.1705,3.1705,3.1705,3.1727,3.1815,3.2363,3.2862,3.2862,3.3373,3.3649,3.2991,3.2948,3.2819,3.2133,3.1925,3.1859,3.1859,3.1771,3.1725,3.1804,0.0,3.1592,3.1683,3.1562,3.1486,3.1486,3.1673,3.1841,3.1926,3.1948,3.2106,3.2388,3.2047,3.2069,3.2497,3.2475,3.2475,3.2509,3.268,3.2658,3.2453,3.241,3.2257,3.2006,3.2266,3.237,3.2406,3.2935,3.3187,3.3212,3.3693,3.3898,3.3946,3.4475,3.4679,3.4691,3.4775,3.4799,3.4799,2.4202,2.4202,2.4202,2.4202,2.4202,2.4202,2.4202,2.4202,2.4202,2.4202,2.4202,2.4202,2.4202,2.4202,2.4202,2.4202,2.4202,2.4202,2.4202,2.4202,2.4202,2.4202,2.4202,2.439,2.4775,2.5902,2.7044,2.8151,2.8583,2.8803,2.8803,2.9058,2.9186,2.9209,2.9897,3.0329,3.06,3.1083,3.1439,3.1705,3.1705,3.1705,3.1705,3.1705,3.1705,3.1705,3.1705,3.1705,3.1705,3.1705,3.1705,3.1705,3.1705,3.1705,3.1705,3.1705,3.1705,3.1705,3.1705,3.1705,3.1705,3.1705,3.1925,3.2167,3.2167,3.2677,3.2957,3.2298,3.245,3.2494,3.1815,3.1705,3.1705,3.1705,3.1705,3.1705,3.1705,3.1705,3.1705,3.1705,3.1705,3.1705,3.1705,3.1771,3.1849,3.1849,3.1937,3.2016,3.2025,3.1915,3.1915,3.2025,3.2279,3.24,3.24,3.2497,3.2497,3.24,3.2563,3.2552,3.2443,3.2785,3.2923,3.2959,3.3477,3.3669,3.3705,3.4222,3.4438,3.4462,3.4703,3.4799,3.4799,3.4799,3.4799,3.4799,2.4202,2.4202,2.4202,2.4202,2.4202,2.4202,2.4202,2.4202,2.4202,2.4202,2.4202,2.4202,2.4202,2.4202,2.4202,2.4202,2.4202,2.4202,2.4202,2.4202,2.4202,2.4202,2.4202,2.4563,2.5294,2.6095,2.6853,2.7589,2.8409,2.8873,2.8966,2.9324,2.9554,2.9692,3.0148,3.0555,3.0904,3.1038,3.1328,3.1705,3.1705,3.1705,3.1705,3.1705,3.1705,3.1705,3.1705,3.1705,3.1705,3.1705,3.1705,3.1705,3.1705,3.1801,3.1887,3.1887,3.1972,3.2008,3.1777,3.1705,3.1705,3.1705,3.1705,3.1705,3.1705,3.2101,3.232,3.1805,3.2101,3.232,3.1793,3.1705,3.1705,3.1705,3.1705,3.1705,3.1705,3.1705,3.1705,3.1705,3.1705,3.1705,3.1705,3.1705,3.1705,3.1705,3.1849,3.1871,3.1705,3.1849,3.1871,3.1705,3.2047,3.2235,3.2235,3.2401,3.2475,3.2443,3.2812,3.2954,3.2933,3.3294,3.3464,3.3489,3.3982,3.4198,3.4234,3.4643,3.4799,3.4799,3.4799,3.4799,3.4799,3.4799,3.4799,3.4799,2.4202,2.4202,2.4202,2.4202,2.4202,2.4202,2.4202,2.4202,2.4202,2.4202,2.4202,2.4202,2.4202,2.4202,2.4202,2.4202,2.4202,2.4202,2.4202,2.4202,2.4202,2.4202,2.4202,2.4563,2.5294,2.6095,2.6853,2.7589,2.8409,2.9024,2.9439,2.9485,2.9737,3.017,3.0634,3.0881,3.0926,3.1439,3.1661,3.1705,3.1705,3.1705,3.1705,3.1705,3.1705,3.1705,3.1705,3.1705,3.1705,3.1705,3.1705,3.1705,3.1705,3.2044,3.2442,3.2442,3.2791,3.297,3.1982,3.1705,3.1705,3.1705,3.1705,3.1705,3.1705,3.1727,3.1749,3.1705,3.1727,3.1749,3.1705,3.1705,3.1705,3.1705,0.0,0.0,3.1705,3.1705,3.1705,3.1705,3.1705,3.1705,3.1705,3.1705,3.1705,3.1705,3.1705,3.1705,3.1705,3.1705,3.1705,3.1705,3.1727,3.1749,3.1749,3.2435,3.2667,3.2488,3.3212,3.3443,3.3271,3.373,3.3934,3.3994,3.4523,3.4751,3.4751,3.4787,3.4799,3.4799,3.4799,3.4799,3.4799,3.4799,3.4799,3.4799,2.4202,2.4202,2.4202,2.4202,2.4202,2.4202,2.4202,2.4202,2.4202,2.4202,2.4202,2.4202,2.4202,2.4202,2.4202,2.4202,2.4202,2.4202,2.4202,2.4202,2.4202,2.4202,2.4202,2.4563,2.5294,2.5611,2.6215,2.7183,2.807,2.8678,2.9013,2.9932,3.0465,3.0645,3.1172,3.1395,3.1417,3.1617,3.1705,3.1705,3.1705,3.1705,3.1705,3.1705,3.1705,3.1705,3.1705,3.1705,3.1705,3.1705,3.1912,3.22,3.22,3.2551,3.2996,3.2996,3.3128,3.3223,3.2802,3.2694,3.2694,3.2694,3.2453,3.22,3.22,3.1936,3.1705,3.1705,3.1705,3.1705,3.1705,3.1705,3.1705,3.1705,0.0,3.1705,3.1705,3.1705,3.1705,3.1705,3.1705,3.1705,3.1705,3.1705,3.1705,3.1705,3.1705,3.1705,3.1705,3.202,3.22,3.22,3.2525,3.2537,3.2212,3.2473,3.275,3.2996,3.3571,3.3824,3.3742,3.427,3.4511,3.4511,3.4715,3.4799,3.4799,3.4799,3.4799,3.4799,3.4799,3.4799,3.4799,3.4799,3.4799,3.4799,2.4202,2.4202,2.4202,2.4202,2.4202,2.4202,2.4202,2.4202,2.4202,2.4202,2.4202,2.4202,2.4202,2.4202,2.4202,2.4202,2.4202,2.4202,2.4202,2.4202,2.4202,2.4202,2.4202,2.444,2.4937,2.527,2.5781,2.6514,2.7471,2.8294,2.8956,2.9988,3.0713,3.1172,3.1528,3.1705,3.1705,3.1705,3.1705,3.1705,3.1705,3.1705,3.1705,3.1705,3.1705,3.1705,3.1705,3.1803,3.1948,3.1948,3.2321,3.2743,3.2743,3.3104,3.3561,3.3729,3.3777,3.3777,3.3777,3.3777,3.3693,3.3368,3.3008,3.2743,3.2743,3.2345,3.1948,3.1948,3.1815,3.1705,3.1705,3.1705,3.1705,3.1705,3.1705,3.1705,3.1705,3.1705,3.1705,3.1705,3.1705,3.1705,3.1705,3.1705,3.1705,3.1705,3.1705,3.1767,3.1936,3.2465,3.2743,3.2743,3.3104,3.3188,3.296,3.296,3.3164,3.3537,3.4018,3.4258,3.4246,3.4643,3.4799,3.4799,3.4799,3.4799,3.4799,3.4799,3.4799,3.4799,3.4799,3.4799,3.4799,3.4799,3.4799,3.4799,2.4202,2.4202,2.4202,2.4202,2.4202,2.4202,2.4202,2.4202,2.4202,2.4202,2.4202,2.4202,2.4202,2.4202,2.4202,2.4202,2.4202,2.4202,2.4202,2.4202,2.4202,2.4202,2.4202,2.4202,2.4202,2.5191,2.5693,2.5693,2.6706,2.7987,2.9485,2.9508,3.0284,3.1683,3.1705,3.1705,3.1705,3.1705,3.1705,3.1705,3.1695,3.1717,3.1717,3.1717,3.1695,3.1695,3.1695,3.2056,3.2515,3.2515,3.2851,3.3319,3.3319,3.3621,3.4102,3.4643,3.4799,3.4799,3.4799,3.4799,3.4559,3.3561,3.3319,3.3319,3.3319,3.2887,3.2515,3.2515,3.208,3.1717,3.1717,3.1705,3.1705,3.1705,3.1705,3.1705,3.1705,3.1705,3.1705,3.1705,3.1705,3.1705,3.1705,3.1695,3.1717,3.1717,3.1717,3.1948,3.2478,3.3008,3.3319,3.3319,3.3319,3.3549,3.3994,3.3994,3.3994,3.4006,3.4559,3.4799,3.4799,3.4799,3.4799,3.4799,3.4799,3.4799,3.4799,3.4799,3.4799,3.4799,3.4799,3.4799,3.4799,3.4799,3.4799,3.4799,2.4202,2.4202,2.4202,2.4202,2.4202,2.4202,2.4202,2.4202,2.4202,2.4202,2.4202,2.4202,2.4202,2.4202,2.4202,2.4202,2.4202,2.4202,2.4202,2.4202,2.4202,2.4202,2.4341,2.4415,2.4415,2.4883,2.5216,2.5421,2.6442,2.7258,2.7932,2.9326,3.0227,3.0678,3.1383,3.1705,3.1705,3.1705,3.1705,3.1719,3.2116,3.225,3.2286,3.2682,3.2826,3.2826,3.2826,3.2934,3.3056,3.3056,3.3392,3.3862,3.4234,3.445,3.4595,3.4751,3.4799,3.4799,3.4799,3.4799,3.4727,3.4426,3.4066,3.379,3.379,3.3416,3.3056,3.3056,3.2623,3.225,3.225,3.1948,3.1705,3.1705,3.1705,3.1705,3.1705,3.1705,3.1705,3.1705,3.1705,3.1705,3.1705,3.2044,3.225,3.225,3.2621,3.2898,3.3044,3.3537,3.379,3.379,3.415,3.4414,3.4571,3.4186,3.4186,3.4571,3.4727,3.4799,3.4799,3.4799,3.4799,3.4799,3.4799,3.4799,3.4799,3.4799,3.4799,3.4799,3.4799,3.4799,3.4799,3.4799,3.4799,3.4799,2.4202,2.4202,2.4202,2.4202,2.4202,2.4202,2.4202,2.4202,2.4202,2.4202,2.4202,2.4202,2.4202,2.4202,2.4202,2.4202,2.4202,2.4275,2.444,2.445,2.4523,2.4679,2.4881,2.4849,2.4514,2.4858,2.5137,2.5308,2.6196,2.6946,2.7503,2.8888,2.9731,3.0163,3.1204,3.1662,3.1685,3.2128,3.2333,3.2357,3.2683,3.2815,3.2851,3.3176,3.3284,3.3284,3.3284,3.3416,3.3585,3.3585,3.391,3.4354,3.4703,3.4799,3.4799,3.4799,3.4799,3.4799,3.4799,3.4799,3.4799,3.4799,3.4571,3.433,3.433,3.3934,3.3585,3.3585,3.3176,3.2815,3.2815,3.2561,3.226,3.2056,3.202,3.1936,3.1741,3.1875,3.202,3.202,3.22,3.2333,3.2333,3.2634,3.2815,3.2815,3.3296,3.3585,3.3585,3.4054,3.433,3.433,3.4643,3.4799,3.4799,3.4487,3.4487,3.4799,3.4799,3.4799,3.4799,3.4799,3.4799,3.4799,3.4799,3.4799,3.4799,3.4799,3.4799,3.4799,3.4799,3.4799,3.4799,3.4799,3.4799,3.4799,2.4248,2.4257,2.4266,2.4303,2.4312,2.4312,2.4312,2.4312,2.4312,2.4312,2.4312,2.4312,2.4312,2.4312,2.4312,2.4312,2.4312,2.4452,2.4838,2.4856,2.5021,2.5379,2.5657,2.5433,2.4635,2.5144,2.5424,2.5424,2.6101,2.6923,2.7825,2.8301,2.8999,2.9911,3.0967,3.1458,3.153,3.2665,3.3145,3.3168,3.3309,3.3356,3.3368,3.3416,3.3428,3.3428,3.3428,3.3717,3.4066,3.4066,3.4414,3.4799,3.4799,3.4799,3.4799,3.4799,3.4799,3.4799,3.4799,3.4799,3.4799,3.4799,3.4799,3.4799,3.4799,3.4402,3.4066,3.4066,3.3681,3.3356,3.3356,3.332,3.3128,3.2647,3.2575,3.2394,3.1899,3.225,3.2575,3.2575,3.2996,3.3284,3.3284,3.3332,3.3368,3.3416,3.3826,3.4066,3.4066,3.4547,3.4799,3.4799,3.4799,3.4799,3.4799,3.4799,3.4799,3.4799,3.4799,3.4799,3.4799,3.4799,3.4799,3.4799,3.4799,3.4799,3.4799,3.4799,3.4799,3.4799,3.4799,3.4799,3.4799,3.4799,3.4799,3.4799,2.4608,2.4672,2.4764,2.5076,2.5131,2.5131,2.5131,2.5131,2.5131,2.5131,2.5131,2.5131,2.5131,2.5131,2.5131,2.5131,2.5131,2.5177,2.526,2.5269,2.5306,2.5388,2.5657,2.5703,2.5526,2.6044,2.6323,2.6323,2.6699,2.6976,2.7194,2.8095,2.8612,2.8875,2.9875,3.0339,3.0412,3.1506,3.1969,3.2087,3.3339,3.385,3.3898,3.4318,3.4475,3.4475,3.4475,3.4535,3.4631,3.4631,3.4703,3.4799,3.4799,3.4799,3.4799,3.4799,3.4799,3.4799,3.4799,3.4799,3.4799,3.4799,3.4799,3.4799,3.4799,3.4715,3.4631,3.4631,3.4222,3.385,3.385,3.3549,3.3248,3.314,3.3139,3.308,3.2982,3.3044,3.3139,3.3139,3.3224,3.3284,3.3284,3.3621,3.4018,3.4438,3.4571,3.4631,3.4631,3.4739,3.4799,3.4799,3.4799,3.4799,3.4799,3.4799,3.4799,3.4799,3.4799,3.4799,3.4799,3.4799,3.4799,3.4799,3.4799,3.4799,3.4799,3.4799,3.4799,3.4799,3.4799,3.4799,3.4799,3.4799,3.4799,3.4799,2.504,2.5086,2.5159,2.5361,2.5398,2.5398,2.5398,2.5398,2.5398,2.5398,2.5398,2.5398,2.5398,2.5398,2.5398,2.5398,2.5398,2.548,2.5664,2.5699,2.5765,2.5967,2.6118,2.6242,2.6365,2.6778,2.6866,2.6593,2.7088,2.7324,2.735,2.8054,2.8402,2.8453,2.9498,2.9943,3.0019,3.1119,3.16,3.1721,3.3074,3.3617,3.3689,3.4497,3.4799,3.4799,3.4799,3.4799,3.4799,3.4799,3.4799,3.4799,3.4799,3.4799,3.4799,3.4799,3.4799,3.4799,3.4799,3.4799,3.4799,3.4799,3.4799,3.4799,3.4799,3.4799,3.4799,3.4799,3.4583,3.4366,3.4366,3.4174,3.3945,3.3693,3.3621,3.3573,3.332,3.3501,3.3621,3.3621,3.3873,3.4018,3.4018,3.4234,3.4511,3.4787,3.4799,3.4799,3.4799,3.4799,3.4799,3.4799,3.4799,3.4799,3.4799,3.4799,3.4799,3.4799,3.4799,3.4799,3.4799,3.4799,3.4799,3.4799,3.4799,3.4799,3.4799,3.4799,3.4799,3.4799,3.4799,3.4799,3.4799,3.4799,3.4799,3.4799,2.548,2.5499,2.5517,2.559,2.5609,2.5609,2.5609,2.5609,2.5609,2.5609,2.5609,2.5609,2.5609,2.5609,2.5609,2.5609,2.5609,2.5746,2.6077,2.6095,2.6251,2.66,2.6591,2.6745,2.6989,2.726,2.7224,2.6814,2.7484,2.78,2.7809,2.8125,2.8291,2.8344,2.9234,2.9618,2.9697,3.083,3.1319,3.1421,3.2689,3.3201,3.3325,3.4397,3.4799,3.4799,3.4799,3.4799,3.4799,3.4799,3.4799,3.4799,3.4799,3.4799,3.4799,3.4799,3.4799,3.4799,3.4799,3.4799,3.4799,3.4799,3.4799,3.4799,3.4799,3.4799,3.4799,3.4799,3.4799,3.4799,3.4799,3.4799,3.4655,3.4222,3.415,3.4006,3.3609,3.3886,3.415,3.415,3.4535,3.4799,3.4799,3.4799,3.4799,3.4799,3.4799,3.4799,3.4799,3.4799,3.4799,3.4799,3.4799,3.4799,3.4799,3.4799,3.4799,3.4799,3.4799,3.4799,3.4799,3.4799,3.4799,3.4799,3.4799,3.4799,3.4799,3.4799,3.4799,3.4799,3.4799,3.4799,3.4799,3.4799,3.4799,3.4799,2.5838,2.5929,2.6022,2.6389,2.6453,2.6453,2.6453,2.6453,2.6453,2.6453,2.6453,2.6453,2.6453,2.6453,2.6453,2.6453,2.6453,2.6472,2.6527,2.6536,2.6527,2.6591,2.6591,2.6745,2.6989,2.726,2.7509,2.7733,2.8067,2.8203,2.8203,2.8262,2.8291,2.8318,2.8451,2.8521,2.8601,2.967,3.013,3.0312,3.2376,3.3201,3.3325,3.4397,3.4799,3.4799,3.4799,3.4799,3.4799,3.4799,3.4799,3.4799,3.4799,3.4799,3.4799,3.4799,3.4799,3.4799,3.4799,3.4799,3.4799,3.4799,3.4799,3.4799,3.4799,3.4799,3.4799,3.4799,3.4799,3.4799,3.4799,3.4799,3.4787,3.4703,3.4691,3.4667,3.4607,3.4655,3.4691,3.4691,3.4763,3.4799,3.4799,3.4799,3.4799,3.4799,3.4799,3.4799,3.4799,3.4799,3.4799,3.4799,3.4799,3.4799,3.4799,3.4799,3.4799,3.4799,3.4799,3.4799,3.4799,3.4799,3.4799,3.4799,3.4799,3.4799,3.4799,3.4799,3.4799,3.4799,3.4799,3.4799,3.4799,3.4799,3.4799,3.4799,2.6306,2.6343,2.6398,2.6554,2.6591,2.6591,2.6591,2.6591,2.6591,2.6591,2.6591,2.6591,2.6591,2.6591,2.6591,2.6591,2.6591,2.6591,2.6591,2.6591,2.6591,2.6591,2.6591,2.6745,2.6989,2.7125,2.7422,2.7906,2.8157,2.8291,2.8291,2.8291,2.8291,2.8291,2.8291,2.8291,2.8318,2.8804,2.9006,2.9128,3.0716,3.1359,3.1538,3.325,3.3918,3.3992,3.458,3.4799,3.4799,3.4799,3.4799,3.4799,3.4799,3.4799,3.4799,3.4799,3.4799,3.4799,3.4799,3.4799,3.4799,3.4799,3.4799,3.4799,3.4799,3.4799,3.4799,3.4799,3.4799,3.4799,3.4799,3.4799,3.4799,3.4799,3.4799,3.4799,3.4799,3.4799,3.4799,3.4799,3.4799,3.4799,3.4799,3.4799,3.4799,3.4799,3.4799,3.4799,3.4799,3.4799,3.4799,3.4799,3.4799,3.4799,3.4799,3.4799,3.4799,3.4799,3.4799,3.4799,3.4799,3.4799,3.4799,3.4799,3.4799,3.4799,3.4799,3.4799,3.4799,3.4799,3.4799,3.4799,3.4799,3.4799,3.4799,3.4799]},{"header":{"parameterUnit":"m.s-1","parameterCategory":1,"la1":30.6,"la2":28.766,"lo1":-90.7593,"lo2":-88.6598,"dy":0.0162,"dx":0.0183,"nx":116,"ny":114,"refTime":"2024-02-10T06:00:00:Z","depth":0,"parameterNumber":3,"parameterNumberName":"V-component_of_WINDS"},"data":[0.0,0.0,0.0,0.0,0.0,0.0,0.0,0.0,0.0,0.0,0.0,0.0,0.0,0.0,0.0,0.0,0.0,0.0,0.0,0.0,0.0,0.0,0.0,0.0,0.0,0.0,0.0,0.0,0.0,0.0,0.0,0.0,0.0,0.0,0.0,0.0,0.0,0.0,0.0,0.0,0.0,0.0,0.0,0.0,0.0,0.0,0.0,0.0,0.0,0.0,0.0,0.0,0.0,0.0,0.0,0.0,0.0,0.0,0.0,0.0,0.0,0.0,0.0,0.0,0.0,0.0,0.0,0.0,0.0,0.0,0.0,0.0,0.0,0.0,0.0,0.0,0.0,0.0,0.0,0.0,0.0,0.0,0.0,0.0,0.0,0.0,0.0,0.0,0.0,0.0,0.0,0.0,0.0,0.0,0.0,0.0,0.0,0.0,0.0,0.0,0.0,0.0,0.0,0.0,0.0,0.0,0.0,0.0,0.0,0.0,0.0,0.0,0.0,0.0,0.0,0.0,0.0,0.0,0.0,0.0,0.0,0.0,0.0,0.0,0.0,0.0,0.0,0.0,0.0,0.0,0.0,0.0,0.0,0.0,0.0,0.0,0.0,0.0,0.0,0.0,0.0,0.0,0.0,0.0,0.0,0.0,0.0,0.0,0.0,0.0,0.0,0.0,0.0,0.0,0.0,0.0,0.0,0.0,0.0,0.0,0.0,0.0,0.0,0.0,0.0,0.0,0.0,0.0,0.0,0.0,0.0,0.0,0.0,0.0,0.0,0.0,0.0,0.0,0.0,0.0,0.0,0.0,0.0,0.0,0.0,0.0,0.0,0.0,0.0,0.0,0.0,0.0,0.0,0.0,0.0,0.0,0.0,0.0,0.0,0.0,0.0,0.0,0.0,0.0,0.0,0.0,0.0,0.0,0.0,0.0,0.0,0.0,0.0,0.0,0.0,0.0,0.0,0.0,0.0,0.0,0.0,0.0,0.0,0.0,0.0,0.0,0.0,0.0,0.0,0.0,0.0,0.0,0.0,0.0,0.0,0.0,0.0,0.0,0.0,0.0,0.0,0.0,0.0,0.0,0.0,0.0,0.0,0.0,0.0,0.0,0.0,0.0,0.0,0.0,0.0,0.0,0.0,0.0,0.0,0.0,0.0,0.0,0.0,0.0,0.0,0.0,0.0,0.0,0.0,0.0,0.0,0.0,0.0,0.0,0.0,0.0,0.0,0.0,0.0,0.0,0.0,0.0,0.0,0.0,0.0,0.0,0.0,0.0,0.0,0.0,0.0,0.0,0.0,0.0,0.0,0.0,0.0,0.0,0.0,0.0,0.0,0.0,0.0,0.0,0.0,0.0,0.0,0.0,0.0,0.0,0.0,0.0,0.0,0.0,0.0,0.0,0.0,0.0,0.0,0.0,0.0,0.0,0.0,0.0,0.0,0.0,0.0,0.0,0.0,0.0,0.0,0.0,0.0,0.0,0.0,0.0,0.0,0.0,0.0,0.0,0.0,0.0,0.0,0.0,0.0,0.0,0.0,0.0,0.0,0.0,0.0,0.0,0.0,0.0,0.0,0.0,0.0,0.0,0.0,0.0,0.0,0.0,0.0,0.0,0.0,0.0,0.0,0.0,0.0,0.0,0.0,0.0,0.0,0.0,0.0,0.0,0.0,0.0,0.0,0.0,0.0,0.0,0.0,0.0,0.0,0.0,0.0,0.0,0.0,0.0,0.0,0.0,0.0,0.0,0.0,0.0,0.0,0.0,0.0,0.0,0.0,0.0,0.0,0.0,0.0,0.0,0.0,0.0,0.0,0.0,0.0,0.0,0.0,0.0,0.0,0.0,0.0,0.0,0.0,0.0,0.0,0.0,0.0,0.0,0.0,0.0,0.0,0.0,0.0,0.0,0.0,0.0,0.0,0.0,0.0,0.0,0.0,0.0,0.0,0.0,0.0,0.0,0.0,0.0,0.0,0.0,0.0,0.0,0.0,0.0,0.0,0.0,0.0,0.0,0.0,0.0,0.0,0.0,0.0,0.0,0.0,0.0,0.0,0.0,0.0,0.0,0.0,0.0,0.0,0.0,0.0,0.0,0.0,0.0,0.0,0.0,0.0,0.0,0.0,0.0,0.0,0.0,0.0,0.0,0.0,0.0,0.0,0.0,0.0,0.0,0.0,0.0,0.0,0.0,0.0,0.0,0.0,0.0,0.0,0.0,0.0,0.0,0.0,0.0,0.0,0.0,0.0,0.0,0.0,0.0,0.0,0.0,0.0,0.0,0.0,0.0,0.0,0.0,0.0,0.0,0.0,0.0,0.0,0.0,0.0,0.0,0.0,0.0,0.0,0.0,0.0,0.0,0.0,0.0,0.0,0.0,0.0,0.0,0.0,0.0,0.0,0.0,0.0,0.0,0.0,0.0,0.0,0.0,0.0,0.0,0.0,0.0,0.0,0.0,0.0,0.0,0.0,0.0,0.0,0.0,0.0,0.0,0.0,0.0,0.0,0.0,0.0,0.0,0.0,0.0,0.0,0.0,0.0,0.0,0.0,0.0,0.0,0.0,0.0,0.0,0.0,0.0,0.0,0.0,0.0,0.0,0.0,0.0,0.0,0.0,0.0,0.0,0.0,0.0,0.0,0.0,0.0,0.0,0.0,0.0,0.0,0.0,0.0,0.0,0.0,0.0,0.0,0.0,0.0,0.0,0.0,0.0,0.0,0.0,0.0,0.0,0.0,0.0,0.0,0.0,0.0,0.0,0.0,0.0,0.0,0.0,0.0,0.0,0.0,0.0,0.0,0.0,0.0,0.0,0.0,0.0,0.0,0.0,0.0,0.0,0.0,0.0,0.0,0.0,0.0,0.0,0.0,0.0,0.0,0.0,0.0,0.0,0.0,0.0,0.0,0.0,0.0,0.0,0.0,0.0,0.0,0.0,0.0,0.0,0.0,0.0,0.0,0.0,0.0,0.0,0.0,0.0,0.0,0.0,0.0,0.0,0.0,0.0,0.0,0.0,0.0,0.0,0.0,0.0,0.0,0.0,0.0,0.0,0.0,0.0,0.0,0.0,0.0,0.0,0.0,0.0,0.0,0.0,0.0,0.0,0.0,0.0,0.0,0.0,0.0,0.0,0.0,0.0,0.0,0.0,0.0,0.0,0.0,0.0,0.0,0.0,0.0,0.0,0.0,0.0,0.0,0.0,0.0,0.0,0.0,0.0,0.0,0.0,0.0,0.0,0.0,0.0,0.0,0.0,0.0,0.0,0.0,0.0,0.0,0.0,0.0,0.0,0.0,0.0,0.0,0.0,0.0,0.0,0.0,0.0,0.0,0.0,0.0,0.0,0.0,0.0,0.0,0.0,0.0,0.0,0.0,0.0,0.0,0.0,0.0,0.0,0.0,0.0,0.0,0.0,0.0,0.0,0.0,0.0,0.0,0.0,0.0,0.0,0.0,0.0,0.0,0.0,0.0,0.0,0.0,0.0,0.0,0.0,0.0,0.0,0.0,0.0,0.0,0.0,0.0,0.0,0.0,0.0,0.0,0.0,0.0,0.0,0.0,0.0,0.0,0.0,0.0,0.0,0.0,0.0,0.0,0.0,0.0,0.0,0.0,0.0,0.0,0.0,0.0,0.0,0.0,0.0,0.0,0.0,0.0,0.0,0.0,0.0,0.0,0.0,0.0,0.0,0.0,0.0,0.0,0.0,0.0,0.0,0.0,0.0,0.0,0.0,0.0,0.0,0.0,0.0,0.0,0.0,0.0,0.0,0.0,0.0,0.0,0.0,0.0,0.0,0.0,0.0,0.0,0.0,0.0,0.0,0.0,0.0,0.0,0.0,0.0,0.0,0.0,0.0,0.0,0.0,0.0,0.0,0.0,0.0,0.0,0.0,0.0,0.0,0.0,0.0,0.0,0.0,0.0,0.0,0.0,0.0,0.0,0.0,0.0,0.0,0.0,0.0,0.0,0.0,0.0,0.0,0.0,0.0,0.0,0.0,0.0,0.0,0.0,0.0,0.0,0.0,0.0,0.0,0.0,0.0,0.0,0.0,0.0,0.0,0.0,0.0,0.0,0.0,0.0,0.0,0.0,0.0,0.0,0.0,0.0,0.0,0.0,0.0,0.0,0.0,0.0,0.0,0.0,0.0,0.0,0.0,0.0,0.0,0.0,0.0,0.0,0.0,0.0,0.0,0.0,0.0,0.0,0.0,0.0,0.0,0.0,0.0,0.0,0.0,0.0,0.0,0.0,0.0,0.0,0.0,0.0,0.0,0.0,0.0,0.0,0.0,0.0,0.0,0.0,0.0,0.0,0.0,0.0,0.0,0.0,0.0,0.0,0.0,0.0,0.0,0.0,0.0,0.0,0.0,0.0,0.0,0.0,0.0,0.0,0.0,0.0,0.0,0.0,0.0,0.0,0.0,0.0,0.0,0.0,0.0,0.0,0.0,0.0,0.0,0.0,0.0,0.0,0.0,0.0,0.0,0.0,0.0,0.0,0.0,0.0,0.0,0.0,0.0,0.0,0.0,0.0,0.0,0.0,0.0,0.0,0.0,0.0,0.0,0.0,0.0,0.0,0.0,0.0,0.0,0.0,0.0,0.0,0.0,0.0,0.0,0.0,0.0,0.0,0.0,0.0,0.0,0.0,0.0,0.0,0.0,0.0,0.0,0.0,0.0,0.0,0.0,0.0,0.0,0.0,0.0,0.0,0.0,0.0,0.0,0.0,0.0,0.0,0.0,0.0,0.0,0.0,0.0,0.0,0.0,0.0,0.0,0.0,0.0,0.0,0.0,0.0,0.0,0.0,0.0,0.0,0.0,0.0,0.0,0.0,0.0,0.0,0.0,0.0,0.0,0.0,0.0,0.0,0.0,0.0,0.0,0.0,0.0,0.0,0.0,0.0,0.0,0.0,0.0,0.0,0.0,0.0,0.0,0.0,0.0,0.0,0.0,0.0,0.0,0.0,0.0,0.0,0.0,0.0,0.0,0.0,0.0,0.0,0.0,0.0,0.0,0.0,0.0,0.0,0.0,0.0,0.0,0.0,0.0,0.0,0.0,0.0,0.0,0.0,0.0,0.0,0.0,0.0,0.0,0.0,0.0,0.0,0.0,0.0,0.0,0.0,0.0,0.0,0.0,0.0,0.0,0.0,0.0,0.0,0.0,0.0,0.0,0.0,0.0,0.0,0.0,0.0,0.0,0.0,0.0,0.0,0.0,0.0,0.0,0.0,0.0,0.0,0.0,0.0,0.0,0.0,0.0,0.0,0.0,0.0,0.0,0.0,0.0,0.0,0.0,0.0,0.0,0.0,0.0,0.0,0.0,0.0,0.0,0.0,0.0,0.0,0.0,0.0,0.0,0.0,0.0,0.0,0.0,0.0,0.0,0.0,0.0,0.0,0.0,0.0,0.0,0.0,0.0,0.0,0.0,0.0,0.0,0.0,0.0,0.0,0.0,0.0,0.0,0.0,0.0,0.0,0.0,0.0,0.0,0.0,0.0,0.0,0.0,0.0,0.0,0.0,0.0,0.0,0.0,0.0,0.0,0.0,0.0,0.0,0.0,0.0,0.0,0.0,0.0,0.0,0.0,0.0,0.0,0.0,0.0,0.0,0.0,0.0,0.0,0.0,0.0,0.0,0.0,0.0,0.0,0.0,0.0,0.0,0.0,0.0,0.0,0.0,0.0,0.0,0.0,0.0,0.0,0.0,0.0,0.0,0.0,0.0,0.0,0.0,0.0,0.0,0.0,0.0,0.0,0.0,0.0,0.0,0.0,0.0,0.0,0.0,0.0,0.0,0.0,0.0,0.0,0.0,0.0,0.0,0.0,0.0,0.0,0.0,0.0,0.0,0.0,0.0,0.0,0.0,0.0,0.0,0.0,0.0,0.0,0.0,0.0,0.0,0.0,0.0,0.0,0.0,0.0,0.0,0.0,0.0,0.0,0.0,0.0,0.0,0.0,0.0,0.0,0.0,0.0,0.0,0.0,0.0,0.0,0.0,0.0,0.0,0.0,0.0,0.0,0.0,0.0,0.0,0.0,0.0,0.0,0.0,0.0,0.0,0.0,0.0,0.0,0.0,0.0,0.0,0.0,0.0,0.0,0.0,0.0,2.5555,0.0,0.0,0.0,0.0,0.0,0.0,0.0,0.0,0.0,0.0,0.0,0.0,0.0,0.0,0.0,0.0,0.0,0.0,0.0,0.0,0.0,0.0,0.0,0.0,0.0,0.0,0.0,2.6217,2.6642,2.7105,2.7124,2.7336,2.7822,2.8122,2.8281,2.8326,2.8606,2.8987,2.9425,2.9399,2.9578,2.9933,2.903,2.8793,2.9146,0.0,0.0,0.0,0.0,0.0,0.0,0.0,0.0,0.0,0.0,0.0,0.0,0.0,0.0,0.0,0.0,0.0,0.0,0.0,0.0,0.0,0.0,0.0,0.0,0.0,0.0,0.0,0.0,0.0,0.0,0.0,0.0,0.0,0.0,0.0,0.0,0.0,0.0,0.0,0.0,0.0,0.0,0.0,0.0,0.0,0.0,0.0,0.0,0.0,0.0,0.0,0.0,0.0,0.0,0.0,0.0,0.0,0.0,0.0,0.0,0.0,0.0,0.0,0.0,0.0,0.0,0.0,0.0,0.0,0.0,0.0,2.5853,0.0,0.0,0.0,0.0,0.0,0.0,0.0,0.0,0.0,0.0,0.0,0.0,0.0,0.0,0.0,0.0,0.0,0.0,0.0,0.0,0.0,0.0,0.0,2.6344,2.6743,2.6743,2.7402,2.7884,2.8022,2.8041,2.8132,2.8332,2.8836,2.9143,2.9219,2.9721,2.998,2.9987,2.9895,2.9834,2.9826,2.9843,2.9836,0.0,0.0,0.0,0.0,0.0,0.0,0.0,0.0,0.0,0.0,0.0,0.0,0.0,0.0,0.0,0.0,0.0,0.0,0.0,0.0,0.0,0.0,0.0,0.0,0.0,0.0,0.0,0.0,0.0,0.0,0.0,0.0,0.0,0.0,0.0,0.0,0.0,0.0,0.0,0.0,0.0,0.0,0.0,0.0,0.0,0.0,0.0,0.0,0.0,0.0,0.0,0.0,0.0,0.0,0.0,0.0,0.0,0.0,0.0,0.0,0.0,0.0,0.0,0.0,0.0,2.5605,2.5492,2.5482,2.5275,2.5111,2.5023,2.5371,2.5352,2.5136,2.5466,0.0,0.0,0.0,0.0,0.0,0.0,0.0,0.0,0.0,0.0,0.0,0.0,0.0,0.0,0.0,0.0,0.0,0.0,0.0,0.0,0.0,2.7658,2.7711,2.7711,2.7826,2.8217,2.8979,2.9017,2.937,3.0113,3.0014,2.9973,3.0039,3.0018,2.9971,2.9901,2.9723,2.9612,2.956,2.9664,2.9723,2.9726,0.0,0.0,0.0,0.0,0.0,0.0,0.0,0.0,0.0,0.0,0.0,0.0,0.0,0.0,0.0,0.0,0.0,0.0,0.0,0.0,0.0,0.0,0.0,0.0,0.0,0.0,0.0,0.0,0.0,0.0,0.0,0.0,0.0,0.0,0.0,0.0,0.0,0.0,0.0,0.0,0.0,0.0,0.0,0.0,2.6215,2.5848,0.0,0.0,0.0,0.0,0.0,0.0,0.0,0.0,0.0,0.0,0.0,0.0,0.0,2.5808,2.5862,2.5437,2.5218,2.5218,2.5117,2.5084,2.5084,2.5045,2.4881,2.467,2.4715,0.0,2.5101,2.5159,0.0,0.0,0.0,0.0,0.0,0.0,0.0,0.0,0.0,0.0,0.0,0.0,0.0,0.0,0.0,0.0,0.0,0.0,0.0,0.0,0.0,2.8335,2.8636,2.8636,2.9044,2.9468,2.9858,2.9877,3.001,3.0324,3.0241,3.0191,3.0143,2.9984,2.9805,2.9617,2.9574,2.9535,2.9497,2.9564,2.9598,2.9608,2.9785,2.9789,2.9621,2.9575,0.0,0.0,0.0,0.0,0.0,0.0,0.0,0.0,0.0,0.0,0.0,0.0,0.0,0.0,0.0,0.0,0.0,0.0,0.0,0.0,0.0,0.0,0.0,0.0,0.0,0.0,0.0,0.0,0.0,0.0,0.0,0.0,0.0,0.0,0.0,0.0,0.0,0.0,0.0,2.6303,2.6285,2.6008,2.6194,2.6311,0.0,0.0,0.0,0.0,0.0,0.0,0.0,0.0,0.0,2.5848,2.5635,2.5511,2.5435,2.5397,2.5272,2.5039,2.5097,2.4983,2.4776,2.4666,2.4538,2.4436,2.4436,2.4518,2.4655,2.4855,2.4964,2.5042,0.0,0.0,0.0,0.0,2.5123,2.5128,0.0,0.0,0.0,0.0,0.0,0.0,0.0,0.0,0.0,0.0,0.0,0.0,2.849,2.9085,2.9476,2.9476,3.003,3.0376,3.0372,3.0372,3.0346,3.0257,3.0251,3.0225,3.0152,2.9946,2.9734,2.9488,2.9483,2.9472,2.9417,2.9458,2.9472,2.9477,2.9636,2.9697,2.9668,2.9455,0.0,0.0,0.0,0.0,0.0,0.0,0.0,0.0,0.0,0.0,0.0,0.0,0.0,0.0,0.0,0.0,0.0,0.0,0.0,0.0,0.0,0.0,0.0,0.0,0.0,0.0,0.0,0.0,0.0,0.0,0.0,0.0,0.0,0.0,0.0,0.0,0.0,0.0,0.0,2.6127,2.6198,2.6142,2.6132,2.6142,0.0,0.0,0.0,0.0,0.0,0.0,2.5855,2.5846,2.5708,2.5416,2.5272,2.5136,2.5035,2.5195,2.5117,2.4826,2.4924,2.4815,2.4518,2.4364,2.4384,2.4553,2.4553,2.4661,2.4831,2.4719,2.4744,2.4911,2.5164,2.5365,2.5513,2.5442,2.5422,2.547,0.0,0.0,0.0,0.0,0.0,0.0,0.0,0.0,0.0,0.0,0.0,2.9338,3.0105,3.0225,3.0241,3.0241,3.0276,3.0311,3.031,3.031,3.0319,3.0398,3.0206,3.0166,3.0283,3.0083,2.9893,2.9687,2.957,0.0,0.0,0.0,0.0,0.0,0.0,0.0,0.0,0.0,0.0,0.0,0.0,0.0,0.0,0.0,0.0,0.0,0.0,0.0,0.0,0.0,0.0,0.0,0.0,0.0,0.0,0.0,0.0,0.0,0.0,0.0,0.0,0.0,0.0,0.0,0.0,0.0,0.0,0.0,0.0,0.0,0.0,0.0,0.0,0.0,0.0,0.0,0.0,0.0,0.0,2.6017,2.5954,0.0,0.0,0.0,0.0,2.5917,2.5925,2.577,2.5444,2.5425,2.5419,2.5403,2.4914,2.4791,2.5081,2.462,2.4354,2.4333,2.4343,2.4333,2.4312,2.4302,2.4646,2.5261,2.5261,2.5656,2.6191,2.4877,2.4849,2.5649,2.5659,2.6161,2.6877,2.6681,2.6604,2.6587,0.0,0.0,0.0,0.0,0.0,0.0,0.0,0.0,2.9568,2.9876,2.9886,2.9981,3.0276,3.0257,3.0231,3.0231,3.0236,3.024,3.0231,3.0276,3.0267,3.0204,3.0228,3.016,3.0056,3.0015,2.9906,2.9707,2.9565,0.0,0.0,0.0,0.0,0.0,0.0,0.0,0.0,0.0,0.0,0.0,0.0,0.0,0.0,0.0,0.0,0.0,0.0,0.0,0.0,0.0,0.0,0.0,0.0,0.0,0.0,0.0,0.0,0.0,0.0,0.0,0.0,0.0,0.0,0.0,0.0,0.0,0.0,0.0,0.0,0.0,0.0,0.0,0.0,0.0,0.0,0.0,0.0,0.0,0.0,2.5936,2.5837,0.0,2.5715,2.564,2.552,2.5397,2.5355,2.5269,2.5152,2.5143,2.5058,2.4895,2.4695,2.4792,2.5217,2.53,2.544,2.5652,2.5918,2.5907,2.5641,2.5615,2.5694,2.5869,2.5869,2.5992,2.61,2.5612,2.5696,2.6147,2.6147,2.6298,2.6483,2.6409,2.6308,2.6294,0.0,0.0,0.0,0.0,0.0,0.0,0.0,0.0,3.0308,3.0308,3.0276,3.028,3.0273,3.0236,3.0197,3.0197,3.0199,3.0199,3.0207,3.0237,3.0243,3.0166,3.0257,3.0218,3.0011,3.0037,2.9946,0.0,0.0,0.0,0.0,0.0,0.0,0.0,0.0,0.0,0.0,0.0,0.0,0.0,0.0,0.0,2.9677,0.0,0.0,0.0,0.0,0.0,0.0,0.0,0.0,0.0,0.0,0.0,0.0,0.0,0.0,0.0,0.0,0.0,0.0,0.0,0.0,0.0,0.0,0.0,0.0,0.0,0.0,0.0,0.0,0.0,0.0,0.0,0.0,0.0,0.0,0.0,2.5715,2.567,2.5558,2.5463,2.5419,2.5545,2.5552,2.5407,2.5575,2.5646,2.5575,2.5564,2.5461,2.5222,2.5211,2.5365,2.5672,2.5938,2.6161,2.6346,2.6605,2.6576,2.6256,2.6229,2.6306,2.6462,2.623,2.6203,2.632,2.608,2.6093,2.6294,2.6501,2.6684,2.6813,2.6813,2.6743,2.6736,0.0,0.0,0.0,0.0,0.0,0.0,0.0,3.0308,3.0308,3.0308,3.0234,3.0207,3.0207,3.0202,3.0204,3.0208,3.0208,3.0199,3.0207,3.0211,3.0227,3.0286,3.0286,3.0286,3.0242,3.0223,3.0061,0.0,0.0,0.0,0.0,0.0,0.0,0.0,0.0,0.0,0.0,0.0,0.0,0.0,0.0,0.0,2.9749,0.0,0.0,0.0,0.0,0.0,0.0,0.0,0.0,0.0,0.0,0.0,0.0,0.0,0.0,0.0,0.0,0.0,0.0,0.0,0.0,0.0,0.0,0.0,0.0,0.0,0.0,0.0,0.0,0.0,0.0,0.0,0.0,0.0,2.5682,2.5535,2.5404,2.5265,2.5141,2.5088,2.5135,2.568,2.602,2.602,2.6614,2.689,2.6691,2.668,2.6592,2.638,2.6395,2.6395,2.6426,2.6426,2.6354,2.6226,2.6226,2.6157,2.5993,2.5993,2.6342,2.6933,2.6286,2.6358,2.692,2.6255,2.5982,2.6043,2.6703,2.7385,2.7949,2.7949,2.7965,2.7967,0.0,0.0,0.0,0.0,0.0,0.0,0.0,3.0266,3.024,3.0239,3.0206,3.0181,3.0128,3.0136,3.0136,3.0139,3.0123,3.0157,3.0199,3.02,3.0207,3.0239,3.0188,0.0,3.0998,3.0998,0.0,0.0,0.0,0.0,0.0,0.0,0.0,0.0,0.0,0.0,0.0,0.0,0.0,0.0,0.0,0.0,2.9526,0.0,0.0,0.0,0.0,0.0,0.0,0.0,0.0,0.0,0.0,0.0,0.0,0.0,0.0,0.0,0.0,0.0,0.0,0.0,0.0,0.0,0.0,0.0,0.0,0.0,0.0,0.0,0.0,0.0,0.0,0.0,0.0,2.6646,2.6308,2.6435,2.655,2.6503,2.6477,2.6409,2.6276,2.6416,2.645,2.6297,2.6461,2.6503,2.6353,2.6331,2.6278,2.6108,2.6108,2.6352,2.6839,2.6839,2.6812,2.677,2.677,2.6515,2.5997,2.5997,2.6042,2.6112,2.5943,2.59,2.596,2.578,2.5705,2.5758,2.6125,2.6637,2.7131,2.7131,2.7384,2.769,0.0,0.0,0.0,0.0,0.0,0.0,0.0,3.023,3.018,3.0167,3.016,3.0142,3.0102,3.0099,3.0106,3.0102,3.0106,3.0121,3.016,3.0159,3.0155,0.0,0.0,3.0822,3.129,3.1651,3.2055,0.0,0.0,0.0,0.0,0.0,0.0,0.0,0.0,0.0,0.0,0.0,0.0,0.0,0.0,0.0,2.932,2.9384,2.9212,2.8934,2.8838,2.8676,2.8479,2.8251,0.0,0.0,0.0,0.0,0.0,0.0,0.0,0.0,0.0,0.0,0.0,0.0,0.0,0.0,0.0,0.0,0.0,0.0,0.0,0.0,0.0,0.0,0.0,0.0,2.7225,2.7205,2.728,2.7056,2.6835,2.6722,2.6678,2.6616,2.6499,2.6683,2.6788,2.6662,2.691,2.704,2.6954,2.6942,2.6922,2.6839,2.6566,2.6608,2.7003,2.6714,2.6551,2.65,2.65,2.6253,2.5821,2.5821,2.5786,2.5698,2.5416,2.5242,2.5126,2.4843,2.4838,0.0,0.0,0.0,0.0,0.0,2.721,2.741,0.0,0.0,0.0,0.0,0.0,0.0,0.0,3.0185,3.0167,3.0105,3.0094,3.0098,3.0087,3.0084,3.0084,3.0091,3.0091,3.0083,3.0098,0.0,0.0,3.0224,3.0905,3.1373,3.1563,3.2323,3.2688,0.0,0.0,0.0,0.0,0.0,0.0,0.0,0.0,0.0,0.0,0.0,0.0,0.0,0.0,0.0,2.9173,2.9062,2.9005,2.8929,2.8556,2.8401,2.8324,2.7982,0.0,0.0,0.0,0.0,0.0,0.0,0.0,0.0,0.0,0.0,0.0,0.0,0.0,0.0,0.0,0.0,0.0,0.0,0.0,0.0,0.0,0.0,0.0,0.0,2.7359,2.7695,2.8295,2.7493,2.6764,2.6542,2.6455,2.6398,2.6398,2.6834,2.71,2.71,2.7658,2.798,2.798,0.0,0.0,0.0,0.0,2.6827,2.6815,2.6239,2.5822,2.5631,2.5631,2.5531,2.5344,2.5344,2.5344,2.5314,2.4705,2.4454,2.442,2.3822,2.3922,2.4572,2.5991,2.6551,2.6628,2.7174,2.7297,2.7207,0.0,0.0,0.0,0.0,0.0,0.0,0.0,3.0157,3.0105,3.0091,3.0053,2.9996,2.9948,2.9944,2.996,3.0018,3.0022,3.0042,0.0,0.0,3.033,3.1048,3.1178,3.1859,3.3206,3.3395,3.3799,0.0,0.0,0.0,0.0,0.0,0.0,0.0,0.0,0.0,0.0,0.0,0.0,0.0,0.0,0.0,2.9124,2.9096,2.901,2.8887,2.8582,2.8375,2.8187,2.7861,2.7735,2.7742,2.7793,0.0,0.0,0.0,0.0,0.0,0.0,0.0,0.0,0.0,0.0,0.0,0.0,0.0,0.0,0.0,0.0,0.0,0.0,0.0,0.0,2.8361,2.8193,2.8082,2.822,2.7948,2.7771,2.7825,2.7719,2.7649,2.7649,2.7746,2.781,2.781,2.7931,2.7943,2.784,2.733,2.698,2.6867,2.6222,2.5818,2.5708,2.5577,2.5202,2.4596,0.0,0.0,2.3733,2.3733,2.3733,2.3733,2.3615,2.3818,2.4245,2.4112,2.4761,2.5842,2.6155,2.6283,2.6357,2.7009,2.722,2.7181,0.0,0.0,0.0,0.0,0.0,0.0,0.0,3.0117,3.0087,3.0049,3.0022,2.9968,2.992,2.9893,2.9905,2.9948,2.9955,2.9947,0.0,2.9887,3.0227,3.107,3.1458,3.2237,3.3463,3.3939,3.4354,0.0,0.0,0.0,0.0,0.0,0.0,0.0,0.0,0.0,0.0,0.0,0.0,0.0,0.0,0.0,3.01,3.0137,2.9977,2.9727,2.9438,2.9179,2.8898,2.856,2.8448,2.8456,2.8488,2.857,2.8659,0.0,0.0,0.0,0.0,0.0,0.0,0.0,0.0,0.0,0.0,0.0,0.0,0.0,0.0,2.8982,2.8571,0.0,2.8653,2.8486,2.832,2.8174,2.8115,2.7977,2.7955,2.8091,2.798,2.7905,2.7905,2.784,2.7765,2.7705,2.739,2.7145,2.7009,2.6409,2.6027,2.5952,2.5304,2.4913,2.4854,2.4514,2.4166,2.3799,2.3799,2.3622,2.3297,2.3297,2.3297,2.3312,2.3625,2.3893,2.4191,2.4763,2.5397,2.6067,2.67,2.681,2.6639,2.6975,2.7067,2.6987,0.0,0.0,0.0,0.0,0.0,0.0,0.0,3.0091,3.0053,3.0011,2.9999,2.996,2.992,2.9893,2.9893,2.9893,2.9893,0.0,0.0,2.9741,3.0123,3.1086,3.1743,3.2555,3.3521,3.4245,3.4607,0.0,0.0,0.0,0.0,0.0,0.0,0.0,0.0,0.0,0.0,0.0,0.0,0.0,0.0,0.0,3.1529,3.1592,3.1199,3.0549,3.0231,2.9919,2.9642,2.9316,2.9202,2.9202,2.9202,2.9307,2.9446,2.9515,2.9368,0.0,0.0,0.0,0.0,0.0,0.0,0.0,0.0,0.0,2.9006,2.8936,2.8924,2.8854,2.8617,2.8554,2.8474,2.821,2.8137,2.8076,2.798,2.784,2.7803,2.7918,2.7828,2.7765,2.7765,2.7638,2.7526,2.7414,2.675,2.6317,2.6208,2.551,2.5121,2.5121,2.4569,2.4266,2.4269,2.3842,2.3625,2.3602,2.3602,2.3602,2.3602,2.3734,2.379,2.3823,2.4567,2.4833,2.4842,2.5879,2.6292,2.6367,2.741,2.7579,2.7237,2.7263,2.7197,2.7117,0.0,0.0,0.0,0.0,0.0,0.0,0.0,0.0,3.0014,3.0007,2.9948,2.9901,2.9897,2.9893,2.9893,2.9893,0.0,0.0,2.9803,2.9742,3.0387,3.1898,3.2048,3.2837,3.4419,3.4551,3.4607,0.0,0.0,0.0,0.0,0.0,0.0,0.0,0.0,0.0,0.0,0.0,0.0,0.0,0.0,0.0,3.3051,3.3132,3.209,3.052,2.9951,2.9725,2.9642,2.9316,2.9202,2.9202,2.9202,2.922,2.9237,2.9246,0.0,2.9356,3.0064,3.0173,2.9984,2.9467,2.9146,2.8888,0.0,0.0,2.8649,2.8353,2.8308,2.8259,2.8103,2.8079,2.8066,2.8029,2.793,2.784,2.7815,2.77,2.7625,2.7638,2.7625,2.7625,2.7625,2.7501,2.7427,2.7401,2.6665,2.6221,2.6196,2.5059,2.4407,2.4407,2.4281,2.4179,2.4127,2.4575,2.4752,2.4629,2.4682,2.4682,2.4643,2.5249,2.5521,2.5581,2.6791,2.7248,2.717,2.7835,2.8039,2.794,2.8083,2.8111,2.8082,2.8196,2.8224,2.8196,0.0,0.0,0.0,0.0,0.0,0.0,0.0,0.0,0.0,2.9944,2.9928,2.9893,2.9893,2.9893,2.9876,0.0,0.0,0.0,2.9626,2.9569,3.0037,3.1176,3.1675,3.2478,3.3635,3.4009,3.4191,0.0,0.0,0.0,0.0,0.0,0.0,0.0,0.0,0.0,0.0,0.0,0.0,0.0,0.0,0.0,3.3175,3.3003,3.2456,3.1716,3.1351,3.0941,0.0,0.0,3.0366,3.0366,3.0366,3.0366,3.0376,3.0415,3.0192,0.0,3.0028,2.9836,0.0,0.0,2.8967,2.8624,2.836,2.8356,2.8356,2.814,2.8091,2.8066,2.8005,2.8007,2.7967,0.0,2.784,2.7778,2.7688,2.7577,2.7488,2.7488,2.741,2.7412,2.7476,2.7361,2.7246,2.717,2.687,2.6618,2.6553,2.6042,2.5574,2.5194,2.5153,2.4953,2.4582,2.5155,2.54,2.5277,2.5654,2.5774,2.5684,2.5956,2.6272,2.6646,2.7177,2.7594,2.7939,2.8183,2.824,2.8226,2.8597,2.8725,2.8682,2.8397,2.8283,2.8283,0.0,0.0,0.0,0.0,0.0,0.0,0.0,0.0,0.0,0.0,2.9893,2.9884,2.9864,2.9878,2.9845,0.0,0.0,0.0,0.0,2.944,2.9744,3.0545,3.1134,0.0,3.2785,3.3244,3.3512,3.365,0.0,0.0,0.0,0.0,0.0,0.0,0.0,0.0,0.0,0.0,0.0,0.0,0.0,0.0,3.3047,3.2808,3.2613,3.2412,3.2197,3.1758,0.0,0.0,3.12,3.12,3.12,3.12,3.121,3.1271,3.0875,3.0372,3.0032,0.0,0.0,2.8993,2.8653,2.8262,2.8177,2.8137,2.81,2.7967,2.7943,2.793,2.7905,2.7893,2.7868,2.7765,2.7715,2.7653,2.7549,2.7425,2.735,2.735,2.7235,2.7255,2.751,2.7447,2.7355,2.7252,2.7199,2.7148,2.7054,2.6841,2.6482,2.6004,2.6124,2.5983,2.555,2.6155,2.642,2.6316,2.6762,2.6923,2.6827,2.6998,2.7412,2.7997,2.7997,2.8239,2.8638,2.8638,2.8609,2.8622,2.9076,2.9232,2.9175,2.875,2.8608,2.8638,0.0,0.0,0.0,0.0,0.0,0.0,0.0,0.0,0.0,0.0,0.0,0.0,0.0,0.0,0.0,0.0,0.0,0.0,0.0,2.944,2.9723,3.0474,3.053,3.1101,3.2301,3.2342,3.258,3.3039,0.0,0.0,0.0,0.0,0.0,0.0,0.0,0.0,0.0,0.0,0.0,0.0,0.0,0.0,3.3003,3.3055,3.2645,3.1985,3.172,0.0,0.0,0.0,3.12,3.12,3.12,3.12,0.0,3.12,3.0787,0.0,0.0,0.0,2.8709,2.8709,2.8362,2.802,2.802,2.802,2.7967,2.7828,2.7803,2.7778,2.7638,2.7612,2.7612,2.7612,2.7501,2.7414,2.7414,2.7284,2.7207,2.7207,2.7093,2.7237,0.0,2.7881,2.7881,2.7868,2.7762,2.7681,2.7666,2.6925,2.65,2.6472,2.6925,2.7142,2.7128,2.7783,2.814,2.8126,2.814,2.814,2.8168,2.8754,2.9381,3.001,3.001,2.9904,2.9752,2.9752,2.9673,2.9562,2.9574,2.9574,2.9574,2.956,2.9641,2.9721,0.0,0.0,0.0,0.0,0.0,0.0,0.0,0.0,0.0,0.0,0.0,0.0,0.0,0.0,0.0,0.0,0.0,0.0,0.0,2.8966,2.8965,2.9358,2.9667,3.0037,3.0426,3.0822,3.1367,3.199,0.0,0.0,0.0,0.0,0.0,0.0,0.0,0.0,0.0,0.0,0.0,0.0,0.0,0.0,3.2908,3.2654,3.242,3.2127,0.0,0.0,0.0,0.0,3.1042,3.1002,3.1002,0.0,0.0,3.062,3.014,2.9629,0.0,0.0,2.8232,2.8232,2.8128,2.798,2.7893,2.788,2.7828,2.7688,2.7663,2.765,2.7612,2.7539,2.7463,2.7463,2.7348,2.7271,2.7271,2.7157,2.7067,2.7067,2.7303,0.0,0.0,0.0,0.0,2.8206,2.8611,2.8757,2.8641,2.8799,2.8684,2.824,2.8383,2.8268,2.7883,2.8482,2.8752,2.8677,2.8984,2.9136,2.9136,2.9348,2.956,2.9772,2.9772,2.9727,2.9666,2.9666,2.9649,2.9587,2.9587,2.9587,2.9587,2.9587,2.9634,2.9651,0.0,0.0,0.0,0.0,0.0,0.0,0.0,0.0,0.0,0.0,0.0,0.0,0.0,0.0,0.0,0.0,0.0,0.0,0.0,0.0,2.8767,2.8943,2.9112,2.9278,2.943,2.9681,3.0284,3.1207,3.1207,0.0,0.0,0.0,0.0,0.0,0.0,0.0,0.0,0.0,0.0,0.0,0.0,0.0,3.2437,3.2179,3.1994,0.0,0.0,0.0,0.0,0.0,0.0,3.0902,3.0902,3.0902,3.0841,3.0537,3.006,2.9512,2.9019,2.8499,2.8073,2.7903,2.7868,2.7828,2.7753,2.774,2.769,2.7549,2.7562,2.7575,2.7473,2.7425,2.7389,2.735,2.7222,2.7131,2.7131,2.7002,2.6999,2.7165,2.7435,2.7746,0.0,0.0,0.0,2.8627,2.9273,2.9587,2.9468,2.9792,2.979,2.9362,2.9303,2.9088,2.8706,2.9088,2.9241,2.9148,2.9466,2.9587,2.9587,2.9587,2.9587,2.9587,2.9587,2.9587,2.9587,2.9587,2.9587,2.9587,2.9587,2.9587,2.9587,2.9587,2.9587,2.9587,0.0,0.0,0.0,0.0,0.0,0.0,0.0,0.0,0.0,0.0,0.0,0.0,0.0,0.0,0.0,0.0,0.0,0.0,0.0,0.0,0.0,2.9139,2.8827,2.8829,2.9187,2.8886,2.9337,3.0584,3.0584,0.0,0.0,0.0,0.0,0.0,0.0,0.0,0.0,0.0,0.0,0.0,0.0,0.0,3.1723,3.1677,0.0,0.0,0.0,0.0,0.0,0.0,0.0,0.0,0.0,3.0881,3.0881,3.0881,3.0458,2.9865,2.9329,2.876,2.8195,2.771,2.7587,2.7587,2.7587,2.7575,2.7537,2.7427,2.7488,2.7499,0.0,0.0,2.7337,2.7207,2.708,2.699,2.699,2.6886,2.6972,0.0,0.0,0.0,0.0,0.0,0.0,2.9123,0.0,3.008,3.0065,2.9898,2.9777,2.9777,2.9666,2.9587,2.9587,2.9587,2.9587,2.9587,2.9587,2.9587,2.9587,2.9587,2.9587,2.9587,2.9571,2.9571,2.9587,2.9571,2.9571,2.9587,2.9587,2.9587,2.9571,2.9571,2.9556,2.954,0.0,0.0,0.0,0.0,0.0,0.0,0.0,0.0,0.0,0.0,0.0,0.0,0.0,0.0,0.0,0.0,0.0,0.0,0.0,0.0,0.0,0.0,0.0,0.0,0.0,0.0,0.0,0.0,0.0,2.9661,0.0,0.0,0.0,0.0,0.0,0.0,0.0,0.0,0.0,0.0,0.0,0.0,3.2083,0.0,0.0,0.0,0.0,0.0,0.0,0.0,0.0,0.0,0.0,3.0599,3.0599,3.0599,3.0258,2.9739,2.9253,2.8717,2.8158,2.7587,2.745,2.7425,2.7308,2.7295,2.7297,2.7258,2.7284,2.7284,0.0,0.0,0.0,2.7068,2.6951,0.0,2.6859,2.6819,0.0,2.7431,0.0,2.8369,2.8905,2.9358,0.0,0.0,2.9707,2.9837,2.9727,2.968,2.9651,2.9651,2.9618,2.9587,2.9587,2.9587,2.9587,2.9587,2.9587,2.9587,2.9587,2.9587,2.9587,2.9587,2.9336,2.9368,2.9571,2.932,2.9368,2.9587,2.9587,2.9446,2.9226,2.9226,2.9067,2.8844,0.0,0.0,0.0,0.0,0.0,0.0,0.0,0.0,0.0,0.0,0.0,0.0,0.0,0.0,0.0,0.0,0.0,0.0,0.0,0.0,0.0,0.0,0.0,0.0,0.0,0.0,0.0,0.0,0.0,0.0,0.0,0.0,0.0,0.0,0.0,0.0,0.0,0.0,0.0,0.0,0.0,0.0,0.0,0.0,0.0,0.0,0.0,0.0,0.0,0.0,0.0,3.0506,3.0506,3.0506,3.0506,3.0506,0.0,2.9601,2.9131,2.8579,2.7987,2.7448,2.731,2.7284,2.722,2.7207,2.7181,2.7117,2.7155,0.0,0.0,0.0,0.0,0.0,0.0,0.0,2.6792,2.6986,2.7284,0.0,2.8283,0.0,2.9178,2.9515,2.9682,0.0,2.9666,2.9682,2.9602,2.9587,2.9587,2.9587,2.9587,2.9587,2.9587,2.9587,2.9587,2.9587,2.9446,2.9383,2.9383,2.9226,2.9162,2.9162,0.0,2.9115,2.9162,2.9115,2.9115,2.9162,2.9162,2.9051,2.8876,2.8876,2.8764,2.8603,0.0,0.0,0.0,0.0,0.0,0.0,0.0,0.0,0.0,0.0,0.0,0.0,0.0,0.0,0.0,0.0,0.0,0.0,0.0,0.0,0.0,0.0,0.0,0.0,0.0,0.0,0.0,0.0,0.0,0.0,0.0,0.0,0.0,0.0,0.0,0.0,0.0,0.0,0.0,0.0,0.0,0.0,0.0,0.0,0.0,0.0,0.0,0.0,0.0,0.0,3.0495,3.0495,3.0495,3.0468,3.0464,3.0464,3.0043,2.9473,2.8993,2.84,2.7777,2.7295,2.7168,2.7168,2.7155,2.7143,2.7104,2.7003,0.0,2.7093,2.6832,2.6899,2.6938,2.6819,0.0,2.6779,2.6766,2.7196,2.7679,2.8126,2.8606,2.908,2.9546,2.9587,2.9587,2.9587,2.9587,2.9587,2.9587,2.9587,2.9587,2.9587,2.9556,2.9524,2.9524,2.9493,2.9462,2.9462,2.9226,2.9083,2.9035,2.878,2.8635,2.8603,2.886,2.8828,2.8619,2.8876,2.8812,2.8603,2.8603,2.8571,2.8522,2.8522,2.8506,2.8457,0.0,0.0,0.0,0.0,0.0,0.0,0.0,0.0,0.0,0.0,2.8986,2.8664,0.0,0.0,0.0,0.0,0.0,0.0,0.0,0.0,0.0,0.0,0.0,0.0,0.0,0.0,0.0,0.0,0.0,0.0,0.0,0.0,0.0,0.0,0.0,0.0,0.0,0.0,0.0,0.0,0.0,0.0,0.0,0.0,0.0,0.0,0.0,0.0,0.0,0.0,3.0428,3.0428,3.0428,3.0338,3.0253,3.0253,2.9859,2.9327,2.8861,2.834,2.7752,2.7181,2.7029,2.7016,2.6884,2.6871,0.0,0.0,0.0,2.6858,2.6806,2.6819,0.0,2.6792,0.0,0.0,0.0,0.0,2.7623,0.0,0.0,0.0,0.0,0.0,0.0,0.0,0.0,2.9587,2.9587,2.9587,2.9587,2.9587,2.932,2.9194,2.9194,2.8908,2.8764,2.878,2.9004,2.8956,2.8683,2.8908,2.886,2.8587,2.8373,0.0,2.8571,2.8357,2.8406,2.8603,2.8603,2.8438,2.8194,2.8194,2.7967,2.7703,0.0,0.0,0.0,0.0,0.0,0.0,0.0,2.9725,2.9532,2.9329,2.9073,2.8755,2.8393,2.832,0.0,0.0,0.0,0.0,0.0,0.0,0.0,0.0,0.0,0.0,0.0,0.0,0.0,0.0,0.0,0.0,0.0,0.0,0.0,0.0,0.0,0.0,0.0,0.0,0.0,0.0,0.0,0.0,0.0,0.0,0.0,0.0,0.0,0.0,0.0,0.0,3.0348,3.0301,3.0301,3.0242,3.0199,3.0199,2.9611,2.8884,2.8665,2.7978,2.7255,2.6976,2.6899,2.6886,2.6806,0.0,0.0,0.0,0.0,2.6792,2.6792,0.0,0.0,0.0,0.0,0.0,0.0,0.0,0.0,0.0,0.0,0.0,0.0,0.0,0.0,0.0,0.0,2.9587,2.9587,2.9587,2.9587,2.9587,2.943,2.9352,2.9352,2.9035,2.886,2.886,2.8667,2.8503,2.8341,2.8281,2.8183,2.8033,2.8079,0.0,2.8033,2.8079,2.8079,2.8033,2.8033,2.7934,2.7786,2.7786,2.7669,2.749,0.0,0.0,0.0,0.0,0.0,0.0,0.0,2.9725,2.9532,2.9329,2.9125,2.8851,2.8465,2.836,2.8286,0.0,0.0,0.0,0.0,0.0,0.0,0.0,0.0,0.0,0.0,0.0,0.0,0.0,0.0,0.0,0.0,0.0,0.0,0.0,0.0,0.0,0.0,0.0,0.0,0.0,0.0,0.0,0.0,0.0,0.0,0.0,0.0,0.0,0.0,0.0,3.0242,3.0146,3.0152,3.0141,3.0103,3.0006,2.9325,2.8606,2.8487,2.772,2.6948,2.6948,2.687,2.6792,2.6792,2.6792,0.0,0.0,2.6792,2.6792,2.6792,0.0,0.0,0.0,0.0,0.0,0.0,0.0,0.0,0.0,0.0,0.0,0.0,0.0,0.0,0.0,0.0,0.0,2.9493,2.9415,2.9383,2.9383,2.932,2.9273,2.9273,2.8926,2.875,2.875,2.8311,2.8046,2.7964,2.7736,2.7586,2.752,2.7835,0.0,2.7523,2.7848,2.7786,2.749,2.749,2.749,2.749,2.749,2.749,2.749,0.0,0.0,0.0,0.0,0.0,0.0,0.0,2.9725,2.9532,2.9329,2.9125,2.8869,2.8524,2.8432,2.836,0.0,0.0,0.0,0.0,0.0,0.0,0.0,0.0,0.0,0.0,0.0,0.0,0.0,0.0,0.0,0.0,0.0,0.0,0.0,0.0,0.0,0.0,0.0,0.0,0.0,0.0,0.0,0.0,0.0,0.0,0.0,0.0,0.0,0.0,0.0,0.0,3.0006,2.9946,2.9924,2.9836,2.9341,0.0,0.0,2.8448,2.7889,2.7439,2.7439,2.7113,2.6792,2.6792,0.0,0.0,2.6792,2.6792,2.6792,2.6792,2.6792,0.0,0.0,0.0,0.0,0.0,0.0,0.0,0.0,0.0,0.0,0.0,0.0,0.0,0.0,0.0,0.0,2.9147,2.886,2.8683,2.8683,2.8406,2.8243,2.8243,2.7838,2.764,2.764,2.7947,2.7914,2.757,2.7898,2.7835,2.749,2.7536,0.0,0.0,2.7536,2.7523,2.749,2.749,2.749,2.749,2.749,2.749,2.749,0.0,0.0,0.0,0.0,0.0,0.0,2.9716,2.945,2.9204,2.913,2.8916,2.8718,2.8581,2.8504,2.8419,2.8313,0.0,0.0,0.0,0.0,0.0,0.0,0.0,0.0,0.0,0.0,0.0,0.0,0.0,0.0,0.0,0.0,0.0,0.0,0.0,0.0,0.0,0.0,0.0,0.0,0.0,0.0,0.0,0.0,0.0,0.0,0.0,0.0,0.0,0.0,0.0,0.0,2.9913,2.9676,0.0,0.0,2.912,2.8579,2.8364,2.769,2.7089,2.7089,2.6948,2.6792,2.6792,0.0,0.0,2.6792,2.6792,2.6792,2.6792,2.6792,2.6766,0.0,0.0,0.0,0.0,0.0,0.0,0.0,0.0,0.0,0.0,0.0,0.0,0.0,0.0,0.0,2.8506,2.8554,2.8603,2.8603,2.8471,2.8406,2.8406,2.8033,2.7852,2.7852,2.8142,2.8198,2.8059,2.858,2.872,2.8582,2.8582,0.0,0.0,2.8582,2.8582,2.8582,2.8582,2.8582,2.8582,2.8582,2.8582,2.8582,0.0,0.0,0.0,0.0,0.0,2.9584,2.9528,2.9214,2.8997,2.8997,2.8779,2.86,2.86,2.8562,2.8473,2.8373,2.8327,0.0,0.0,0.0,0.0,0.0,0.0,0.0,0.0,0.0,0.0,0.0,0.0,0.0,0.0,0.0,0.0,0.0,0.0,0.0,0.0,0.0,0.0,0.0,0.0,0.0,0.0,0.0,0.0,0.0,0.0,0.0,0.0,0.0,0.0,0.0,0.0,0.0,0.0,0.0,2.9005,2.8472,2.8143,2.7668,2.7218,2.705,2.6896,2.6792,0.0,0.0,2.6792,2.6792,2.6792,2.6792,2.6792,2.6738,2.6658,0.0,0.0,0.0,0.0,0.0,0.0,0.0,0.0,0.0,0.0,0.0,0.0,0.0,0.0,0.0,2.8216,2.8575,2.8641,2.8292,2.844,2.8533,2.8533,2.8489,2.8448,2.8461,2.8602,2.8664,2.8678,2.9109,2.9292,2.9292,2.9292,0.0,0.0,2.9292,2.9292,2.9292,2.9292,2.9292,2.9292,2.9292,2.9292,2.9292,0.0,0.0,0.0,0.0,0.0,0.0,2.9334,2.913,2.8997,2.8997,2.8779,2.86,2.86,2.86,2.8574,2.8499,2.8386,0.0,0.0,0.0,0.0,0.0,0.0,0.0,0.0,0.0,0.0,0.0,0.0,0.0,0.0,0.0,0.0,0.0,0.0,0.0,0.0,0.0,0.0,0.0,0.0,0.0,0.0,0.0,0.0,0.0,0.0,0.0,0.0,0.0,0.0,0.0,0.0,0.0,0.0,0.0,2.8685,2.8865,2.7802,2.7901,2.8155,2.764,2.7139,2.6792,0.0,0.0,2.6792,2.6792,2.6792,2.6792,2.6792,2.6645,2.6497,2.6497,0.0,0.0,0.0,0.0,0.0,0.0,0.0,0.0,0.0,0.0,0.0,0.0,0.0,0.0,2.8407,2.897,2.8743,2.7546,2.8089,2.8407,2.8407,2.8996,2.9279,2.9279,2.9279,2.9292,2.9292,2.9292,2.9292,2.9292,0.0,0.0,0.0,2.9292,2.9292,2.9292,2.9292,2.9292,2.9292,2.9292,2.9292,2.9292,0.0,0.0,0.0,0.0,0.0,0.0,0.0,2.8893,2.8737,2.8737,2.865,2.86,2.86,2.86,2.8587,2.8574,2.8497,0.0,0.0,0.0,0.0,0.0,0.0,0.0,0.0,0.0,0.0,2.8196,2.7965,0.0,0.0,0.0,0.0,0.0,0.0,0.0,0.0,0.0,0.0,0.0,0.0,0.0,0.0,0.0,0.0,0.0,0.0,0.0,0.0,0.0,0.0,0.0,0.0,0.0,0.0,2.84,0.0,0.0,2.7688,2.7378,2.7229,2.7063,2.6909,2.6792,2.6792,0.0,2.6792,2.6792,2.6792,2.6792,2.6792,2.6738,2.6633,2.6406,2.6286,0.0,0.0,0.0,0.0,0.0,0.0,0.0,0.0,0.0,0.0,0.0,0.0,0.0,2.9549,2.974,2.9492,2.8752,2.8913,2.9201,2.9557,2.9397,2.947,2.9844,2.9844,2.9844,2.9857,3.0268,3.0469,0.0,0.0,0.0,3.0469,3.0469,3.0469,3.0469,3.0469,3.0469,3.0469,3.0469,3.0469,3.0469,0.0,0.0,0.0,0.0,0.0,0.0,0.0,2.8718,2.86,2.86,2.86,2.86,2.86,2.86,2.86,2.86,2.8562,0.0,0.0,0.0,0.0,0.0,0.0,0.0,0.0,0.0,2.814,2.8018,2.8081,2.7996,2.7747,0.0,0.0,0.0,0.0,0.0,0.0,0.0,0.0,0.0,0.0,0.0,3.0432,0.0,0.0,0.0,0.0,0.0,0.0,0.0,0.0,0.0,0.0,0.0,0.0,0.0,2.7997,2.7901,0.0,2.7152,2.7024,2.6845,2.6792,0.0,0.0,0.0,2.6792,2.6792,2.6792,2.6792,2.6792,2.67,2.6527,2.6327,2.6418,0.0,0.0,0.0,0.0,0.0,0.0,0.0,0.0,0.0,0.0,0.0,0.0,0.0,3.0438,3.085,3.0934,3.06,3.0359,3.0393,3.074,3.0406,3.0406,3.074,3.0537,3.0432,3.0445,3.083,3.1005,0.0,0.0,3.1005,0.0,3.1005,3.1005,3.1005,3.1005,3.1005,3.1005,3.1005,3.1005,3.1005,0.0,0.0,0.0,0.0,0.0,0.0,0.0,2.86,2.86,2.86,2.86,2.86,2.86,2.86,2.86,2.86,0.0,0.0,0.0,0.0,0.0,0.0,0.0,0.0,0.0,2.8175,2.8035,2.7789,2.8425,2.8434,2.7883,2.8598,2.9099,0.0,0.0,0.0,0.0,0.0,0.0,0.0,3.0506,3.0506,0.0,0.0,0.0,0.0,0.0,0.0,0.0,0.0,0.0,0.0,0.0,0.0,0.0,0.0,0.0,0.0,0.0,2.7113,2.7352,2.6909,2.6792,2.6792,0.0,0.0,0.0,0.0,2.6792,2.6792,2.6779,2.6514,2.6313,2.6286,2.658,0.0,0.0,0.0,0.0,0.0,0.0,0.0,0.0,0.0,0.0,0.0,0.0,0.0,3.1188,3.2195,3.2777,3.2836,3.2274,3.1967,3.1928,3.185,3.1823,3.1863,3.1274,3.1005,3.1005,3.1005,3.1005,0.0,0.0,3.1005,3.1005,3.1005,3.1005,3.1005,3.1005,3.1005,3.1005,3.1005,3.1005,3.1005,0.0,0.0,0.0,0.0,0.0,0.0,0.0,0.0,0.0,0.0,2.86,2.86,2.86,2.86,2.86,0.0,0.0,0.0,0.0,0.0,0.0,0.0,0.0,0.0,0.0,2.8028,2.811,2.8533,2.8198,2.8244,2.865,2.9082,2.9321,2.9413,2.9992,0.0,0.0,0.0,0.0,0.0,3.0506,3.0506,0.0,0.0,0.0,0.0,3.0506,3.0432,0.0,0.0,0.0,0.0,0.0,0.0,0.0,0.0,2.7253,2.6948,2.6832,0.0,2.6948,2.6832,2.6792,2.6792,0.0,0.0,0.0,0.0,0.0,2.6738,2.6591,2.6511,2.6392,2.6178,2.6607,2.7145,0.0,0.0,0.0,0.0,0.0,0.0,0.0,0.0,0.0,0.0,0.0,3.2013,3.2934,3.3234,3.3574,3.3979,3.3862,3.36,3.3182,3.2254,3.2039,3.2476,3.1489,3.1005,3.1005,3.1005,3.1005,0.0,3.1005,3.1005,3.1005,3.1005,3.1005,3.1005,3.1005,3.1005,3.1005,3.1005,3.1005,3.1005,0.0,0.0,0.0,0.0,0.0,0.0,0.0,0.0,0.0,0.0,0.0,0.0,0.0,0.0,0.0,0.0,0.0,0.0,0.0,0.0,0.0,0.0,0.0,0.0,0.0,2.8248,2.8333,2.8851,2.8813,2.8921,2.9145,2.9663,2.9893,2.992,3.0323,0.0,0.0,0.0,0.0,0.0,3.0506,0.0,0.0,0.0,0.0,0.0,3.0506,3.0422,0.0,3.0011,2.9766,2.9454,0.0,0.0,0.0,0.0,2.6998,2.6792,2.6792,2.6792,2.6792,2.6792,2.6792,2.6792,2.6792,0.0,0.0,0.0,0.0,0.0,2.651,0.0,0.0,2.6493,2.699,0.0,0.0,0.0,0.0,0.0,0.0,0.0,0.0,0.0,0.0,0.0,0.0,3.2921,3.3581,3.3822,3.4097,3.4384,3.4397,3.4254,3.3966,3.2796,3.2385,3.2692,3.1535,3.1005,3.1005,3.1005,3.1005,0.0,3.1005,3.1005,3.1005,3.1005,3.1005,3.1005,3.1005,3.1005,3.1005,3.1005,3.1005,3.1005,0.0,0.0,0.0,0.0,0.0,0.0,0.0,0.0,0.0,0.0,0.0,0.0,0.0,0.0,0.0,0.0,0.0,0.0,0.0,0.0,0.0,0.0,0.0,2.846,2.9029,2.8693,2.8708,2.9082,2.964,2.978,2.9579,3.0218,3.0506,3.0506,3.0506,0.0,0.0,0.0,0.0,0.0,3.0506,0.0,0.0,0.0,0.0,0.0,0.0,0.0,0.0,2.9744,2.9393,2.8982,2.8015,0.0,0.0,0.0,0.0,0.0,2.6792,2.6792,2.6792,2.6792,2.6792,2.6792,0.0,0.0,0.0,0.0,0.0,0.0,0.0,0.0,0.0,0.0,0.0,0.0,0.0,0.0,0.0,0.0,0.0,0.0,0.0,0.0,0.0,0.0,0.0,3.3647,3.3705,3.4149,3.4397,3.4397,3.4397,3.4397,3.4397,3.326,3.2685,3.2692,3.1535,3.1005,3.1005,3.1005,3.1005,3.1005,0.0,0.0,3.1117,3.1117,3.1169,3.1267,3.1267,3.1267,3.1267,3.1267,3.1267,3.1267,0.0,0.0,0.0,0.0,0.0,0.0,0.0,0.0,0.0,0.0,0.0,0.0,0.0,0.0,0.0,0.0,0.0,0.0,0.0,0.0,0.0,0.0,2.913,2.927,2.9654,2.9214,2.9301,2.991,2.9627,2.9772,3.0323,3.0456,3.0506,3.0506,3.0506,3.0506,0.0,0.0,0.0,3.0506,3.0506,0.0,0.0,0.0,0.0,0.0,0.0,0.0,0.0,2.9799,2.9478,2.9157,2.8049,0.0,0.0,0.0,0.0,0.0,2.6792,2.6792,2.6792,2.6792,2.6792,2.6792,0.0,0.0,0.0,0.0,0.0,0.0,0.0,0.0,0.0,0.0,0.0,0.0,0.0,0.0,0.0,0.0,0.0,0.0,0.0,0.0,0.0,0.0,0.0,3.3796,3.4241,3.4358,3.4397,3.4397,3.4397,3.4397,3.4397,3.326,3.2685,3.2692,3.1535,3.1005,3.1005,3.1005,3.1005,3.1005,0.0,3.1261,3.168,3.168,3.1973,3.2437,3.2437,3.2437,3.2437,3.2437,3.2437,3.2437,0.0,0.0,0.0,0.0,0.0,0.0,0.0,0.0,0.0,0.0,0.0,0.0,0.0,0.0,0.0,0.0,0.0,0.0,0.0,0.0,0.0,0.0,3.0545,3.0421,3.0128,2.9665,2.9748,3.0418,3.0145,3.0174,3.0506,3.0506,3.0506,3.0506,3.0506,3.0506,3.0506,3.0506,3.0506,3.0506,0.0,0.0,0.0,0.0,0.0,0.0,0.0,0.0,0.0,0.0,2.8896,2.8348,2.7572,0.0,0.0,0.0,0.0,0.0,2.6792,2.6792,2.6792,2.6792,2.6792,0.0,0.0,0.0,0.0,0.0,0.0,0.0,0.0,0.0,0.0,0.0,0.0,0.0,0.0,0.0,0.0,0.0,0.0,0.0,0.0,0.0,0.0,0.0,0.0,0.0,3.4384,3.4397,3.4397,3.4397,3.4397,3.4397,3.4397,3.3587,3.3012,3.2685,3.1849,3.1425,3.1425,3.1425,3.1614,3.1934,0.0,3.2058,3.2287,3.2287,3.245,3.2685,3.2685,3.2685,3.2685,3.2685,3.2685,3.2685,0.0,0.0,0.0,0.0,0.0,0.0,0.0,0.0,0.0,0.0,0.0,0.0,0.0,0.0,0.0,0.0,0.0,0.0,0.0,0.0,3.1279,3.1581,3.1614,3.1336,3.0723,3.0306,3.0301,3.0743,3.0589,3.0506,3.0506,3.0506,3.0506,3.0506,3.0506,3.0506,3.0506,3.0506,3.0506,3.0506,0.0,0.0,0.0,0.0,0.0,0.0,0.0,0.0,0.0,0.0,0.0,0.0,0.0,0.0,0.0,2.6792,2.6792,2.6792,2.6792,2.6792,2.6792,2.6792,0.0,0.0,0.0,0.0,0.0,0.0,0.0,0.0,0.0,0.0,0.0,0.0,0.0,0.0,0.0,0.0,0.0,0.0,0.0,0.0,0.0,0.0,0.0,0.0,0.0,0.0,3.4397,3.4397,3.4397,3.4397,3.4397,3.4397,3.4397,3.3979,3.3483,3.2894,3.23,3.2006,3.2006,3.2006,3.2261,3.2685,3.2685,3.2777,3.2914,3.2914,3.2973,3.3111,3.3111,3.3111,3.3111,3.3111,3.3111,3.3111,0.0,0.0,0.0,0.0,0.0,0.0,0.0,0.0,0.0,0.0,0.0,0.0,0.0,0.0,0.0,0.0,0.0,0.0,0.0,0.0,3.1579,3.1609,3.1663,3.1681,3.1617,3.1395,3.116,3.0892,3.063,3.0506,3.0506,3.0506,3.0506,3.0506,3.0506,3.0506,3.0506,3.0506,3.0506,3.0506,3.0506,0.0,0.0,0.0,0.0,0.0,0.0,0.0,0.0,0.0,0.0,0.0,0.0,0.0,2.6792,2.6792,2.6792,2.6792,2.6792,2.6792,2.6792,2.6792,0.0,0.0,0.0,0.0,0.0,0.0,0.0,0.0,0.0,0.0,0.0,0.0,0.0,0.0,0.0,0.0,0.0,0.0,0.0,0.0,0.0,0.0,0.0,0.0,0.0,0.0,3.4397,3.4397,3.4397,3.4397,3.4397,3.4397,3.4397,3.4358,3.4071,3.3522,3.2921,3.2633,3.2633,3.2633,3.2659,3.2685,3.2685,3.3032,3.3535,3.3535,3.3822,3.428,3.428,3.428,3.428,3.428,3.428,3.428,0.0,0.0,0.0,0.0,0.0,0.0,0.0,0.0,0.0,0.0,0.0,0.0,0.0,0.0,0.0,0.0,0.0,0.0,0.0,0.0,3.2727,3.2727,3.2696,3.257,3.2326,3.1509,3.0988,3.078,3.0599,3.0506,3.0506,3.0506,3.0506,3.0506,3.0506,3.0506,3.0506,3.0506,3.0506,3.0506,3.0506,3.0506,0.0,0.0,0.0,0.0,0.0,0.0,0.0,0.0,2.799,2.7547,2.7041,2.6846,2.6792,2.6792,2.6792,2.6792,2.6792,2.6792,2.6792,2.6792,0.0,0.0,0.0,0.0,0.0,0.0,0.0,0.0,0.0,0.0,0.0,0.0,0.0,0.0,0.0,0.0,0.0,0.0,0.0,3.2275,3.2352,3.3104,0.0,0.0,0.0,0.0,3.4397,3.4397,3.4397,3.4397,3.4397,3.4397,3.4397,3.3979,3.3678,3.346,3.3339,3.3247,3.3247,3.3247,3.343,3.3757,3.3757,3.3888,3.4097,3.4097,3.4214,3.4397,3.4397,3.4397,3.4397,3.4397,3.4397,3.4397,0.0,0.0,0.0,0.0,0.0,0.0,0.0,0.0,0.0,0.0,0.0,0.0,0.0,0.0,0.0,0.0,0.0,0.0,0.0,3.3085,3.3393,3.3393,3.3127,3.2834,3.2486,3.1432,3.0895,3.0888,3.064,3.0506,3.0506,3.0506,3.0506,3.0506,3.0506,3.0506,3.0506,3.0506,3.0506,3.0506,3.0506,3.0506,0.0,0.0,0.0,0.0,0.0,0.0,0.0,0.0,2.782,2.7384,2.695,2.6792,2.6792,2.6792,2.6792,2.6792,2.6792,2.6792,2.6792,0.0,0.0,0.0,0.0,0.0,0.0,0.0,0.0,0.0,0.0,0.0,0.0,0.0,0.0,0.0,0.0,0.0,3.2268,3.2202,3.2241,3.2463,3.2941,3.3496,3.4005,3.4371,3.4209,3.4084,3.4084,3.3848,3.3839,3.4084,3.4084,3.4189,3.4397,3.3937,3.3717,3.3725,3.3812,3.3746,3.354,3.3766,3.4045,3.4397,3.4397,3.4397,3.4397,3.4397,3.4397,3.4397,3.4397,3.4397,3.4397,3.4397,3.4397,3.4397,0.0,0.0,0.0,0.0,0.0,0.0,0.0,0.0,0.0,0.0,0.0,0.0,0.0,0.0,0.0,0.0,0.0,0.0,0.0,3.3393,3.3393,3.3393,3.2702,3.2214,3.2012,3.1276,3.1035,3.1295,3.0767,3.0506,3.0506,3.0506,0.0,0.0,3.0506,3.0506,3.0506,3.0506,3.0506,3.0506,3.0506,3.0506,3.0506,0.0,0.0,0.0,0.0,0.0,0.0,0.0,2.8475,2.8298,2.7168,2.6792,2.6792,2.6792,2.6792,2.6792,2.6792,2.6792,0.0,0.0,0.0,0.0,0.0,0.0,0.0,0.0,0.0,0.0,0.0,0.0,0.0,0.0,0.0,0.0,0.0,3.2704,3.2618,3.2431,3.2929,3.3377,3.3575,3.4084,3.4397,3.4397,3.3789,3.342,3.342,3.2717,3.2639,3.3398,3.342,3.3725,3.4397,3.4397,3.4397,3.4397,3.4397,3.4042,3.3441,3.4105,3.4397,3.4397,3.4397,3.4397,3.4397,3.4397,3.4397,3.4397,3.4397,3.4397,3.4397,3.4397,3.4397,3.4397,0.0,0.0,0.0,0.0,0.0,0.0,0.0,0.0,0.0,0.0,0.0,0.0,0.0,0.0,0.0,0.0,0.0,0.0,0.0,3.3393,3.3393,3.3393,3.2862,3.2537,3.2411,3.1509,3.0942,3.0747,3.0572,3.0506,3.0506,0.0,0.0,3.0506,0.0,0.0,3.0506,3.0506,3.0506,3.0506,3.0506,3.0506,3.0506,0.0,0.0,0.0,0.0,0.0,0.0,0.0,0.0,0.0,2.691,2.6792,2.6792,2.6792,2.6792,2.6792,2.6792,2.6792,0.0,0.0,0.0,0.0,0.0,0.0,0.0,0.0,0.0,0.0,0.0,0.0,0.0,0.0,0.0,0.0,3.2694,3.2572,3.2466,3.2408,3.3047,3.3532,3.3594,3.4084,3.4397,3.4397,3.4209,3.4105,3.4105,3.3903,3.3882,3.4105,3.4105,3.4209,3.4397,3.3937,3.3704,3.3704,3.3704,3.3831,3.4105,3.4314,3.4397,3.4397,3.4397,3.4397,3.4397,3.4397,3.4397,3.4397,3.4397,3.4397,3.4397,3.4397,3.4397,3.4397,0.0,0.0,0.0,0.0,0.0,0.0,0.0,0.0,0.0,0.0,3.255,3.2771,0.0,0.0,0.0,0.0,0.0,0.0,3.3393,3.3393,3.3334,3.317,3.2766,3.2343,3.1931,3.123,3.074,3.0506,3.0506,3.0506,3.0506,0.0,3.0506,3.0506,0.0,3.0506,3.0506,3.0506,3.0506,3.0506,3.0506,3.0506,3.0506,0.0,0.0,0.0,0.0,0.0,0.0,0.0,0.0,0.0,2.6858,0.0,2.6792,2.6792,2.6792,2.6792,2.6792,0.0,0.0,0.0,0.0,0.0,0.0,0.0,0.0,0.0,0.0,0.0,0.0,0.0,0.0,0.0,0.0,0.0,3.2489,3.2422,3.242,3.2505,3.3172,3.3679,3.3888,3.4201,3.4397,3.4397,3.4147,3.4,3.4,3.3721,3.37,3.4,3.4,3.4126,3.4397,3.4,3.3789,3.3789,3.3789,3.4,3.4397,3.4397,3.4397,3.4397,3.4397,3.4397,3.4397,3.4397,3.4397,3.4397,3.4397,3.4397,3.4397,3.4397,3.4397,3.4397,0.0,0.0,3.1611,3.1611,0.0,0.0,0.0,0.0,0.0,0.0,3.3605,3.3549,0.0,0.0,0.0,3.3393,3.3393,3.3393,3.3393,3.3364,3.3185,3.2829,3.2427,3.1805,3.0902,3.063,3.0506,3.0506,3.0506,3.0506,0.0,0.0,3.0506,3.0506,0.0,3.0506,3.0506,3.0506,3.0506,3.0506,3.0506,3.0506,3.0506,3.0489,0.0,0.0,0.0,0.0,0.0,0.0,0.0,0.0,2.6948,2.6792,2.6792,2.6792,2.6792,2.6792,0.0,0.0,0.0,0.0,0.0,0.0,0.0,0.0,0.0,0.0,0.0,0.0,0.0,0.0,0.0,0.0,0.0,0.0,3.2191,3.2297,3.2517,3.2738,3.33,3.3862,3.4345,3.4397,3.4397,3.4397,3.3844,3.3484,3.3484,3.2868,3.2803,3.3471,3.3484,3.3789,3.4397,3.4397,3.4397,3.4397,3.4397,3.4397,3.4397,3.4397,3.4397,3.4397,3.4397,3.4397,3.4397,3.4397,3.4397,3.4397,3.4397,3.4397,3.4397,3.4397,3.4397,3.4397,0.0,0.0,3.3275,3.3275,0.0,0.0,0.0,0.0,0.0,0.0,0.0,0.0,0.0,0.0,0.0,3.3393,3.3393,3.3393,3.3393,3.3099,3.2892,3.2803,3.203,3.1329,3.0753,3.0572,3.0506,3.0506,3.0506,0.0,0.0,0.0,0.0,3.0506,0.0,3.0506,3.0506,3.0506,3.0506,3.0506,3.0506,3.0506,3.0489,3.0432,3.0401,0.0,0.0,0.0,0.0,0.0,0.0,0.0,2.6948,2.6792,2.6792,2.6792,2.6792,2.6792,0.0,0.0,0.0,0.0,0.0,0.0,0.0,0.0,0.0,0.0,0.0,0.0,0.0,0.0,0.0,0.0,3.2489,3.2254,3.2319,3.2524,3.2824,3.3346,3.3888,3.4267,3.4384,3.4397,3.4397,3.4397,3.4272,3.4189,3.4189,3.4029,3.4029,3.4189,3.4189,3.4251,3.4397,3.4397,3.4397,3.4397,3.4397,3.4397,3.4397,3.4397,3.4397,3.4397,3.4397,3.4397,3.4397,3.4397,3.4397,3.4397,3.4397,3.4397,3.4397,3.4397,3.4397,3.4397,0.0,0.0,0.0,0.0,0.0,0.0,0.0,0.0,0.0,0.0,0.0,0.0,0.0,3.3415,0.0,0.0,3.3393,3.3393,3.3393,3.32,3.2933,3.2586,3.1887,3.1278,3.081,3.0661,3.0551,3.0506,0.0,0.0,0.0,0.0,0.0,3.0506,0.0,3.0506,3.0506,3.0506,3.0506,3.0506,3.0506,3.0506,3.0489,3.0438,0.0,0.0,0.0,0.0,0.0,0.0,0.0,0.0,0.0,0.0,2.6792,2.6792,2.6792,2.6779,0.0,0.0,0.0,0.0,0.0,0.0,0.0,0.0,0.0,0.0,0.0,0.0,0.0,0.0,0.0,3.2684,3.2432,3.2281,3.2382,3.2823,3.3247,3.3548,3.4071,3.4397,3.4397,3.4397,3.4397,3.4397,3.4397,3.4397,3.4397,3.4397,3.4397,3.4397,3.4397,3.4397,3.4397,3.4397,3.4397,3.4397,3.4397,3.4397,3.4397,3.4397,3.4397,3.4397,3.4397,3.4397,3.4397,3.4397,3.4397,3.4397,3.4397,3.4397,3.4397,3.4397,3.4397,3.4397,0.0,0.0,0.0,0.0,0.0,0.0,0.0,0.0,0.0,0.0,0.0,0.0,0.0,3.3418,3.3393,0.0,0.0,0.0,3.3393,3.3271,3.2904,3.2214,3.1741,3.1295,3.0865,3.0753,3.0696,0.0,0.0,0.0,0.0,0.0,0.0,3.0506,0.0,3.0506,3.0506,3.0506,3.0506,3.0506,3.0506,3.0489,3.0474,0.0,0.0,0.0,0.0,2.8603,2.8364,2.7812,0.0,0.0,0.0,0.0,2.6792,2.6792,2.6779,2.6712,0.0,0.0,0.0,0.0,0.0,0.0,0.0,0.0,0.0,0.0,0.0,0.0,0.0,0.0,3.2757,3.2632,3.2538,3.2499,3.2454,3.3113,3.3626,3.3738,3.4123,3.4397,3.4397,3.4397,3.4397,3.4397,3.4397,3.4397,3.4397,3.4397,3.4397,3.4397,3.4397,3.4397,3.4397,3.4397,3.4397,3.4397,3.4397,3.4397,3.4397,3.4397,3.4397,3.4397,3.4397,3.4397,3.4397,3.4397,3.4397,3.4397,3.4397,3.4397,3.4397,3.4397,3.4397,3.4397,0.0,0.0,0.0,0.0,0.0,0.0,0.0,0.0,0.0,0.0,3.3647,3.357,3.3484,3.343,3.3393,3.3393,3.3393,3.3393,3.3393,0.0,0.0,3.1714,3.1295,3.0975,3.0733,3.0702,3.0946,0.0,0.0,0.0,0.0,0.0,0.0,3.0506,0.0,0.0,3.0506,3.0506,3.0506,3.0506,3.0506,3.0464,0.0,0.0,0.0,0.0,0.0,0.0,0.0,2.836,2.7852,0.0,0.0,0.0,2.6792,2.6792,2.6686,2.6523,0.0,0.0,0.0,0.0,0.0,0.0,0.0,0.0,0.0,0.0,0.0,0.0,0.0,0.0,3.298,3.2291,3.2593,3.2861,3.2679,3.3196,3.3757,3.4241,3.4358,3.4397,3.4397,3.4397,3.4397,3.4397,3.4397,3.4397,3.4397,3.4397,3.4397,3.4397,3.4397,3.4397,3.4397,3.4397,3.4397,3.4397,3.4397,3.4397,3.4397,3.4397,3.4397,3.4397,3.4397,3.4397,3.4397,3.4397,3.4397,3.4397,3.4397,3.4397,3.4397,3.4397,3.4397,3.4397,0.0,0.0,0.0,0.0,0.0,0.0,0.0,0.0,0.0,0.0,0.0,3.3556,3.3459,3.3408,3.3393,3.3393,3.3393,3.3393,3.3393,3.3093,3.2645,3.203,3.2147,3.1986,3.1439,3.1756,0.0,0.0,0.0,0.0,0.0,3.146,3.0903,0.0,0.0,0.0,0.0,0.0,0.0,3.0506,3.0464,0.0,0.0,0.0,0.0,0.0,0.0,0.0,0.0,0.0,2.8192,2.7515,2.7618,0.0,0.0,0.0,0.0,0.0,0.0,0.0,0.0,0.0,0.0,0.0,0.0,0.0,0.0,0.0,0.0,0.0,3.3217,3.2927,3.2521,3.2146,3.2222,3.2299,3.2215,3.2725,3.3169,3.3417,3.3443,3.3443,3.3443,3.3744,3.3953,3.3953,3.4228,3.4397,3.4397,3.4397,3.4397,3.4397,3.4397,3.4397,3.4397,3.4397,3.4397,3.4397,3.4397,3.4397,3.4397,3.4397,3.4397,3.4397,3.4397,3.4397,3.4397,3.4397,3.4397,3.4397,3.4397,3.4397,3.4397,3.4397,3.4397,3.4397,0.0,0.0,0.0,0.0,0.0,0.0,0.0,0.0,0.0,0.0,0.0,3.3527,3.3408,0.0,0.0,0.0,3.3393,3.3393,3.3393,3.3492,3.3311,3.277,3.323,3.3195,3.2454,3.2861,0.0,0.0,0.0,0.0,3.2956,3.2221,3.1493,0.0,3.0572,0.0,0.0,0.0,0.0,0.0,0.0,0.0,0.0,0.0,0.0,0.0,0.0,0.0,0.0,0.0,0.0,0.0,0.0,0.0,0.0,0.0,0.0,0.0,0.0,0.0,0.0,0.0,0.0,0.0,0.0,0.0,0.0,0.0,0.0,3.2577,3.2935,3.2503,3.2073,3.1982,3.1955,3.1913,3.1797,3.2313,3.2685,3.2685,3.2685,3.2751,3.2908,3.3326,3.3673,3.3783,3.4175,3.4397,3.4397,3.4397,3.4397,3.4397,3.4397,3.4397,3.4397,3.4397,3.4397,3.4397,3.4397,3.4397,3.4397,3.4397,3.4397,3.4397,3.4397,3.4397,3.4397,3.4397,3.4397,3.4397,3.4397,3.4397,3.4397,3.4397,3.4397,3.4397,0.0,0.0,0.0,0.0,0.0,0.0,0.0,0.0,0.0,0.0,0.0,3.3488,3.3418,3.3393,3.3393,3.3393,3.3393,3.3393,3.3393,3.3753,3.3944,3.3911,3.4261,0.0,0.0,0.0,0.0,0.0,0.0,0.0,3.3735,3.2989,3.2249,3.1515,3.0803,3.0506,3.0506,0.0,0.0,0.0,0.0,3.0259,0.0,0.0,0.0,0.0,0.0,0.0,0.0,0.0,0.0,0.0,0.0,0.0,0.0,0.0,0.0,0.0,0.0,0.0,0.0,0.0,0.0,0.0,0.0,0.0,0.0,0.0,0.0,3.1922,3.211,3.2128,3.2001,3.1685,3.2049,3.2245,3.1855,3.2313,3.2685,3.2685,3.2685,3.2921,3.3496,3.3574,3.3809,3.4319,3.4384,3.4397,3.4397,3.4397,3.4397,3.4397,3.4397,3.4397,3.4397,3.4397,3.4397,3.4397,3.4397,3.4397,3.4397,3.4397,3.4397,3.4397,3.4397,3.4397,3.4397,3.4397,3.4397,3.4397,3.4397,3.4397,3.4397,3.4397,3.4397,3.4397,0.0,0.0,0.0,0.0,0.0,0.0,0.0,0.0,0.0,0.0,0.0,0.0,0.0,3.3393,3.3393,3.3393,3.3875,3.4381,3.4906,3.5068,3.5042,3.4773,3.4936,0.0,0.0,0.0,0.0,0.0,0.0,3.4248,3.4485,3.3751,3.3271,3.2961,3.1758,3.0936,3.0506,3.0453,0.0,0.0,3.021,3.0081,0.0,0.0,0.0,0.0,0.0,0.0,0.0,0.0,0.0,0.0,0.0,0.0,0.0,0.0,0.0,0.0,0.0,0.0,0.0,0.0,0.0,0.0,0.0,0.0,0.0,0.0,3.134,3.1564,3.2019,3.1909,3.174,3.1611,3.1537,3.1457,3.1306,3.147,3.162,3.162,3.1895,3.2208,3.243,3.3156,3.3679,3.3862,3.4201,3.4397,3.4397,3.4397,3.4397,3.4397,3.4397,3.4397,3.4397,3.4397,3.4397,3.4397,3.4397,3.4397,3.4397,3.4397,3.4397,3.4397,3.4397,3.4397,3.4397,3.4397,3.4397,3.4397,3.4397,3.4397,3.4397,3.4397,3.4397,3.4397,0.0,0.0,0.0,0.0,0.0,3.3527,0.0,0.0,0.0,0.0,0.0,0.0,0.0,0.0,3.3393,3.3393,3.39,3.4544,3.5341,3.5502,3.5556,3.5543,3.5661,0.0,0.0,0.0,0.0,0.0,0.0,0.0,0.0,0.0,3.4049,3.3751,3.2531,3.1559,0.0,0.0,0.0,3.0306,0.0,3.0,2.9968,0.0,0.0,0.0,0.0,0.0,0.0,0.0,0.0,0.0,0.0,0.0,0.0,0.0,0.0,0.0,0.0,0.0,0.0,0.0,0.0,0.0,0.0,0.0,0.0,3.0712,3.0849,3.1014,3.1356,3.1404,3.1402,3.1402,3.1161,3.1005,3.1005,3.1005,3.1005,3.1005,3.1313,3.1686,3.2065,3.2829,3.3464,3.3835,3.4188,0.0,3.4397,3.4397,3.4397,3.4397,3.4397,3.4397,3.4397,3.4397,3.4397,3.4397,3.4397,3.4397,3.4397,3.4397,3.4397,3.4397,3.4397,3.4397,3.4397,3.4397,3.4397,3.4397,3.4397,3.4397,3.4397,3.4397,3.4397,3.4397,0.0,3.3541,3.3502,3.3502,3.3444,3.3393,3.3393,0.0,0.0,0.0,0.0,0.0,0.0,0.0,0.0,3.3429,3.3447,3.3784,3.4581,3.4941,3.5437,3.6132,3.6414,0.0,0.0,0.0,0.0,0.0,0.0,0.0,0.0,0.0,3.4485,0.0,3.3022,3.2299,3.1587,0.0,3.0964,3.0178,0.0,2.9968,2.9907,0.0,0.0,0.0,2.9907,2.9907,0.0,2.9907,0.0,0.0,0.0,0.0,0.0,0.0,0.0,0.0,0.0,0.0,0.0,0.0,0.0,0.0,2.8549,0.0,2.9551,2.9438,2.9879,3.0246,3.0146,3.0607,3.1005,3.1005,3.1005,3.1005,3.1005,3.1005,3.1005,3.1005,3.1018,3.1463,3.2574,3.2685,3.3156,3.4267,3.4345,3.4345,3.4345,3.4358,3.4384,3.4397,3.4397,3.4397,3.4397,3.4397,3.4397,3.4397,3.4397,3.4397,3.4397,3.4397,3.4397,3.4397,3.4397,3.4397,3.4397,3.4397,3.4397,3.4397,3.4397,3.4397,3.4397,3.4397,3.4397,3.4397,3.3459,3.3437,3.3422,3.3422,3.3408,3.3393,3.3393,0.0,0.0,0.0,0.0,0.0,0.0,0.0,0.0,3.4218,3.4273,3.4617,3.5413,3.5514,3.5497,3.5411,3.5531,3.5377,0.0,0.0,0.0,0.0,0.0,0.0,0.0,0.0,0.0,0.0,3.3022,3.2266,3.1484,3.0838,0.0,0.0,2.9968,2.9929,0.0,0.0,0.0,0.0,0.0,2.9907,2.9907,0.0,2.977,2.9375,0.0,0.0,0.0,0.0,0.0,0.0,2.5893,0.0,0.0,0.0,0.0,0.0,2.8262,2.8811,2.9344,2.9744,2.9893,3.0124,3.078,3.095,3.1005,3.1005,3.1005,3.1005,3.1005,3.1005,3.1005,3.1005,3.1333,3.1712,3.2026,3.245,3.2829,0.0,3.3169,3.3169,3.3169,3.3574,3.3992,3.4384,3.4397,3.4397,3.4397,3.4397,3.4397,3.4397,3.4397,3.4397,3.4397,3.4397,3.4397,3.4397,3.4397,3.4397,3.4397,3.4397,3.4397,3.4397,3.4397,3.4397,3.4397,3.4397,3.4397,3.4397,3.34,3.3393,3.3393,3.3393,3.3393,3.3393,0.0,0.0,0.0,0.0,0.0,0.0,0.0,0.0,0.0,3.4063,3.4092,3.4421,3.5204,3.5038,3.4915,3.4942,3.4806,3.4537,0.0,0.0,0.0,0.0,0.0,0.0,0.0,0.0,0.0,0.0,0.0,0.0,0.0,0.0,0.0,0.0,2.9924,0.0,0.0,2.9907,2.9907,0.0,0.0,0.0,2.9907,2.9907,2.9425,0.0,0.0,0.0,0.0,0.0,0.0,0.0,0.0,0.0,0.0,0.0,0.0,0.0,2.8002,2.8693,2.9323,0.0,2.953,2.9784,3.0299,3.052,3.0712,3.0966,3.1005,3.1005,3.1005,3.1005,3.1005,3.1005,3.1274,3.1555,3.1784,3.213,3.2437,3.2672,3.2685,3.2685,3.2685,3.3025,3.3385,3.3679,3.3927,3.4058,3.4058,3.428,3.4397,3.4397,3.4397,3.4397,3.4397,3.4397,3.4397,3.4397,3.4397,3.4397,3.4397,3.4397,3.4397,3.4397,3.4397,3.4397,3.4397,3.4397,3.4397,3.4397,0.0,3.3393,3.3393,3.3393,3.3393,3.3393,0.0,0.0,0.0,0.0,0.0,0.0,0.0,0.0,0.0,0.0,3.3393,3.3682,3.4321,3.3968,3.3915,3.4357,3.4117,3.3691,3.3109,0.0,0.0,0.0,0.0,0.0,0.0,0.0,0.0,0.0,3.1807,3.1363,0.0,0.0,0.0,2.9973,2.9924,2.9918,0.0,0.0,2.9907,2.9907,2.9907,2.9907,2.9896,2.9874,2.9016,0.0,0.0,0.0,0.0,0.0,2.5934,0.0,0.0,0.0,0.0,0.0,0.0,0.0,2.7703,2.8611,2.9305,2.8683,2.8936,2.9285,2.9272,2.9671,3.021,3.079,3.0895,3.0927,3.0992,3.1005,3.1005,3.1005,3.1005,3.1182,3.1654,3.1706,3.1934,3.2463,3.2502,3.2529,3.2594,3.2594,3.262,3.2685,3.3208,3.3522,3.3587,3.4071,3.4332,3.4397,3.4397,3.4397,3.4397,3.4397,3.4397,3.4397,3.4397,3.4397,3.4397,3.4397,3.4397,3.4397,3.4397,3.4397,3.4397,3.4397,3.4397,3.4397,3.3418,3.3393,3.3393,3.3393,3.3393,3.3393,0.0,0.0,0.0,0.0,0.0,0.0,0.0,0.0,0.0,0.0,0.0,3.3447,3.3527,3.3345,3.2978,3.2385,3.2799,3.2697,3.1948,3.2513,0.0,0.0,0.0,0.0,0.0,0.0,0.0,0.0,0.0,3.0605,0.0,0.0,0.0,2.9924,2.9951,0.0,2.9907,2.9907,2.9907,2.9907,2.9907,2.9907,2.9874,2.9654,2.9055,2.8295,0.0,0.0,0.0,0.0,0.0,0.0,0.0,0.0,0.0,0.0,0.0,0.0,2.7053,2.789,2.8683,0.0,2.8415,2.8673,2.8929,2.925,2.964,3.0197,3.0288,3.0445,3.094,3.1005,3.1005,3.1005,3.1005,3.1044,3.1143,3.1156,3.1196,3.1332,3.1332,3.1522,3.1941,3.1967,3.2195,3.2672,3.2803,3.3124,3.3607,3.3692,3.3966,3.4397,3.4397,3.4397,3.4397,3.4397,3.4397,3.4397,3.4397,3.4397,3.4397,3.4397,3.4397,3.4397,3.4397,3.4397,3.4397,3.4397,3.4397,3.4397,3.3418,3.3393,3.3393,3.3393,0.0,0.0,0.0,0.0,0.0,0.0,0.0,0.0,0.0,0.0,0.0,0.0,0.0,0.0,0.0,0.0,3.284,3.2368,3.2669,3.246,3.1661,3.2006,3.2188,0.0,0.0,0.0,0.0,0.0,0.0,0.0,0.0,0.0,0.0,0.0,3.1164,3.0938,3.0984,0.0,3.0441,3.0809,3.0954,3.0954,3.0954,3.0954,3.0904,3.064,2.9953,0.0,0.0,2.7987,2.7365,0.0,2.699,2.7102,0.0,0.0,0.0,2.6849,0.0,0.0,0.0,2.8171,2.87,2.8194,2.8173,2.8334,2.8611,2.8759,2.9044,2.9614,2.9706,2.981,3.0116,3.0639,3.1005,3.1005,3.1005,3.1005,3.1005,3.1005,3.1005,3.1005,3.1005,3.1117,3.1405,3.1399,3.1548,3.1842,3.2123,3.2391,3.2692,3.33,3.3731,3.3992,3.4267,3.4397,3.4397,3.4397,3.4397,3.4397,3.4397,3.4397,3.4397,3.4397,3.4397,3.4397,3.4397,3.4397,3.4397,3.4397,3.4397,3.4397,3.34,3.3393,3.3393,3.3393,0.0,0.0,0.0,0.0,0.0,0.0,0.0,0.0,0.0,0.0,0.0,0.0,0.0,0.0,0.0,0.0,0.0,3.2786,3.2778,3.2437,3.1714,3.1621,3.1558,0.0,0.0,0.0,0.0,0.0,0.0,0.0,0.0,0.0,0.0,0.0,0.0,3.2016,0.0,3.1887,3.1179,3.1773,3.2,3.2,3.2,3.2,3.1965,3.169,3.0889,2.9939,2.9527,2.8833,0.0,0.0,0.0,0.0,0.0,0.0,0.0,0.0,0.0,2.8598,0.0,0.0,0.0,2.8128,2.798,0.0,0.0,0.0,0.0,0.0,0.0,0.0,0.0,3.0024,0.0,3.0803,3.094,3.1005,3.1005,3.1005,3.1005,3.1005,3.1005,3.1005,3.1005,3.1005,3.1005,3.1005,3.1412,3.1693,3.1797,3.2875,3.3503,3.36,3.4136,3.4397,3.4397,3.4397,3.4397,3.4397,3.4397,3.4397,3.4397,3.4397,3.4397,3.4397,3.4397,3.4397,3.4397,3.4397,3.4522,3.4654,3.3393,3.3393,3.3393,3.3393,0.0,0.0,0.0,0.0,0.0,0.0,0.0,0.0,0.0,0.0,0.0,0.0,0.0,0.0,3.3013,0.0,0.0,0.0,3.2369,3.2153,3.1704,3.1348,3.1157,3.1169,0.0,0.0,0.0,0.0,0.0,0.0,3.1298,0.0,0.0,0.0,3.26,0.0,3.3356,3.3064,0.0,3.1968,3.2,3.2,3.2,3.2,3.1965,0.0,3.108,3.0322,0.0,2.9451,2.9262,0.0,0.0,0.0,0.0,0.0,0.0,0.0,2.8255,0.0,0.0,0.0,2.8457,2.7723,0.0,0.0,0.0,0.0,0.0,0.0,0.0,0.0,2.8494,2.907,2.9666,3.0158,3.0673,3.1005,3.1005,3.1005,3.1005,3.1005,3.1005,3.1005,3.1005,3.1005,3.1005,3.1005,3.1071,3.1326,3.1797,3.2476,3.3064,3.36,3.4136,3.4397,3.4397,3.4397,3.4397,3.4397,3.4397,3.4397,3.4397,3.4397,3.4397,3.4397,3.4397,3.4397,3.4397,3.4397,3.4889,3.5548,3.3393,3.3393,3.3393,3.3393,0.0,0.0,0.0,0.0,0.0,0.0,0.0,0.0,0.0,0.0,0.0,0.0,0.0,3.4398,0.0,0.0,0.0,0.0,3.356,0.0,3.2414,3.177,3.123,3.075,3.1014,0.0,0.0,0.0,0.0,0.0,3.1976,0.0,3.2727,0.0,3.3178,0.0,0.0,0.0,0.0,3.3226,3.3226,3.3226,3.3226,3.3128,3.2942,0.0,3.1895,0.0,0.0,0.0,0.0,0.0,0.0,0.0,0.0,0.0,0.0,0.0,0.0,0.0,2.835,0.0,2.8392,0.0,0.0,0.0,0.0,0.0,0.0,0.0,2.7715,0.0,0.0,0.0,2.8991,0.0,0.0,0.0,3.0979,3.1005,3.1005,3.1005,3.1005,3.1005,3.1005,3.1005,3.1005,3.1005,3.1005,3.1104,3.132,3.2241,3.2836,3.3097,3.3979,3.4397,3.4397,3.4397,3.4397,3.4397,3.4397,3.4397,3.4397,3.4397,3.4397,3.446,3.495,3.5155,3.5155,3.5155,3.5676,3.6399,3.3393,0.0,0.0,0.0,0.0,0.0,0.0,0.0,0.0,0.0,0.0,0.0,3.5485,3.5475,0.0,0.0,3.5351,3.5307,0.0,0.0,3.5195,0.0,0.0,0.0,0.0,3.2561,3.1844,3.1268,0.0,0.0,0.0,0.0,0.0,0.0,0.0,3.2907,3.3368,0.0,0.0,3.4101,3.4101,3.4101,3.4101,3.4101,3.4101,3.4101,3.4101,3.4053,3.393,3.3657,3.2949,0.0,3.2252,0.0,0.0,0.0,0.0,0.0,2.9929,0.0,0.0,0.0,0.0,0.0,0.0,0.0,0.0,0.0,0.0,0.0,0.0,0.0,0.0,0.0,0.0,2.7438,0.0,0.0,0.0,0.0,0.0,0.0,0.0,3.0751,3.0817,3.0992,3.1005,3.1005,3.1005,3.1005,3.1005,3.1005,3.1005,3.1005,3.1005,3.2143,3.2685,3.2712,3.3849,3.4397,3.4397,3.4397,3.4397,3.4397,3.4397,3.4397,3.4397,3.4397,3.4397,3.446,3.5094,3.5487,3.5729,3.5956,3.6557,3.7256,3.3393,3.3393,0.0,0.0,0.0,0.0,0.0,0.0,0.0,0.0,0.0,0.0,0.0,0.0,0.0,0.0,0.0,3.5195,3.5195,0.0,3.5195,0.0,0.0,3.4581,0.0,0.0,3.325,3.3201,0.0,0.0,0.0,0.0,0.0,0.0,0.0,3.351,3.4068,3.4068,3.4084,3.4101,3.4101,3.4101,3.4101,0.0,3.4101,3.4101,3.4101,0.0,0.0,3.4358,3.42,0.0,0.0,0.0,0.0,0.0,0.0,0.0,0.0,0.0,0.0,2.9741,0.0,0.0,0.0,0.0,2.8392,0.0,0.0,0.0,0.0,0.0,0.0,0.0,0.0,0.0,0.0,0.0,0.0,0.0,0.0,0.0,0.0,3.0127,3.0367,0.0,3.1005,3.1005,3.1005,3.1005,3.1005,3.1005,3.1005,3.1005,3.1005,3.2143,3.2685,3.2712,3.3849,3.4397,3.4397,3.4397,3.4397,3.4397,3.4397,3.4397,3.4397,3.4397,3.4397,3.4397,3.4439,3.495,3.5776,3.6582,3.7424,3.8165,3.4997,0.0,0.0,0.0,0.0,0.0,0.0,3.5557,0.0,0.0,0.0,0.0,0.0,3.6836,3.6783,0.0,0.0,3.6783,3.6783,3.6783,0.0,0.0,0.0,3.553,0.0,0.0,0.0,0.0,0.0,0.0,0.0,0.0,0.0,0.0,0.0,3.4084,0.0,0.0,0.0,0.0,0.0,3.4392,3.4826,0.0,3.4826,3.4865,3.5125,3.5192,0.0,3.4806,3.4361,3.397,3.4194,3.3439,3.2502,3.2707,3.229,3.1643,0.0,0.0,3.112,3.0909,0.0,0.0,0.0,0.0,0.0,0.0,0.0,0.0,0.0,0.0,0.0,0.0,0.0,0.0,0.0,0.0,0.0,0.0,0.0,0.0,0.0,0.0,0.0,0.0,3.0764,0.0,3.1005,3.1005,3.1005,3.1005,3.1005,3.1005,3.1005,3.2143,3.2685,3.2712,3.3849,3.4397,3.4397,3.4397,3.4397,3.4397,3.4397,3.4397,3.4397,3.4397,3.4397,3.4522,3.5622,3.5903,3.5716,3.6016,3.6635,3.7448,3.5804,0.0,0.0,0.0,0.0,0.0,0.0,0.0,0.0,0.0,3.7012,0.0,3.7605,0.0,3.7595,0.0,3.7595,3.7595,3.7595,3.7595,0.0,3.7595,3.695,0.0,0.0,0.0,0.0,0.0,0.0,3.4199,0.0,0.0,0.0,0.0,0.0,0.0,3.4101,0.0,3.4101,0.0,0.0,3.4777,0.0,0.0,3.5798,3.5613,0.0,3.5774,3.5701,3.5369,3.5027,3.4821,3.5108,3.4406,3.3478,3.3622,3.3071,3.2344,3.1931,3.1822,0.0,3.1558,3.1305,0.0,3.001,0.0,2.9186,0.0,0.0,0.0,0.0,0.0,0.0,0.0,0.0,0.0,0.0,2.749,0.0,0.0,0.0,0.0,0.0,0.0,0.0,3.0061,3.0458,3.0764,0.0,3.1005,3.1005,3.1005,3.1005,3.1005,3.1005,3.2143,3.2685,3.2712,3.3849,3.4397,3.4397,3.4397,3.4397,3.4397,3.4397,3.4397,3.4397,3.4397,3.4571,3.493,3.5702,3.6062,3.6201,3.6805,3.7333,3.7923,3.592,3.6526,0.0,0.0,3.6429,0.0,0.0,0.0,3.7837,0.0,3.7694,3.7658,3.7622,3.7595,3.7595,3.7595,3.7595,3.7595,3.7595,3.7595,0.0,0.0,3.7169,3.6919,3.69,0.0,0.0,0.0,0.0,0.0,0.0,0.0,0.0,0.0,3.4226,0.0,3.4101,3.4101,3.4117,3.4214,3.4923,3.5231,3.5441,3.6791,3.6937,3.636,3.6016,3.6112,3.6396,3.6044,3.6181,3.6507,3.6507,3.6116,3.5559,3.5041,3.4493,3.3819,3.2732,3.244,3.2314,3.1724,3.1583,0.0,0.0,0.0,3.0236,0.0,0.0,0.0,0.0,0.0,0.0,0.0,0.0,0.0,0.0,0.0,0.0,0.0,0.0,0.0,0.0,0.0,2.8856,2.9988,3.0087,3.0367,0.0,3.1005,3.1005,3.1005,3.1005,3.1005,3.1005,3.2143,3.2685,3.2712,3.3849,3.4397,3.4397,3.4397,3.4397,3.4397,3.4397,3.4397,3.4397,3.4397,3.4909,3.5629,3.484,3.5541,3.7223,3.8727,3.9301,3.9406,3.7584,3.7748,3.7803,0.0,3.7544,3.7619,0.0,0.0,0.0,0.0,3.7667,3.7613,3.7595,3.7595,3.7595,3.7595,3.7595,0.0,0.0,0.0,0.0,3.7595,3.7476,3.7253,3.69,3.6336,0.0,3.5594,0.0,0.0,3.4756,0.0,0.0,0.0,0.0,0.0,3.4101,3.4101,3.4421,3.4923,3.5117,3.583,3.6791,0.0,3.7536,3.7787,3.72,3.705,3.7061,3.6521,3.6415,3.6507,3.6507,3.5847,3.5088,3.4942,3.4252,3.3444,3.3164,3.3069,3.3027,3.2873,3.2608,3.2242,0.0,0.0,0.0,0.0,0.0,0.0,0.0,0.0,0.0,0.0,0.0,0.0,0.0,0.0,0.0,2.749,0.0,0.0,0.0,2.8137,2.8704,2.9444,2.9871,3.0367,3.0979,0.0,3.1005,3.1005,3.1005,3.1005,3.1005,3.2143,3.2685,3.2712,3.3849,3.4397,3.4397,3.4397,3.4397,3.4397,3.4397,3.4397,3.4397,3.4397,3.4909,3.5749,3.6096,3.729,3.8671,3.7829,3.7952,3.8557,3.82,3.8133,0.0,3.7889,0.0,0.0,3.781,3.7721,0.0,3.7667,3.7622,0.0,3.7595,3.7595,3.7595,3.7595,3.7595,0.0,3.7595,0.0,0.0,3.7595,3.7595,3.7485,3.7215,3.6751,0.0,3.5864,0.0,0.0,3.4691,0.0,0.0,0.0,0.0,3.4176,0.0,3.4441,3.5004,3.5717,3.5995,3.6594,0.0,3.7494,3.7822,3.8105,3.7463,3.7299,3.7313,3.6693,3.6507,3.6507,3.6507,3.5926,3.5203,3.4958,3.4305,3.3612,3.3364,3.3308,3.3308,3.3308,3.3122,3.2847,3.2356,3.2066,3.1762,0.0,3.0969,3.0632,0.0,0.0,0.0,0.0,0.0,0.0,0.0,0.0,0.0,0.0,2.749,0.0,0.0,2.7807,2.8255,2.8861,2.9431,2.9988,3.0581,0.0,3.1005,3.1005,3.1005,3.1104,3.1352,3.2241,3.2829,3.3091,3.3979,3.4397,3.4397,3.4397,3.4397,3.4418,3.4799,3.4971,3.4991,3.5352,3.6016,3.6864,3.7668,3.8356,3.8797,3.8312,3.8438,3.8907,3.8149,0.0,0.0,0.0,0.0,0.0,0.0,3.7712,0.0,3.7595,0.0,3.7764,3.7764,3.7836,3.7889,3.7889,0.0,3.7889,3.7889,3.7889,3.7853,3.7764,3.7764,3.772,3.7595,3.7111,0.0,0.0,0.0,0.0,0.0,0.0,0.0,0.0,0.0,0.0,0.0,3.4923,3.5684,3.6484,3.7066,3.7358,3.7492,3.7791,3.79,3.7829,3.732,3.7213,3.7269,3.6693,3.6507,3.6507,3.6507,3.6132,3.5623,3.5137,3.4591,3.3999,3.3525,3.3347,3.3308,3.3308,3.3308,3.3206,3.286,3.2775,3.2686,3.2327,3.1882,3.1518,3.14,0.0,0.0,0.0,0.0,0.0,0.0,0.0,0.0,0.0,0.0,0.0,0.0,2.749,2.7755,2.8351,2.8952,2.9523,3.0061,0.0,3.1005,3.1005,3.1005,3.1261,3.1797,3.2411,3.2999,3.36,3.4136,3.446,3.4571,3.4571,3.4634,3.4765,3.5528,3.5856,3.5916,3.6621,3.7424,3.8277,3.9101,3.8977,3.8464,3.9376,3.9732,3.9768,0.0,0.0,0.0,0.0,0.0,3.7891,3.8515,3.8041,3.7595,3.7595,3.8183,3.8594,3.8594,3.9119,3.9494,3.9494,3.9494,0.0,0.0,0.0,0.0,3.862,3.8594,3.8272,3.7604,3.6974,3.6492,0.0,0.0,0.0,0.0,0.0,0.0,0.0,0.0,0.0,3.502,3.515,0.0,3.7147,3.7247,3.7665,3.8171,3.7983,3.79,3.7877,3.7838,3.7498,3.6999,3.6631,3.6507,3.6507,3.6507,3.6132,3.5688,3.5591,3.4874,3.4085,3.3982,3.3632,3.3308,3.3308,3.3308,3.329,3.3206,3.3188,3.3171,3.31,3.3017,3.2709,3.193,0.0,0.0,0.0,0.0,0.0,0.0,0.0,0.0,0.0,0.0,2.749,0.0,0.0,2.7755,2.8351,2.8952,2.9523,3.0061,0.0,3.1005,0.0,3.1005,3.1261,0.0,0.0,3.2999,3.36,3.4136,3.4778,3.5467,3.5467,3.5836,3.6484,3.6607,3.6699,3.6699,3.6841,3.7424,3.8277,3.9101,3.9301,3.9228,3.9556,3.9803,3.9978,0.0,0.0,0.0,0.0,0.0,0.0,0.0,3.904,3.879,3.879,3.9119,3.9369,3.9369,3.969,3.9904,3.9904,3.9904,3.9904,3.9904,3.9904,3.9744,3.9387,3.9263,0.0,3.8078,3.7404,3.6688,3.5879,0.0,0.0,0.0,0.0,0.0,0.0,0.0,3.5085,0.0,0.0,0.0,3.7859,3.7859,3.7969,3.8137,3.8139,3.8074,3.7973,3.8199,3.8056,3.7745,3.7586,3.7538,3.7538,3.7538,3.7169,3.6745,3.6745,3.6166,3.5484,3.5172,3.4888,3.4633,3.4343,3.4285,3.4183,3.3856,3.3768,3.3669,3.3364,3.3308,3.3104,3.2433,3.136,0.0,0.0,0.0,0.0,0.0,0.0,0.0,0.0,0.0,0.0,0.0,0.0,0.0,0.0,0.0,2.9523,3.0061,0.0,3.1005,0.0,0.0,0.0,3.2261,0.0,3.337,3.4686,3.494,3.5514,3.632,3.632,3.6523,3.6933,3.7372,3.7558,3.7615,3.8144,3.8587,3.9017,3.9517,3.9711,3.9747,3.9927,4.0069,4.0172,0.0,3.8669,0.0,0.0,3.9512,0.0,4.0136,4.0154,4.0101,3.9922,4.0047,4.0154,4.0154,4.0315,4.0404,4.0404,4.0354,4.0335,4.0335,4.0285,4.0184,4.0006,3.9846,3.9411,3.8671,3.8095,3.7297,0.0,0.0,0.0,0.0,0.0,0.0,0.0,0.0,0.0,0.0,0.0,3.773,3.8377,3.8321,3.8214,3.813,3.8254,3.8278,3.8262,3.8591,3.8707,3.8722,3.8876,3.8738,3.8475,3.8344,3.8013,3.7662,3.7528,3.7117,3.6611,3.6132,3.5917,3.5733,3.5318,3.5189,3.5062,3.453,3.4417,3.4277,3.3785,3.3589,3.3342,3.2803,3.2105,0.0,0.0,0.0,0.0,0.0,0.0,0.0,0.0,0.0,0.0,2.7859,0.0,0.0,0.0,0.0,2.947,2.991,3.0607,3.1005,0.0,0.0,3.1653,3.2685,0.0,3.4007,3.5709,3.5876,3.6379,3.7184,3.7184,3.7261,3.7472,3.8154,3.8464,3.8519,3.9358,3.9699,3.9732,3.9925,4.0011,4.0013,4.0224,4.0312,4.0296,0.0,0.0,0.0,0.0,0.0,0.0,4.0877,4.0985,4.0735,3.9993,4.0529,4.0985,4.0985,4.1637,4.2083,4.2083,4.1841,4.1715,4.1715,4.154,4.1132,4.0379,4.0333,3.9954,3.9147,3.8893,3.8566,0.0,0.0,3.6066,0.0,0.0,0.0,0.0,0.0,0.0,3.7212,3.7277,3.773,3.8363,3.8075,3.8299,3.8756,3.823,3.8403,3.8948,3.9286,3.9414,3.9507,4.0122,3.9507,3.8409,3.7864,3.7662,3.7494,3.6963,3.6452,3.6072,3.6018,3.5652,3.5263,3.5208,3.5189,3.5175,3.5119,3.5105,3.5091,3.5034,3.4534,3.3828,3.2872,3.2631,3.2353,0.0,0.0,0.0,0.0,0.0,2.8599,2.9148,0.0,0.0,0.0,2.8133,0.0,0.0,2.9536,2.9318,2.9371,3.0417,3.1005,3.1005,3.1464,3.2039,3.2685,3.3978,3.4958,3.5709,3.6444,3.7237,3.8075,3.8075,3.8482,3.9159,3.9247,3.9283,3.9301,3.9589,3.9699,3.9732,3.9925,4.0011,4.0013,4.0224,4.0312,4.0329,0.0,0.0,0.0,0.0,0.0,0.0,0.0,4.14,4.1276,4.0965,4.1311,4.1519,4.1411,4.1693,4.1888,4.1888,4.1773,4.1719,4.1719,4.1648,4.1453,4.1126,4.0976,4.0514,3.9757,3.9072,3.8416,0.0,0.0,0.0,0.0,0.0,0.0,0.0,0.0,3.705,3.7341,3.7762,3.8132,3.8412,3.8466,3.8552,3.8645,3.9046,3.924,3.9367,3.9912,4.0107,4.0153,4.0397,4.0136,3.9656,3.9419,3.9335,3.9301,3.9061,3.8607,3.8141,3.778,3.7267,3.6726,3.6362,3.6267,3.6202,3.5822,3.5738,3.5639,3.5259,3.466,3.4082,3.3673,3.311,3.2525,3.1982,0.0,0.0,0.0,0.0,0.0,2.9753,0.0,0.0,0.0,2.8856,0.0,0.0,0.0,2.9593,3.0286,3.0757,3.1005,3.1005,0.0,3.2841,3.3403,3.4862,3.614,3.7188,3.7534,3.8117,3.8922,3.8922,3.9101,3.9406,3.9406,3.9406,3.9409,3.9747,3.9889,3.9925,4.0191,4.0296,4.0314,4.0383,4.0418,4.0497,4.061,0.0,4.112,0.0,4.1388,4.1604,4.1604,4.1604,4.1571,4.1487,4.162,4.1675,4.1615,4.1604,4.1604,4.1604,4.1538,4.1475,4.1475,4.1437,4.1392,4.1392,4.1215,0.0,4.0353,3.9641,3.8948,3.8244,3.7397,0.0,0.0,0.0,0.0,0.0,3.7325,3.7617,3.7665,3.8181,3.8521,3.8735,3.875,3.8865,3.9078,3.9635,3.9833,3.9861,4.0337,4.0489,4.0489,4.0489,4.0489,4.0472,4.0316,4.0264,4.0229,4.0056,3.9613,3.909,3.8653,3.8094,3.7524,3.7115,3.6998,3.6885,3.645,3.6351,3.6202,3.5583,3.51,3.4698,3.453,3.3752,3.298,3.2472,0.0,0.0,0.0,3.0471,0.0,0.0,2.9732,2.9436,2.9763,2.9501,0.0,0.0,0.0,3.0209,3.1011,3.1241,3.1511,0.0,0.0,0.0,3.453,3.5986,3.7214,3.8202,3.8427,3.8848,3.9406,3.9445,3.9481,3.9481,3.955,3.9586,3.9604,3.9943,4.0084,4.0119,4.0401,4.0489,4.0489,4.0489,4.0645,4.0907,4.2262,4.2065,4.1895,4.1895,4.1729,4.1604,4.1604,4.1604,4.1498,4.1243,4.1209,4.13,4.1571,4.1604,4.1604,4.1604,4.1374,4.1192,4.1192,4.1024,4.0923,0.0,0.0,4.0894,4.0894,4.0883,4.0662,4.0258,0.0,0.0,3.787,0.0,3.7293,3.7325,3.8068,3.8391,3.8391,3.8391,3.8812,3.9417,3.8702,3.925,4.0401,3.9744,3.9907,4.0489,4.0489,4.0489,4.0489,4.0489,4.0489,4.0403,3.9877,3.9699,3.9592,3.8998,3.8393,3.7924,3.7905,3.7481,3.6998,3.6998,3.6998,3.6998,3.6998,3.6998,3.6815,3.6216,3.6089,3.5892,3.5287,3.4632,3.3935,3.3218,0.0,0.0,0.0,3.0471,0.0,3.0927,2.9985,2.9737,3.0874,2.9959,0.0,0.0,0.0,3.1174,3.1205,0.0,0.0,3.4116,3.4759,0.0,3.6066,3.748,3.8169,3.8202,3.901,3.9388,3.9406,3.9607,3.9699,3.9699,3.9907,3.9978,4.0011,4.0207,4.0312,4.0296,4.0453,4.0489,4.0489,4.0489,4.0968,4.1586,4.203,4.1701,4.1611,4.2142,4.2033,4.2071,4.2609,4.2696,4.2672,4.2569,4.2557,4.2594,4.2684,4.221,4.2088,0.0,4.2121,4.1762,0.0,4.1206,4.0912,4.0912,4.0912,4.0912,4.0912,4.0619,4.0271,3.9821,0.0,0.0,0.0,3.8107,3.8051,3.8068,3.8294,3.8683,3.9136,3.8872,3.9171,3.9817,3.9582,3.9765,4.0154,4.0185,4.0305,4.0489,4.0489,4.0489,4.0489,4.0489,4.0489,4.0472,4.0298,4.0246,4.0211,4.0021,3.9562,3.9126,3.9126,3.8393,3.7601,3.7601,3.7308,3.6998,3.6998,3.6998,3.6956,3.6745,3.6379,3.6047,3.585,3.5297,3.457,3.3592,3.3266,0.0,3.1885,0.0,3.2081,3.2272,3.2225,3.2318,3.267,3.2246,0.0,0.0,0.0,0.0,0.0,0.0,0.0,0.0,3.5753,0.0,3.6925,3.8311,3.9013,3.9013,3.9283,3.9406,3.9406,3.9747,3.9821,3.9699,3.9907,4.0011,4.0028,4.0224,4.0312,4.0296,4.0453,4.0489,4.0568,4.1061,4.1401,4.1724,4.2677,4.2333,4.2224,4.274,4.2606,4.262,4.312,4.3189,4.3189,4.3189,4.3189,4.331,4.3586,4.3172,0.0,4.3172,4.2741,4.2452,4.2452,4.2016,4.1757,4.1757,4.1757,4.1619,4.1314,4.0925,0.0,3.961,3.9047,3.8788,3.8811,3.8811,3.8942,3.9185,3.9185,3.9371,3.9673,3.9418,3.9651,4.0181,4.0049,4.0165,4.0412,4.0475,4.0489,4.0489,4.0489,4.0489,4.0489,4.0489,4.0489,4.0489,4.0489,4.0489,4.0489,4.0489,4.0124,3.9699,3.9699,3.898,3.8188,3.7962,3.762,3.7289,3.7056,3.6998,3.6998,3.6998,3.6703,3.6436,3.6436,3.6137,3.5608,3.4794,3.4624,3.4136,3.2778,0.0,3.3364,0.0,0.0,3.3506,3.3506,3.3332,3.3417,0.0,0.0,0.0,0.0,0.0,3.4978,3.5754,3.7032,3.7822,3.8087,3.8951,3.9406,3.9406,3.9478,3.9553,3.964,3.996,4.0049,3.9945,4.0104,4.0189,4.0207,4.0314,4.0366,4.0414,4.078,4.0907,4.0999,4.1709,4.2125,4.2466,4.3927,4.3673,4.3505,4.3557,4.339,4.3293,4.3345,4.3345,4.3345,4.3345,4.3345,4.3603,4.4298,4.438,4.4104,4.3414,0.0,0.0,4.3276,4.3224,4.3189,4.3189,4.3189,4.2844,4.209,4.1677,4.0899,3.9692,3.8925,3.8908,3.9572,3.9572,3.9896,4.0511,4.0482,4.0319,4.0064,4.0017,4.0198,4.0512,4.017,4.0443,4.102,4.0645,4.0489,4.0489,4.0489,4.0489,4.0489,4.0489,4.0489,4.0489,4.0489,4.0489,4.0489,4.0489,4.0141,3.9753,3.9753,3.9325,3.8727,3.8169,3.7962,3.7753,3.7192,3.7017,3.6998,3.7056,3.7056,3.709,3.7115,3.7129,3.6993,3.6583,3.6443,3.5755,3.3886,3.4373,3.4391,3.2935,0.0,3.3842,3.3842,3.3651,3.4052,0.0,0.0,0.0,0.0,0.0,3.6425,3.8329,3.8454,3.8766,3.9391,3.9406,3.9406,3.9406,3.9625,3.9803,3.9978,4.0207,4.0312,4.0312,4.0453,4.0489,4.0489,4.0568,4.0566,4.0661,4.1368,4.1678,4.1755,4.2417,4.3048,4.3624,0.0,0.0,4.3449,4.4007,4.4073,4.4229,4.479,4.4876,4.4876,4.4876,4.4876,4.4945,4.5117,4.5134,4.5065,4.4893,4.4367,4.4035,4.4035,4.35,4.3189,4.3189,4.3189,4.3103,4.2913,4.2467,4.1745,4.075,4.0256,4.0092,4.0268,4.0268,4.0349,4.0496,4.0242,4.0396,4.0799,4.0244,4.0362,4.0906,4.0534,4.0488,4.0627,4.0541,4.0489,4.0489,4.0489,4.0489,4.0489,4.0489,4.0489,4.0489,4.0489,4.0489,4.0489,4.0489,4.0403,4.0298,4.0298,3.9912,3.9451,3.9307,3.8579,3.7867,3.7715,3.7327,3.7134,3.7582,3.7677,3.7829,3.8281,3.8355,3.8183,3.7565,3.7468,3.7116,3.6207,3.6608,3.6841,0.0,3.6877,3.7159,3.7159,3.6841,3.6779,0.0,0.0,3.743,3.8123,3.8142,3.8219,3.8395,3.8901,3.9242,3.9406,3.9406,3.9406,3.9391,3.9765,3.9872,3.9785,4.0229,4.0401,4.0312,4.0453,4.0489,4.0536,4.1107,4.134,4.1417,4.2109,4.2371,4.2448,4.3128,4.3451,4.3685,4.4393,4.4271,4.432,4.4734,4.4803,4.4941,4.5328,4.5397,4.5397,4.5397,4.5397,4.5397,4.5397,4.5397,4.5397,4.5397,4.5031,4.4803,4.4803,4.4423,4.4212,4.4212,4.4212,4.4057,4.3707,4.3279,4.2422,4.115,4.0717,4.0673,4.0997,4.0997,4.1175,4.1453,4.1269,4.1229,4.131,4.0889,4.0762,4.0816,4.0593,4.0489,4.0489,4.0489,4.0489,4.0489,4.0489,4.0489,4.0489,4.0489,4.0489,4.0489,4.0489,4.0489,4.0489,4.0489,4.0489,4.0489,4.0489,4.0281,4.0001,3.9753,3.8998,3.8319,3.8319,3.7848,3.7582,3.8188,3.8094,3.8075,3.869,3.9035,3.9098,3.8725,3.8864,3.866,3.7602,3.8065,3.8247,3.7507,3.7945,3.8308,3.8308,3.801,3.7963,3.8266,3.8211,0.0,3.9091,3.9244,3.9174,3.8856,3.9304,3.9481,3.9406,3.9406,3.946,3.9535,3.9854,3.9996,3.9998,4.0333,4.047,4.0416,4.0826,4.0999,4.1061,4.1771,4.2063,4.2125,4.2805,4.3066,4.3143,4.3805,4.4052,4.4098,4.5432,4.5397,4.5397,4.5397,4.5397,4.5397,4.5397,4.5397,4.5397,4.5397,4.5397,4.5397,4.5397,4.5397,4.5397,4.5397,4.5397,4.5397,4.5397,4.5397,4.5397,4.5397,4.5397,4.51,4.4471,4.3995,4.2975,4.1409,4.1013,4.1143,4.1742,4.1742,4.2051,4.2602,4.2476,4.2126,4.1588,4.1489,4.1072,4.0489,4.0489,4.0489,4.0489,4.0489,4.0489,4.0489,4.0489,4.0489,4.0489,4.0489,4.0489,4.0489,4.0489,4.0489,4.0489,4.0489,4.0489,4.0489,4.0489,4.0489,4.0385,3.993,3.9379,3.8943,3.8943,3.8468,3.8206,3.88,3.8523,3.8356,3.8947,3.9469,3.9824,3.9824,4.0194,4.0017,3.8645,0.0,3.9144,3.7788,3.8216,3.8632,3.8632,3.8466,3.8576,3.9156,3.9044,3.9249,3.9948,3.9892,3.9714,3.9496,3.9661,3.9661,3.9496,3.9445,3.9553,3.975,3.9925,4.0101,4.0312,4.0543,4.0676,4.0707,4.1447,4.1755,4.1801,4.2479,4.2756,4.2817,4.3482,4.3762,4.3805,4.4391,4.4591,4.4591,4.541,4.5397,4.5397,4.5397,4.5397,4.5397,4.5397,4.5397,4.5397,4.5397,4.5397,4.5397,4.5397,4.5397,4.5397,4.5397,4.5397,4.5397,4.5397,4.5397,4.5397,4.5397,4.5397,4.5345,4.5238,4.4403,4.345,4.2387,4.2309,4.2343,4.2441,4.2441,4.2489,4.2587,4.2013,4.1703,4.1555,4.0952,4.061,4.0489,4.0489,4.0489,4.0489,4.0489,4.0489,4.0489,4.0489,4.0489,4.0489,4.0489,4.0489,4.0489,4.0489,4.0489,4.0489,4.0489,4.0489,4.0489,4.0489,4.0489,4.0472,4.0403,3.9965,3.9556,3.9556,3.9075,3.8837,3.9448,3.9484,3.9592,4.0126,4.0316,4.0368,4.0368,4.0437,4.0424,4.0163,0.0,4.0255,4.001,4.0081,4.0165,4.0165,4.0042,3.9984,4.0091,4.0074,4.0047,3.9996,4.0244,4.0226,3.9907,3.9925,3.9925,3.9922,3.9732,3.975,3.9943,3.9978,4.0101,4.0327,4.1067,4.1432,4.1478,4.2155,4.243,4.2509,4.3174,4.3436,4.3498,4.4175,4.4437,4.4452,4.456,4.4591,4.4591,4.5397,4.5397,4.5397,4.5397,4.5397,4.5397,4.5397,4.5397,4.5397,4.5397,4.5397,4.5397,4.5397,4.5397,4.5397,4.5397,4.5397,4.5397,4.5397,4.5397,4.5397,4.5397,4.5397,4.5274,4.5042,4.4359,4.3649,4.2989,4.2727,4.2602,4.2602,4.2429,4.2317,4.2302,4.1818,4.1506,4.1306,4.0969,4.0696,4.0489,4.0489,4.0489,4.0489,4.0489,4.0489,4.0489,4.0489,4.0489,4.0489,4.0489,4.0489,4.0489,4.0489,4.0489,4.0489,4.0489,4.0489,4.0489,4.0489,4.0489,4.0489,4.0489,4.0316,4.0124,4.0124,3.9684,3.9451,4.0018,3.9895,3.9859,4.0403,4.0489,4.0489,4.0489,4.0489,4.0489,4.0489,4.0489,4.0489,4.0489,4.0489,4.0489,4.0489,4.0437,4.0401,4.0401,4.0331,4.0294,4.0261,4.0349,4.0349,4.0261,4.0084,4.0011,4.0011,3.9907,3.9907,4.0011,4.0482,4.0741,4.0878,4.1728,4.214,4.2186,4.2848,4.3143,4.319,4.3852,4.4129,4.416,4.4468,4.4591,4.4591,4.4591,4.4591,4.4591,4.5397,4.5397,4.5397,4.5397,4.5397,4.5397,4.5397,4.5397,4.5397,4.5397,4.5397,4.5397,4.5397,4.5397,4.5397,4.5397,4.5397,4.5397,4.5397,4.5397,4.5397,4.5397,4.5397,4.518,4.4708,4.4245,4.3766,4.3306,4.282,4.2555,4.2492,4.2222,4.2061,4.1964,4.1638,4.134,4.1104,4.1003,4.0782,4.0489,4.0489,4.0489,4.0489,4.0489,4.0489,4.0489,4.0489,4.0489,4.0489,4.0489,4.0489,4.0489,4.0489,4.0612,4.0768,4.0768,4.0876,4.0922,4.0582,4.0489,4.0489,4.0489,4.0489,4.0489,4.0489,4.0176,4.0001,4.0436,4.0176,4.0001,4.042,4.0489,4.0489,4.0489,4.0489,4.0489,4.0489,4.0489,4.0489,4.0489,4.0489,4.0489,4.0489,4.0489,4.0489,4.0489,4.0401,4.0383,4.0489,4.0401,4.0383,4.0489,4.0244,4.0119,4.0119,4.0236,4.0327,4.0378,4.1158,4.1569,4.1635,4.247,4.2833,4.2863,4.3544,4.3821,4.3867,4.4391,4.4591,4.4591,4.4591,4.4591,4.4591,4.4591,4.4591,4.4591,4.5397,4.5397,4.5397,4.5397,4.5397,4.5397,4.5397,4.5397,4.5397,4.5397,4.5397,4.5397,4.5397,4.5397,4.5397,4.5397,4.5397,4.5397,4.5397,4.5397,4.5397,4.5397,4.5397,4.518,4.4708,4.4245,4.3766,4.3306,4.282,4.2429,4.2142,4.2109,4.1932,4.1621,4.1305,4.1121,4.1087,4.0696,4.0524,4.0489,4.0489,4.0489,4.0489,4.0489,4.0489,4.0489,4.0489,4.0489,4.0489,4.0489,4.0489,4.0489,4.0489,4.0968,4.1524,4.1524,4.1971,4.2153,4.0843,4.0489,4.0489,4.0489,4.0489,4.0489,4.0489,4.0472,4.0455,4.0489,4.0472,4.0455,4.0489,4.0489,4.0489,4.0489,0.0,0.0,4.0489,4.0489,4.0489,4.0489,4.0489,4.0489,4.0489,4.0489,4.0489,4.0489,4.0489,4.0489,4.0489,4.0489,4.0489,4.0489,4.0472,4.0455,4.0455,4.0959,4.1298,4.1489,4.1988,4.2328,4.2537,4.322,4.3531,4.3559,4.4237,4.4529,4.4529,4.4575,4.4591,4.4591,4.4591,4.4591,4.4591,4.4591,4.4591,4.4591,4.5397,4.5397,4.5397,4.5397,4.5397,4.5397,4.5397,4.5397,4.5397,4.5397,4.5397,4.5397,4.5397,4.5397,4.5397,4.5397,4.5397,4.5397,4.5397,4.5397,4.5397,4.5397,4.5397,4.518,4.4708,4.4527,4.4174,4.3608,4.3019,4.2617,4.2412,4.1769,4.1406,4.1273,4.0901,4.073,4.0713,4.0558,4.0489,4.0489,4.0489,4.0489,4.0489,4.0489,4.0489,4.0489,4.0489,4.0489,4.0489,4.0489,4.0799,4.1168,4.1168,4.1663,4.2232,4.2232,4.2402,4.2476,4.1937,4.1799,4.1799,4.1799,4.1491,4.1168,4.1168,4.083,4.0489,4.0489,4.0489,4.0489,4.0489,4.0489,4.0489,4.0489,0.0,4.0489,4.0489,4.0489,4.0489,4.0489,4.0489,4.0489,4.0489,4.0489,4.0489,4.0489,4.0489,4.0489,4.0489,4.0937,4.1168,4.1168,4.1584,4.1599,4.1184,4.1377,4.173,4.2232,4.2824,4.3147,4.3236,4.3913,4.4221,4.4221,4.4483,4.4591,4.4591,4.4591,4.4591,4.4591,4.4591,4.4591,4.4591,4.4591,4.4591,4.4591,4.5397,4.5397,4.5397,4.5397,4.5397,4.5397,4.5397,4.5397,4.5397,4.5397,4.5397,4.5397,4.5397,4.5397,4.5397,4.5397,4.5397,4.5397,4.5397,4.5397,4.5397,4.5397,4.5397,4.5247,4.493,4.4721,4.4429,4.4018,4.3381,4.2849,4.2428,4.1753,4.1223,4.0901,4.0627,4.0489,4.0489,4.0489,4.0489,4.0489,4.0489,4.0489,4.0489,4.0489,4.0489,4.0489,4.0489,4.0661,4.0845,4.0845,4.1322,4.1909,4.1909,4.2371,4.2956,4.3171,4.3233,4.3233,4.3233,4.3233,4.3125,4.2709,4.2248,4.1909,4.1909,4.1353,4.0845,4.0845,4.0676,4.0489,4.0489,4.0489,4.0489,4.0489,4.0489,4.0489,4.0489,4.0489,4.0489,4.0489,4.0489,4.0489,4.0489,4.0489,4.0489,4.0489,4.0489,4.0614,4.083,4.1507,4.1909,4.1909,4.2371,4.2479,4.2235,4.2235,4.2448,4.2925,4.359,4.3898,4.3932,4.4391,4.4591,4.4591,4.4591,4.4591,4.4591,4.4591,4.4591,4.4591,4.4591,4.4591,4.4591,4.4591,4.4591,4.4591,4.5397,4.5397,4.5397,4.5397,4.5397,4.5397,4.5397,4.5397,4.5397,4.5397,4.5397,4.5397,4.5397,4.5397,4.5397,4.5397,4.5397,4.5397,4.5397,4.5397,4.5397,4.5397,4.5397,4.5397,4.5397,4.481,4.4502,4.4502,4.3902,4.3096,4.2109,4.2093,4.1539,4.0507,4.0489,4.0489,4.0489,4.0489,4.0489,4.0489,4.0522,4.0505,4.0505,4.0505,4.0522,4.0522,4.0522,4.0984,4.1617,4.1617,4.2048,4.2599,4.2599,4.3082,4.3747,4.4391,4.4591,4.4591,4.4591,4.4591,4.4283,4.2956,4.2599,4.2599,4.2599,4.2094,4.1617,4.1617,4.1014,4.0505,4.0505,4.0489,4.0489,4.0489,4.0489,4.0489,4.0489,4.0489,4.0489,4.0489,4.0489,4.0489,4.0489,4.0522,4.0505,4.0505,4.0505,4.0845,4.1571,4.2248,4.2599,4.2599,4.2599,4.294,4.3608,4.3608,4.3608,4.3624,4.4283,4.4591,4.4591,4.4591,4.4591,4.4591,4.4591,4.4591,4.4591,4.4591,4.4591,4.4591,4.4591,4.4591,4.4591,4.4591,4.4591,4.4591,4.5397,4.5397,4.5397,4.5397,4.5397,4.5397,4.5397,4.5397,4.5397,4.5397,4.5397,4.5397,4.5397,4.5397,4.5397,4.5397,4.5397,4.5397,4.5397,4.5397,4.5397,4.5397,4.53,4.5261,4.5261,4.5005,4.4797,4.4703,4.4061,4.3515,4.3063,4.2126,4.1508,4.1176,4.0715,4.0489,4.0489,4.0489,4.0489,4.0553,4.1061,4.1278,4.1324,4.1784,4.1968,4.1968,4.1968,4.2107,4.2309,4.2309,4.274,4.339,4.3867,4.4144,4.4329,4.4529,4.4591,4.4591,4.4591,4.4591,4.4498,4.4113,4.3652,4.3297,4.3297,4.2771,4.2309,4.2309,4.1755,4.1278,4.1278,4.0845,4.0489,4.0489,4.0489,4.0489,4.0489,4.0489,4.0489,4.0489,4.0489,4.0489,4.0489,4.0968,4.1278,4.1278,4.1707,4.2061,4.2294,4.2925,4.3297,4.3297,4.3759,4.4098,4.4298,4.3855,4.3855,4.4298,4.4498,4.4591,4.4591,4.4591,4.4591,4.4591,4.4591,4.4591,4.4591,4.4591,4.4591,4.4591,4.4591,4.4591,4.4591,4.4591,4.4591,4.4591,4.5397,4.5397,4.5397,4.5397,4.5397,4.5397,4.5397,4.5397,4.5397,4.5397,4.5397,4.5397,4.5397,4.5397,4.5397,4.5397,4.5397,4.5535,4.5845,4.5862,4.6,4.6293,4.6185,4.5825,4.5207,4.5019,4.4886,4.4789,4.4639,4.435,4.3961,4.3439,4.3057,4.2779,4.2074,4.178,4.1762,4.1447,4.1337,4.1368,4.1832,4.2001,4.2048,4.2463,4.2602,4.2602,4.2602,4.2771,4.2987,4.2987,4.3451,4.4071,4.4468,4.4591,4.4591,4.4591,4.4591,4.4591,4.4591,4.4591,4.4591,4.4591,4.4298,4.399,4.399,4.3482,4.2987,4.2987,4.2463,4.2001,4.2001,4.163,4.1245,4.0984,4.0937,4.083,4.0536,4.0753,4.0937,4.0937,4.1168,4.1337,4.1337,4.1722,4.2001,4.2001,4.2617,4.2987,4.2987,4.3636,4.399,4.399,4.4391,4.4591,4.4591,4.419,4.419,4.4591,4.4591,4.4591,4.4591,4.4591,4.4591,4.4591,4.4591,4.4591,4.4591,4.4591,4.4591,4.4591,4.4591,4.4591,4.4591,4.4591,4.4591,4.4591,4.5483,4.55,4.5518,4.5587,4.5604,4.5604,4.5604,4.5604,4.5604,4.5604,4.5604,4.5604,4.5604,4.5604,4.5604,4.5604,4.5604,4.5927,4.6652,4.6686,4.6996,4.7669,4.7564,4.6842,4.543,4.5128,4.4993,4.4993,4.5552,4.548,4.4911,4.5512,4.5465,4.487,4.4124,4.3799,4.3747,4.3005,4.271,4.2692,4.2681,4.2694,4.2709,4.2771,4.2786,4.2786,4.2786,4.3156,4.3701,4.3701,4.4098,4.4591,4.4591,4.4591,4.4591,4.4591,4.4591,4.4591,4.4591,4.4591,4.4591,4.4591,4.4591,4.4591,4.4591,4.4132,4.3701,4.3701,4.3159,4.2694,4.2694,4.2648,4.2402,4.1786,4.1694,4.1463,4.0784,4.1278,4.1694,4.1694,4.2232,4.2602,4.2602,4.2663,4.2709,4.2771,4.3344,4.3701,4.3701,4.4267,4.4591,4.4591,4.4591,4.4591,4.4591,4.4591,4.4591,4.4591,4.4591,4.4591,4.4591,4.4591,4.4591,4.4591,4.4591,4.4591,4.4591,4.4591,4.4591,4.4591,4.4591,4.4591,4.4591,4.4591,4.4591,4.4591,4.6221,4.6341,4.6514,4.71,4.7203,4.7203,4.7203,4.7203,4.7203,4.7203,4.7203,4.7203,4.7203,4.7203,4.7203,4.7203,4.7203,4.7289,4.7445,4.7462,4.7531,4.7686,4.7564,4.7339,4.7013,4.6684,4.6527,4.6527,4.6537,4.649,4.634,4.596,4.5733,4.5544,4.487,4.4558,4.4509,4.3765,4.3452,4.3462,4.3399,4.3374,4.3436,4.3975,4.4175,4.4175,4.4175,4.4252,4.4375,4.4375,4.4468,4.4591,4.4591,4.4591,4.4591,4.4591,4.4591,4.4591,4.4591,4.4591,4.4591,4.4591,4.4591,4.4591,4.4591,4.4483,4.4375,4.4375,4.3852,4.3374,4.3374,4.294,4.2556,4.2417,4.2368,4.234,4.2168,4.2294,4.2368,4.2368,4.2525,4.2602,4.2602,4.3082,4.359,4.4129,4.4298,4.4375,4.4375,4.4514,4.4591,4.4591,4.4591,4.4591,4.4591,4.4591,4.4591,4.4591,4.4591,4.4591,4.4591,4.4591,4.4591,4.4591,4.4591,4.4591,4.4591,4.4591,4.4591,4.4591,4.4591,4.4591,4.4591,4.4591,4.4591,4.4591,4.7031,4.7117,4.7255,4.7634,4.7703,4.7703,4.7703,4.7703,4.7703,4.7703,4.7703,4.7703,4.7703,4.7703,4.7703,4.7703,4.7703,4.7858,4.8203,4.8206,4.8393,4.8772,4.8735,4.8647,4.8558,4.8309,4.779,4.7003,4.7215,4.7327,4.7312,4.733,4.7327,4.7296,4.6582,4.6274,4.6225,4.5491,4.5182,4.5145,4.4748,4.4611,4.4606,4.4603,4.4591,4.4591,4.4591,4.4591,4.4591,4.4591,4.4591,4.4591,4.4591,4.4591,4.4591,4.4591,4.4591,4.4591,4.4591,4.4591,4.4591,4.4591,4.4591,4.4591,4.4591,4.4591,4.4591,4.4591,4.4314,4.4086,4.4086,4.379,4.3448,4.3125,4.3082,4.2971,4.2648,4.2879,4.3082,4.3082,4.3356,4.3541,4.3541,4.3867,4.4221,4.4575,4.4591,4.4591,4.4591,4.4591,4.4591,4.4591,4.4591,4.4591,4.4591,4.4591,4.4591,4.4591,4.4591,4.4591,4.4591,4.4591,4.4591,4.4591,4.4591,4.4591,4.4591,4.4591,4.4591,4.4591,4.4591,4.4591,4.4591,4.4591,4.4591,4.4591,4.7858,4.7893,4.7927,4.8065,4.81,4.81,4.81,4.81,4.81,4.81,4.81,4.81,4.81,4.81,4.81,4.81,4.81,4.8358,4.8979,4.9013,4.9306,4.9962,5.0011,4.9906,4.9708,4.956,4.8799,4.7393,4.7844,4.809,4.8107,4.8714,4.9001,4.897,4.8354,4.8096,4.8048,4.7305,4.6983,4.6914,4.604,4.5697,4.5606,4.4877,4.4591,4.4591,4.4591,4.4591,4.4591,4.4591,4.4591,4.4591,4.4591,4.4591,4.4591,4.4591,4.4591,4.4591,4.4591,4.4591,4.4591,4.4591,4.4591,4.4591,4.4591,4.4591,4.4591,4.4591,4.4591,4.4591,4.4591,4.4591,4.4406,4.3852,4.3759,4.3575,4.3017,4.3421,4.3759,4.3759,4.4252,4.4591,4.4591,4.4591,4.4591,4.4591,4.4591,4.4591,4.4591,4.4591,4.4591,4.4591,4.4591,4.4591,4.4591,4.4591,4.4591,4.4591,4.4591,4.4591,4.4591,4.4591,4.4591,4.4591,4.4591,4.4591,4.4591,4.4591,4.4591,4.4591,4.4591,4.4591,4.4591,4.4591,4.4591,4.4591,4.8531,4.8637,4.8875,4.9565,4.9686,4.9686,4.9686,4.9686,4.9686,4.9686,4.9686,4.9686,4.9686,4.9686,4.9686,4.9686,4.9686,4.972,4.9824,4.9841,4.989,5.0011,5.0011,4.9906,4.9708,4.956,4.931,4.8893,4.886,4.8849,4.8849,4.8951,4.9001,4.8986,4.8909,4.8845,4.8798,4.8064,4.7754,4.7638,4.6237,4.5697,4.5606,4.4877,4.4591,4.4591,4.4591,4.4591,4.4591,4.4591,4.4591,4.4591,4.4591,4.4591,4.4591,4.4591,4.4591,4.4591,4.4591,4.4591,4.4591,4.4591,4.4591,4.4591,4.4591,4.4591,4.4591,4.4591,4.4591,4.4591,4.4591,4.4591,4.4575,4.4468,4.4452,4.4421,4.4344,4.4406,4.4452,4.4452,4.4545,4.4591,4.4591,4.4591,4.4591,4.4591,4.4591,4.4591,4.4591,4.4591,4.4591,4.4591,4.4591,4.4591,4.4591,4.4591,4.4591,4.4591,4.4591,4.4591,4.4591,4.4591,4.4591,4.4591,4.4591,4.4591,4.4591,4.4591,4.4591,4.4591,4.4591,4.4591,4.4591,4.4591,4.4591,4.4591,4.941,4.9479,4.9582,4.9942,5.0011,5.0011,5.0011,5.0011,5.0011,5.0011,5.0011,5.0011,5.0011,5.0011,5.0011,5.0011,5.0011,5.0011,5.0011,5.0011,5.0011,5.0011,5.0011,4.9906,4.9708,4.9634,4.9471,4.9199,4.9078,4.9001,4.9001,4.9001,4.9001,4.9001,4.9001,4.9001,4.8986,4.8656,4.8513,4.8417,4.7356,4.6932,4.6812,4.566,4.5216,4.516,4.4761,4.4591,4.4591,4.4591,4.4591,4.4591,4.4591,4.4591,4.4591,4.4591,4.4591,4.4591,4.4591,4.4591,4.4591,4.4591,4.4591,4.4591,4.4591,4.4591,4.4591,4.4591,4.4591,4.4591,4.4591,4.4591,4.4591,4.4591,4.4591,4.4591,4.4591,4.4591,4.4591,4.4591,4.4591,4.4591,4.4591,4.4591,4.4591,4.4591,4.4591,4.4591,4.4591,4.4591,4.4591,4.4591,4.4591,4.4591,4.4591,4.4591,4.4591,4.4591,4.4591,4.4591,4.4591,4.4591,4.4591,4.4591,4.4591,4.4591,4.4591,4.4591,4.4591,4.4591,4.4591,4.4591,4.4591,4.4591,4.4591,4.4591]}]]